<?xml version="1.0" encoding="UTF-8" standalone="no" ?>
<gpx xmlns="http://www.topografix.com/GPX/1/1" xmlns:xsi="http://www.w3.org/2001/XMLSchema-instance" xsi:schemaLocation="http://www.topografix.com/GPX/1/1 http://www.topografix.com/GPX/1/1/gpx.xsd" version="1.1" creator="VisuGPX - https://www.visugpx.com">
  <metadata>
    <name>cima chauve</name>
    <desc><![CDATA[balade en rejoignant loic en haut du chauve]]></desc>
  </metadata>
  <trk>
    <name><![CDATA[Cima-chauve]]></name>
    <desc><![CDATA[(null)]]></desc>
    <trkseg>
      <trkpt lat="43.78142" lon="7.25306">
        <ele>301.420589</ele>
        <time>2011-11-12T12:29:58Z</time>
      </trkpt>
      <trkpt lat="43.78142" lon="7.25306">
        <ele>301.420589</ele>
        <time>2011-11-12T12:29:59Z</time>
      </trkpt>
      <trkpt lat="43.78142" lon="7.25306">
        <ele>301.420589</ele>
        <time>2011-11-12T12:30:00Z</time>
      </trkpt>
      <trkpt lat="43.78142" lon="7.25306">
        <ele>301.420589</ele>
        <time>2011-11-12T12:30:01Z</time>
      </trkpt>
      <trkpt lat="43.78224" lon="7.25238">
        <ele>545.420559</ele>
        <time>2011-11-12T12:30:03Z</time>
      </trkpt>
      <trkpt lat="43.78224" lon="7.25238">
        <ele>545.420559</ele>
        <time>2011-11-12T12:30:05Z</time>
      </trkpt>
      <trkpt lat="43.78224" lon="7.25238">
        <ele>545.420559</ele>
        <time>2011-11-12T12:30:09Z</time>
      </trkpt>
      <trkpt lat="43.78238" lon="7.2522">
        <ele>540.42054</ele>
        <time>2011-11-12T12:30:24Z</time>
      </trkpt>
      <trkpt lat="43.78215" lon="7.25238">
        <ele>537.420547</ele>
        <time>2011-11-12T12:31:02Z</time>
      </trkpt>
      <trkpt lat="43.78233" lon="7.25238">
        <ele>537.42057</ele>
        <time>2011-11-12T12:31:19Z</time>
      </trkpt>
      <trkpt lat="43.78233" lon="7.25237">
        <ele>537.42057</ele>
        <time>2011-11-12T12:31:23Z</time>
      </trkpt>
      <trkpt lat="43.78241" lon="7.25232">
        <ele>543.42057</ele>
        <time>2011-11-12T12:31:51Z</time>
      </trkpt>
      <trkpt lat="43.78251" lon="7.25231">
        <ele>545.420586</ele>
        <time>2011-11-12T12:32:04Z</time>
      </trkpt>
      <trkpt lat="43.7826" lon="7.25228">
        <ele>546.420593</ele>
        <time>2011-11-12T12:32:11Z</time>
      </trkpt>
      <trkpt lat="43.78277" lon="7.25221">
        <ele>547.420593</ele>
        <time>2011-11-12T12:32:21Z</time>
      </trkpt>
      <trkpt lat="43.78286" lon="7.25215">
        <ele>547.420597</ele>
        <time>2011-11-12T12:32:28Z</time>
      </trkpt>
      <trkpt lat="43.78297" lon="7.2521">
        <ele>548.420601</ele>
        <time>2011-11-12T12:32:33Z</time>
      </trkpt>
      <trkpt lat="43.78307" lon="7.25204">
        <ele>548.420601</ele>
        <time>2011-11-12T12:32:39Z</time>
      </trkpt>
      <trkpt lat="43.78315" lon="7.25197">
        <ele>548.420601</ele>
        <time>2011-11-12T12:32:46Z</time>
      </trkpt>
      <trkpt lat="43.78337" lon="7.25182">
        <ele>551.420597</ele>
        <time>2011-11-12T12:33:01Z</time>
      </trkpt>
      <trkpt lat="43.78352" lon="7.25173">
        <ele>554.420593</ele>
        <time>2011-11-12T12:33:15Z</time>
      </trkpt>
      <trkpt lat="43.78363" lon="7.25168">
        <ele>555.420601</ele>
        <time>2011-11-12T12:33:22Z</time>
      </trkpt>
      <trkpt lat="43.78372" lon="7.25163">
        <ele>556.420605</ele>
        <time>2011-11-12T12:33:27Z</time>
      </trkpt>
      <trkpt lat="43.78381" lon="7.25158">
        <ele>557.420609</ele>
        <time>2011-11-12T12:33:31Z</time>
      </trkpt>
      <trkpt lat="43.7839" lon="7.2515">
        <ele>557.420601</ele>
        <time>2011-11-12T12:33:35Z</time>
      </trkpt>
      <trkpt lat="43.78399" lon="7.25141">
        <ele>558.420597</ele>
        <time>2011-11-12T12:33:39Z</time>
      </trkpt>
      <trkpt lat="43.78402" lon="7.25139">
        <ele>559.420597</ele>
        <time>2011-11-12T12:33:40Z</time>
      </trkpt>
      <trkpt lat="43.7841" lon="7.25132">
        <ele>559.420593</ele>
        <time>2011-11-12T12:33:44Z</time>
      </trkpt>
      <trkpt lat="43.78424" lon="7.2512">
        <ele>559.420586</ele>
        <time>2011-11-12T12:33:51Z</time>
      </trkpt>
      <trkpt lat="43.78426" lon="7.25118">
        <ele>559.420586</ele>
        <time>2011-11-12T12:33:52Z</time>
      </trkpt>
      <trkpt lat="43.78437" lon="7.2511">
        <ele>560.420586</ele>
        <time>2011-11-12T12:33:58Z</time>
      </trkpt>
      <trkpt lat="43.7845" lon="7.25096">
        <ele>560.42057</ele>
        <time>2011-11-12T12:34:08Z</time>
      </trkpt>
      <trkpt lat="43.78457" lon="7.25085">
        <ele>561.420555</ele>
        <time>2011-11-12T12:34:15Z</time>
      </trkpt>
      <trkpt lat="43.7847" lon="7.25063">
        <ele>564.420532</ele>
        <time>2011-11-12T12:34:23Z</time>
      </trkpt>
      <trkpt lat="43.78477" lon="7.25051">
        <ele>565.420517</ele>
        <time>2011-11-12T12:34:28Z</time>
      </trkpt>
      <trkpt lat="43.78485" lon="7.25039">
        <ele>565.420498</ele>
        <time>2011-11-12T12:34:32Z</time>
      </trkpt>
      <trkpt lat="43.78491" lon="7.25028">
        <ele>565.420486</ele>
        <time>2011-11-12T12:34:37Z</time>
      </trkpt>
      <trkpt lat="43.78498" lon="7.25017">
        <ele>566.420471</ele>
        <time>2011-11-12T12:34:43Z</time>
      </trkpt>
      <trkpt lat="43.78507" lon="7.25006">
        <ele>567.42046</ele>
        <time>2011-11-12T12:34:47Z</time>
      </trkpt>
      <trkpt lat="43.78515" lon="7.24998">
        <ele>567.420456</ele>
        <time>2011-11-12T12:34:50Z</time>
      </trkpt>
      <trkpt lat="43.78526" lon="7.24987">
        <ele>567.420448</ele>
        <time>2011-11-12T12:34:53Z</time>
      </trkpt>
      <trkpt lat="43.78533" lon="7.24979">
        <ele>567.420441</ele>
        <time>2011-11-12T12:34:55Z</time>
      </trkpt>
      <trkpt lat="43.78543" lon="7.24971">
        <ele>567.420437</ele>
        <time>2011-11-12T12:34:57Z</time>
      </trkpt>
      <trkpt lat="43.78552" lon="7.24965">
        <ele>566.420433</ele>
        <time>2011-11-12T12:34:59Z</time>
      </trkpt>
      <trkpt lat="43.78562" lon="7.24959">
        <ele>566.420433</ele>
        <time>2011-11-12T12:35:01Z</time>
      </trkpt>
      <trkpt lat="43.78574" lon="7.24953">
        <ele>566.420441</ele>
        <time>2011-11-12T12:35:03Z</time>
      </trkpt>
      <trkpt lat="43.78585" lon="7.24948">
        <ele>566.420444</ele>
        <time>2011-11-12T12:35:05Z</time>
      </trkpt>
      <trkpt lat="43.78596" lon="7.24944">
        <ele>566.420456</ele>
        <time>2011-11-12T12:35:07Z</time>
      </trkpt>
      <trkpt lat="43.78606" lon="7.24941">
        <ele>565.420456</ele>
        <time>2011-11-12T12:35:09Z</time>
      </trkpt>
      <trkpt lat="43.78612" lon="7.24939">
        <ele>565.420464</ele>
        <time>2011-11-12T12:35:10Z</time>
      </trkpt>
      <trkpt lat="43.78623" lon="7.24936">
        <ele>565.420471</ele>
        <time>2011-11-12T12:35:12Z</time>
      </trkpt>
      <trkpt lat="43.78632" lon="7.24935">
        <ele>565.420483</ele>
        <time>2011-11-12T12:35:14Z</time>
      </trkpt>
      <trkpt lat="43.78641" lon="7.24926">
        <ele>565.420475</ele>
        <time>2011-11-12T12:35:18Z</time>
      </trkpt>
      <trkpt lat="43.78642" lon="7.24913">
        <ele>565.420448</ele>
        <time>2011-11-12T12:35:20Z</time>
      </trkpt>
      <trkpt lat="43.78643" lon="7.24899">
        <ele>565.420422</ele>
        <time>2011-11-12T12:35:22Z</time>
      </trkpt>
      <trkpt lat="43.78644" lon="7.24885">
        <ele>566.420391</ele>
        <time>2011-11-12T12:35:24Z</time>
      </trkpt>
      <trkpt lat="43.78643" lon="7.24877">
        <ele>566.420372</ele>
        <time>2011-11-12T12:35:25Z</time>
      </trkpt>
      <trkpt lat="43.78643" lon="7.24861">
        <ele>566.420341</ele>
        <time>2011-11-12T12:35:27Z</time>
      </trkpt>
      <trkpt lat="43.78642" lon="7.24844">
        <ele>567.420303</ele>
        <time>2011-11-12T12:35:29Z</time>
      </trkpt>
      <trkpt lat="43.7864" lon="7.24824">
        <ele>567.420261</ele>
        <time>2011-11-12T12:35:31Z</time>
      </trkpt>
      <trkpt lat="43.78642" lon="7.24808">
        <ele>568.420227</ele>
        <time>2011-11-12T12:35:34Z</time>
      </trkpt>
      <trkpt lat="43.78649" lon="7.24799">
        <ele>570.420216</ele>
        <time>2011-11-12T12:35:37Z</time>
      </trkpt>
      <trkpt lat="43.7866" lon="7.24789">
        <ele>571.420212</ele>
        <time>2011-11-12T12:35:39Z</time>
      </trkpt>
      <trkpt lat="43.78672" lon="7.24778">
        <ele>571.420204</ele>
        <time>2011-11-12T12:35:41Z</time>
      </trkpt>
      <trkpt lat="43.78682" lon="7.2477">
        <ele>571.420204</ele>
        <time>2011-11-12T12:35:43Z</time>
      </trkpt>
      <trkpt lat="43.78691" lon="7.24769">
        <ele>570.420212</ele>
        <time>2011-11-12T12:35:45Z</time>
      </trkpt>
      <trkpt lat="43.787" lon="7.24773">
        <ele>570.420235</ele>
        <time>2011-11-12T12:35:47Z</time>
      </trkpt>
      <trkpt lat="43.78713" lon="7.24779">
        <ele>570.420265</ele>
        <time>2011-11-12T12:35:50Z</time>
      </trkpt>
      <trkpt lat="43.78742" lon="7.24774">
        <ele>574.420296</ele>
        <time>2011-11-12T12:36:03Z</time>
      </trkpt>
      <trkpt lat="43.78744" lon="7.24771">
        <ele>574.420288</ele>
        <time>2011-11-12T12:36:05Z</time>
      </trkpt>
      <trkpt lat="43.7875" lon="7.24757">
        <ele>574.420265</ele>
        <time>2011-11-12T12:36:08Z</time>
      </trkpt>
      <trkpt lat="43.78755" lon="7.24745">
        <ele>573.42025</ele>
        <time>2011-11-12T12:36:12Z</time>
      </trkpt>
      <trkpt lat="43.78759" lon="7.24727">
        <ele>571.420219</ele>
        <time>2011-11-12T12:36:19Z</time>
      </trkpt>
      <trkpt lat="43.78769" lon="7.24688">
        <ele>571.420151</ele>
        <time>2011-11-12T12:36:33Z</time>
      </trkpt>
      <trkpt lat="43.78769" lon="7.24688">
        <ele>571.420151</ele>
        <time>2011-11-12T12:36:34Z</time>
      </trkpt>
      <trkpt lat="43.78773" lon="7.24676">
        <ele>570.420132</ele>
        <time>2011-11-12T12:36:36Z</time>
      </trkpt>
      <trkpt lat="43.78776" lon="7.24664">
        <ele>570.420113</ele>
        <time>2011-11-12T12:36:39Z</time>
      </trkpt>
      <trkpt lat="43.78781" lon="7.2465">
        <ele>569.420086</ele>
        <time>2011-11-12T12:36:42Z</time>
      </trkpt>
      <trkpt lat="43.78786" lon="7.24638">
        <ele>569.420067</ele>
        <time>2011-11-12T12:36:45Z</time>
      </trkpt>
      <trkpt lat="43.78791" lon="7.24625">
        <ele>570.420044</ele>
        <time>2011-11-12T12:36:49Z</time>
      </trkpt>
      <trkpt lat="43.78808" lon="7.24627">
        <ele>575.420074</ele>
        <time>2011-11-12T12:37:02Z</time>
      </trkpt>
      <trkpt lat="43.78817" lon="7.24632">
        <ele>576.420097</ele>
        <time>2011-11-12T12:37:06Z</time>
      </trkpt>
      <trkpt lat="43.78826" lon="7.24639">
        <ele>577.42012</ele>
        <time>2011-11-12T12:37:12Z</time>
      </trkpt>
      <trkpt lat="43.78834" lon="7.24646">
        <ele>578.420151</ele>
        <time>2011-11-12T12:37:19Z</time>
      </trkpt>
      <trkpt lat="43.78842" lon="7.24653">
        <ele>580.420177</ele>
        <time>2011-11-12T12:37:25Z</time>
      </trkpt>
      <trkpt lat="43.78851" lon="7.2466">
        <ele>582.420204</ele>
        <time>2011-11-12T12:37:32Z</time>
      </trkpt>
      <trkpt lat="43.78861" lon="7.24663">
        <ele>584.420227</ele>
        <time>2011-11-12T12:37:40Z</time>
      </trkpt>
      <trkpt lat="43.78888" lon="7.2466">
        <ele>585.420254</ele>
        <time>2011-11-12T12:37:54Z</time>
      </trkpt>
      <trkpt lat="43.78915" lon="7.24671">
        <ele>587.420315</ele>
        <time>2011-11-12T12:38:08Z</time>
      </trkpt>
      <trkpt lat="43.78939" lon="7.24693">
        <ele>590.420395</ele>
        <time>2011-11-12T12:38:20Z</time>
      </trkpt>
      <trkpt lat="43.78957" lon="7.24696">
        <ele>588.420425</ele>
        <time>2011-11-12T12:38:30Z</time>
      </trkpt>
      <trkpt lat="43.78967" lon="7.24697">
        <ele>588.420441</ele>
        <time>2011-11-12T12:38:34Z</time>
      </trkpt>
      <trkpt lat="43.78987" lon="7.24694">
        <ele>588.420464</ele>
        <time>2011-11-12T12:38:44Z</time>
      </trkpt>
      <trkpt lat="43.78994" lon="7.24693">
        <ele>588.420471</ele>
        <time>2011-11-12T12:38:47Z</time>
      </trkpt>
      <trkpt lat="43.79005" lon="7.24692">
        <ele>589.420483</ele>
        <time>2011-11-12T12:38:52Z</time>
      </trkpt>
      <trkpt lat="43.79015" lon="7.24693">
        <ele>590.420502</ele>
        <time>2011-11-12T12:38:57Z</time>
      </trkpt>
      <trkpt lat="43.79025" lon="7.24695">
        <ele>590.420517</ele>
        <time>2011-11-12T12:39:02Z</time>
      </trkpt>
      <trkpt lat="43.79044" lon="7.24696">
        <ele>592.420544</ele>
        <time>2011-11-12T12:39:17Z</time>
      </trkpt>
      <trkpt lat="43.79053" lon="7.24694">
        <ele>593.420555</ele>
        <time>2011-11-12T12:39:24Z</time>
      </trkpt>
      <trkpt lat="43.79077" lon="7.24688">
        <ele>593.42057</ele>
        <time>2011-11-12T12:39:32Z</time>
      </trkpt>
      <trkpt lat="43.7909" lon="7.24684">
        <ele>593.420586</ele>
        <time>2011-11-12T12:39:36Z</time>
      </trkpt>
      <trkpt lat="43.79103" lon="7.24679">
        <ele>593.420593</ele>
        <time>2011-11-12T12:39:40Z</time>
      </trkpt>
      <trkpt lat="43.79115" lon="7.24676">
        <ele>593.420601</ele>
        <time>2011-11-12T12:39:44Z</time>
      </trkpt>
      <trkpt lat="43.79124" lon="7.24672">
        <ele>594.420609</ele>
        <time>2011-11-12T12:39:47Z</time>
      </trkpt>
      <trkpt lat="43.79124" lon="7.24672">
        <ele>594.420609</ele>
        <time>2011-11-12T12:39:48Z</time>
      </trkpt>
      <trkpt lat="43.79136" lon="7.24665">
        <ele>593.420609</ele>
        <time>2011-11-12T12:39:51Z</time>
      </trkpt>
      <trkpt lat="43.79156" lon="7.24654">
        <ele>594.420616</ele>
        <time>2011-11-12T12:39:57Z</time>
      </trkpt>
      <trkpt lat="43.79171" lon="7.24641">
        <ele>595.420601</ele>
        <time>2011-11-12T12:40:02Z</time>
      </trkpt>
      <trkpt lat="43.79184" lon="7.24627">
        <ele>595.420593</ele>
        <time>2011-11-12T12:40:07Z</time>
      </trkpt>
      <trkpt lat="43.79193" lon="7.24617">
        <ele>596.420586</ele>
        <time>2011-11-12T12:40:11Z</time>
      </trkpt>
      <trkpt lat="43.792" lon="7.24605">
        <ele>597.42057</ele>
        <time>2011-11-12T12:40:15Z</time>
      </trkpt>
      <trkpt lat="43.7921" lon="7.24586">
        <ele>598.420547</ele>
        <time>2011-11-12T12:40:22Z</time>
      </trkpt>
      <trkpt lat="43.79217" lon="7.24575">
        <ele>599.420532</ele>
        <time>2011-11-12T12:40:26Z</time>
      </trkpt>
      <trkpt lat="43.79219" lon="7.24572">
        <ele>599.420525</ele>
        <time>2011-11-12T12:40:27Z</time>
      </trkpt>
      <trkpt lat="43.79226" lon="7.24563">
        <ele>599.420521</ele>
        <time>2011-11-12T12:40:30Z</time>
      </trkpt>
      <trkpt lat="43.79239" lon="7.24554">
        <ele>600.420517</ele>
        <time>2011-11-12T12:40:37Z</time>
      </trkpt>
      <trkpt lat="43.7924" lon="7.24553">
        <ele>601.420517</ele>
        <time>2011-11-12T12:40:41Z</time>
      </trkpt>
      <trkpt lat="43.7925" lon="7.24543">
        <ele>602.420506</ele>
        <time>2011-11-12T12:40:43Z</time>
      </trkpt>
      <trkpt lat="43.79258" lon="7.24534">
        <ele>602.420502</ele>
        <time>2011-11-12T12:40:48Z</time>
      </trkpt>
      <trkpt lat="43.79258" lon="7.24534">
        <ele>602.420502</ele>
        <time>2011-11-12T12:40:49Z</time>
      </trkpt>
      <trkpt lat="43.79265" lon="7.24524">
        <ele>603.420486</ele>
        <time>2011-11-12T12:40:53Z</time>
      </trkpt>
      <trkpt lat="43.79278" lon="7.24509">
        <ele>604.420471</ele>
        <time>2011-11-12T12:41:02Z</time>
      </trkpt>
      <trkpt lat="43.7928" lon="7.24507">
        <ele>604.420471</ele>
        <time>2011-11-12T12:41:03Z</time>
      </trkpt>
      <trkpt lat="43.79288" lon="7.24498">
        <ele>604.420464</ele>
        <time>2011-11-12T12:41:08Z</time>
      </trkpt>
      <trkpt lat="43.79294" lon="7.24492">
        <ele>605.420456</ele>
        <time>2011-11-12T12:41:12Z</time>
      </trkpt>
      <trkpt lat="43.79302" lon="7.24485">
        <ele>604.420456</ele>
        <time>2011-11-12T12:41:17Z</time>
      </trkpt>
      <trkpt lat="43.79312" lon="7.24481">
        <ele>606.420464</ele>
        <time>2011-11-12T12:41:22Z</time>
      </trkpt>
      <trkpt lat="43.79312" lon="7.24481">
        <ele>606.420464</ele>
        <time>2011-11-12T12:41:25Z</time>
      </trkpt>
      <trkpt lat="43.79322" lon="7.24477">
        <ele>606.420464</ele>
        <time>2011-11-12T12:41:29Z</time>
      </trkpt>
      <trkpt lat="43.79341" lon="7.24468">
        <ele>609.420479</ele>
        <time>2011-11-12T12:41:43Z</time>
      </trkpt>
      <trkpt lat="43.7935" lon="7.24462">
        <ele>608.420475</ele>
        <time>2011-11-12T12:41:52Z</time>
      </trkpt>
      <trkpt lat="43.79359" lon="7.24457">
        <ele>610.420479</ele>
        <time>2011-11-12T12:41:57Z</time>
      </trkpt>
      <trkpt lat="43.79367" lon="7.24452">
        <ele>611.420475</ele>
        <time>2011-11-12T12:42:02Z</time>
      </trkpt>
      <trkpt lat="43.7939" lon="7.24429">
        <ele>615.420464</ele>
        <time>2011-11-12T12:42:15Z</time>
      </trkpt>
      <trkpt lat="43.79413" lon="7.24406">
        <ele>619.420441</ele>
        <time>2011-11-12T12:42:32Z</time>
      </trkpt>
      <trkpt lat="43.79425" lon="7.24393">
        <ele>622.420433</ele>
        <time>2011-11-12T12:42:41Z</time>
      </trkpt>
      <trkpt lat="43.79433" lon="7.24385">
        <ele>623.420425</ele>
        <time>2011-11-12T12:42:46Z</time>
      </trkpt>
      <trkpt lat="43.79435" lon="7.24383">
        <ele>623.420425</ele>
        <time>2011-11-12T12:42:50Z</time>
      </trkpt>
      <trkpt lat="43.79443" lon="7.24375">
        <ele>623.420418</ele>
        <time>2011-11-12T12:42:51Z</time>
      </trkpt>
      <trkpt lat="43.79448" lon="7.2437">
        <ele>623.420414</ele>
        <time>2011-11-12T12:42:54Z</time>
      </trkpt>
      <trkpt lat="43.79457" lon="7.24361">
        <ele>624.42041</ele>
        <time>2011-11-12T12:43:00Z</time>
      </trkpt>
      <trkpt lat="43.79465" lon="7.24353">
        <ele>625.420403</ele>
        <time>2011-11-12T12:43:05Z</time>
      </trkpt>
      <trkpt lat="43.79467" lon="7.24351">
        <ele>625.420399</ele>
        <time>2011-11-12T12:43:08Z</time>
      </trkpt>
      <trkpt lat="43.79478" lon="7.24335">
        <ele>626.420387</ele>
        <time>2011-11-12T12:43:14Z</time>
      </trkpt>
      <trkpt lat="43.79486" lon="7.24324">
        <ele>627.420372</ele>
        <time>2011-11-12T12:43:18Z</time>
      </trkpt>
      <trkpt lat="43.79492" lon="7.24315">
        <ele>627.420364</ele>
        <time>2011-11-12T12:43:22Z</time>
      </trkpt>
      <trkpt lat="43.79492" lon="7.24315">
        <ele>627.420364</ele>
        <time>2011-11-12T12:43:23Z</time>
      </trkpt>
      <trkpt lat="43.79499" lon="7.24305">
        <ele>628.420353</ele>
        <time>2011-11-12T12:43:27Z</time>
      </trkpt>
      <trkpt lat="43.79506" lon="7.24296">
        <ele>629.420338</ele>
        <time>2011-11-12T12:43:33Z</time>
      </trkpt>
      <trkpt lat="43.79506" lon="7.24296">
        <ele>629.420338</ele>
        <time>2011-11-12T12:43:35Z</time>
      </trkpt>
      <trkpt lat="43.79512" lon="7.24285">
        <ele>631.420326</ele>
        <time>2011-11-12T12:43:37Z</time>
      </trkpt>
      <trkpt lat="43.79521" lon="7.24266">
        <ele>633.420296</ele>
        <time>2011-11-12T12:43:42Z</time>
      </trkpt>
      <trkpt lat="43.79523" lon="7.24263">
        <ele>633.420296</ele>
        <time>2011-11-12T12:43:44Z</time>
      </trkpt>
      <trkpt lat="43.79528" lon="7.24251">
        <ele>632.420273</ele>
        <time>2011-11-12T12:43:46Z</time>
      </trkpt>
      <trkpt lat="43.79535" lon="7.24232">
        <ele>633.420246</ele>
        <time>2011-11-12T12:43:52Z</time>
      </trkpt>
      <trkpt lat="43.7954" lon="7.24221">
        <ele>634.420227</ele>
        <time>2011-11-12T12:43:55Z</time>
      </trkpt>
      <trkpt lat="43.79548" lon="7.24204">
        <ele>636.420208</ele>
        <time>2011-11-12T12:44:01Z</time>
      </trkpt>
      <trkpt lat="43.79554" lon="7.24191">
        <ele>636.420189</ele>
        <time>2011-11-12T12:44:05Z</time>
      </trkpt>
      <trkpt lat="43.79562" lon="7.24179">
        <ele>637.42017</ele>
        <time>2011-11-12T12:44:10Z</time>
      </trkpt>
      <trkpt lat="43.79561" lon="7.24192">
        <ele>637.420197</ele>
        <time>2011-11-12T12:44:28Z</time>
      </trkpt>
      <trkpt lat="43.7956" lon="7.24206">
        <ele>638.420227</ele>
        <time>2011-11-12T12:44:34Z</time>
      </trkpt>
      <trkpt lat="43.7956" lon="7.24206">
        <ele>638.420227</ele>
        <time>2011-11-12T12:44:41Z</time>
      </trkpt>
      <trkpt lat="43.79561" lon="7.24219">
        <ele>639.42025</ele>
        <time>2011-11-12T12:44:44Z</time>
      </trkpt>
      <trkpt lat="43.79561" lon="7.24233">
        <ele>641.42028</ele>
        <time>2011-11-12T12:44:50Z</time>
      </trkpt>
      <trkpt lat="43.79561" lon="7.24247">
        <ele>642.420311</ele>
        <time>2011-11-12T12:44:57Z</time>
      </trkpt>
      <trkpt lat="43.79558" lon="7.24259">
        <ele>643.420334</ele>
        <time>2011-11-12T12:45:02Z</time>
      </trkpt>
      <trkpt lat="43.79555" lon="7.24271">
        <ele>643.420357</ele>
        <time>2011-11-12T12:45:06Z</time>
      </trkpt>
      <trkpt lat="43.79551" lon="7.24284">
        <ele>643.420376</ele>
        <time>2011-11-12T12:45:11Z</time>
      </trkpt>
      <trkpt lat="43.79545" lon="7.24298">
        <ele>644.420399</ele>
        <time>2011-11-12T12:45:17Z</time>
      </trkpt>
      <trkpt lat="43.7954" lon="7.24311">
        <ele>645.420418</ele>
        <time>2011-11-12T12:45:22Z</time>
      </trkpt>
      <trkpt lat="43.79535" lon="7.24325">
        <ele>647.420444</ele>
        <time>2011-11-12T12:45:26Z</time>
      </trkpt>
      <trkpt lat="43.79531" lon="7.24338">
        <ele>647.420464</ele>
        <time>2011-11-12T12:45:30Z</time>
      </trkpt>
      <trkpt lat="43.79526" lon="7.2435">
        <ele>647.420479</ele>
        <time>2011-11-12T12:45:34Z</time>
      </trkpt>
      <trkpt lat="43.79521" lon="7.24363">
        <ele>646.420502</ele>
        <time>2011-11-12T12:45:39Z</time>
      </trkpt>
      <trkpt lat="43.79516" lon="7.24373">
        <ele>647.420517</ele>
        <time>2011-11-12T12:45:44Z</time>
      </trkpt>
      <trkpt lat="43.7951" lon="7.24385">
        <ele>649.420532</ele>
        <time>2011-11-12T12:45:49Z</time>
      </trkpt>
      <trkpt lat="43.79505" lon="7.24396">
        <ele>650.420547</ele>
        <time>2011-11-12T12:45:53Z</time>
      </trkpt>
      <trkpt lat="43.795" lon="7.24407">
        <ele>651.420567</ele>
        <time>2011-11-12T12:45:57Z</time>
      </trkpt>
      <trkpt lat="43.79494" lon="7.24419">
        <ele>653.420582</ele>
        <time>2011-11-12T12:46:01Z</time>
      </trkpt>
      <trkpt lat="43.79488" lon="7.24431">
        <ele>654.420601</ele>
        <time>2011-11-12T12:46:05Z</time>
      </trkpt>
      <trkpt lat="43.79483" lon="7.24442">
        <ele>654.420612</ele>
        <time>2011-11-12T12:46:09Z</time>
      </trkpt>
      <trkpt lat="43.79476" lon="7.24453">
        <ele>655.420631</ele>
        <time>2011-11-12T12:46:13Z</time>
      </trkpt>
      <trkpt lat="43.7947" lon="7.24464">
        <ele>654.420647</ele>
        <time>2011-11-12T12:46:17Z</time>
      </trkpt>
      <trkpt lat="43.79457" lon="7.24482">
        <ele>655.420662</ele>
        <time>2011-11-12T12:46:26Z</time>
      </trkpt>
      <trkpt lat="43.7945" lon="7.24492">
        <ele>656.420673</ele>
        <time>2011-11-12T12:46:31Z</time>
      </trkpt>
      <trkpt lat="43.79442" lon="7.24498">
        <ele>657.420677</ele>
        <time>2011-11-12T12:46:38Z</time>
      </trkpt>
      <trkpt lat="43.79434" lon="7.24506">
        <ele>658.420685</ele>
        <time>2011-11-12T12:46:44Z</time>
      </trkpt>
      <trkpt lat="43.79426" lon="7.24515">
        <ele>659.420689</ele>
        <time>2011-11-12T12:46:49Z</time>
      </trkpt>
      <trkpt lat="43.79419" lon="7.24525">
        <ele>660.420704</ele>
        <time>2011-11-12T12:46:53Z</time>
      </trkpt>
      <trkpt lat="43.79412" lon="7.24534">
        <ele>661.420715</ele>
        <time>2011-11-12T12:46:57Z</time>
      </trkpt>
      <trkpt lat="43.79404" lon="7.24544">
        <ele>662.420723</ele>
        <time>2011-11-12T12:47:01Z</time>
      </trkpt>
      <trkpt lat="43.79398" lon="7.24554">
        <ele>664.420734</ele>
        <time>2011-11-12T12:47:05Z</time>
      </trkpt>
      <trkpt lat="43.79388" lon="7.24565">
        <ele>667.420746</ele>
        <time>2011-11-12T12:47:11Z</time>
      </trkpt>
      <trkpt lat="43.79381" lon="7.24574">
        <ele>667.420753</ele>
        <time>2011-11-12T12:47:16Z</time>
      </trkpt>
      <trkpt lat="43.79371" lon="7.2459">
        <ele>669.420776</ele>
        <time>2011-11-12T12:47:26Z</time>
      </trkpt>
      <trkpt lat="43.79365" lon="7.24604">
        <ele>669.420792</ele>
        <time>2011-11-12T12:47:32Z</time>
      </trkpt>
      <trkpt lat="43.79359" lon="7.24617">
        <ele>669.420815</ele>
        <time>2011-11-12T12:47:38Z</time>
      </trkpt>
      <trkpt lat="43.79354" lon="7.24631">
        <ele>670.420834</ele>
        <time>2011-11-12T12:47:43Z</time>
      </trkpt>
      <trkpt lat="43.7935" lon="7.24644">
        <ele>671.420856</ele>
        <time>2011-11-12T12:47:47Z</time>
      </trkpt>
      <trkpt lat="43.79347" lon="7.24658">
        <ele>671.420883</ele>
        <time>2011-11-12T12:47:51Z</time>
      </trkpt>
      <trkpt lat="43.79342" lon="7.24674">
        <ele>672.42091</ele>
        <time>2011-11-12T12:47:58Z</time>
      </trkpt>
      <trkpt lat="43.79339" lon="7.24686">
        <ele>673.420929</ele>
        <time>2011-11-12T12:48:03Z</time>
      </trkpt>
      <trkpt lat="43.79335" lon="7.24698">
        <ele>677.420948</ele>
        <time>2011-11-12T12:48:13Z</time>
      </trkpt>
      <trkpt lat="43.79332" lon="7.24711">
        <ele>678.420971</ele>
        <time>2011-11-12T12:48:17Z</time>
      </trkpt>
      <trkpt lat="43.79327" lon="7.24729">
        <ele>678.421005</ele>
        <time>2011-11-12T12:48:22Z</time>
      </trkpt>
      <trkpt lat="43.79323" lon="7.24743">
        <ele>678.421028</ele>
        <time>2011-11-12T12:48:27Z</time>
      </trkpt>
      <trkpt lat="43.79322" lon="7.24747">
        <ele>678.421036</ele>
        <time>2011-11-12T12:48:29Z</time>
      </trkpt>
      <trkpt lat="43.79321" lon="7.24761">
        <ele>679.421066</ele>
        <time>2011-11-12T12:48:33Z</time>
      </trkpt>
      <trkpt lat="43.79321" lon="7.24768">
        <ele>680.421078</ele>
        <time>2011-11-12T12:48:35Z</time>
      </trkpt>
      <trkpt lat="43.79324" lon="7.24781">
        <ele>682.421112</ele>
        <time>2011-11-12T12:48:39Z</time>
      </trkpt>
      <trkpt lat="43.79328" lon="7.24799">
        <ele>685.421158</ele>
        <time>2011-11-12T12:48:49Z</time>
      </trkpt>
      <trkpt lat="43.79333" lon="7.24811">
        <ele>685.421185</ele>
        <time>2011-11-12T12:48:54Z</time>
      </trkpt>
      <trkpt lat="43.79338" lon="7.24819">
        <ele>686.421211</ele>
        <time>2011-11-12T12:48:58Z</time>
      </trkpt>
      <trkpt lat="43.79344" lon="7.24828">
        <ele>688.421234</ele>
        <time>2011-11-12T12:49:01Z</time>
      </trkpt>
      <trkpt lat="43.79345" lon="7.24829">
        <ele>688.421242</ele>
        <time>2011-11-12T12:49:04Z</time>
      </trkpt>
      <trkpt lat="43.79352" lon="7.24837">
        <ele>687.421268</ele>
        <time>2011-11-12T12:49:14Z</time>
      </trkpt>
      <trkpt lat="43.79361" lon="7.2484">
        <ele>690.421288</ele>
        <time>2011-11-12T12:49:53Z</time>
      </trkpt>
      <trkpt lat="43.79368" lon="7.24841">
        <ele>689.421295</ele>
        <time>2011-11-12T12:49:56Z</time>
      </trkpt>
      <trkpt lat="43.79379" lon="7.24842">
        <ele>689.421314</ele>
        <time>2011-11-12T12:49:59Z</time>
      </trkpt>
      <trkpt lat="43.79391" lon="7.24845">
        <ele>689.421341</ele>
        <time>2011-11-12T12:50:02Z</time>
      </trkpt>
      <trkpt lat="43.794" lon="7.24849">
        <ele>690.421356</ele>
        <time>2011-11-12T12:50:04Z</time>
      </trkpt>
      <trkpt lat="43.7941" lon="7.24853">
        <ele>691.421379</ele>
        <time>2011-11-12T12:50:06Z</time>
      </trkpt>
      <trkpt lat="43.7942" lon="7.24859">
        <ele>691.421402</ele>
        <time>2011-11-12T12:50:08Z</time>
      </trkpt>
      <trkpt lat="43.7943" lon="7.24865">
        <ele>691.421432</ele>
        <time>2011-11-12T12:50:10Z</time>
      </trkpt>
      <trkpt lat="43.79439" lon="7.2487">
        <ele>691.421455</ele>
        <time>2011-11-12T12:50:12Z</time>
      </trkpt>
      <trkpt lat="43.79448" lon="7.24874">
        <ele>690.421478</ele>
        <time>2011-11-12T12:50:14Z</time>
      </trkpt>
      <trkpt lat="43.79457" lon="7.24878">
        <ele>689.421497</ele>
        <time>2011-11-12T12:50:16Z</time>
      </trkpt>
      <trkpt lat="43.79469" lon="7.24883">
        <ele>688.421524</ele>
        <time>2011-11-12T12:50:19Z</time>
      </trkpt>
      <trkpt lat="43.79473" lon="7.24885">
        <ele>688.421532</ele>
        <time>2011-11-12T12:50:20Z</time>
      </trkpt>
      <trkpt lat="43.79483" lon="7.24888">
        <ele>688.421555</ele>
        <time>2011-11-12T12:50:23Z</time>
      </trkpt>
      <trkpt lat="43.79494" lon="7.24892">
        <ele>687.421577</ele>
        <time>2011-11-12T12:50:26Z</time>
      </trkpt>
      <trkpt lat="43.79504" lon="7.24896">
        <ele>688.421597</ele>
        <time>2011-11-12T12:50:29Z</time>
      </trkpt>
      <trkpt lat="43.79514" lon="7.24898">
        <ele>688.421616</ele>
        <time>2011-11-12T12:50:32Z</time>
      </trkpt>
      <trkpt lat="43.79524" lon="7.24899">
        <ele>688.421635</ele>
        <time>2011-11-12T12:50:35Z</time>
      </trkpt>
      <trkpt lat="43.79534" lon="7.249">
        <ele>689.421646</ele>
        <time>2011-11-12T12:50:38Z</time>
      </trkpt>
      <trkpt lat="43.79544" lon="7.24901">
        <ele>690.421665</ele>
        <time>2011-11-12T12:50:41Z</time>
      </trkpt>
      <trkpt lat="43.79554" lon="7.24901">
        <ele>691.421677</ele>
        <time>2011-11-12T12:50:44Z</time>
      </trkpt>
      <trkpt lat="43.79564" lon="7.24901">
        <ele>691.421692</ele>
        <time>2011-11-12T12:50:47Z</time>
      </trkpt>
      <trkpt lat="43.79575" lon="7.24901">
        <ele>692.421707</ele>
        <time>2011-11-12T12:50:50Z</time>
      </trkpt>
      <trkpt lat="43.79584" lon="7.249">
        <ele>692.421715</ele>
        <time>2011-11-12T12:50:53Z</time>
      </trkpt>
      <trkpt lat="43.79594" lon="7.24899">
        <ele>693.42173</ele>
        <time>2011-11-12T12:50:56Z</time>
      </trkpt>
      <trkpt lat="43.79603" lon="7.24898">
        <ele>693.421738</ele>
        <time>2011-11-12T12:50:59Z</time>
      </trkpt>
      <trkpt lat="43.79614" lon="7.24897">
        <ele>693.421753</ele>
        <time>2011-11-12T12:51:03Z</time>
      </trkpt>
      <trkpt lat="43.79617" lon="7.24897">
        <ele>693.421753</ele>
        <time>2011-11-12T12:51:04Z</time>
      </trkpt>
      <trkpt lat="43.79628" lon="7.24896">
        <ele>694.421768</ele>
        <time>2011-11-12T12:51:08Z</time>
      </trkpt>
      <trkpt lat="43.79638" lon="7.24894">
        <ele>696.421776</ele>
        <time>2011-11-12T12:51:12Z</time>
      </trkpt>
      <trkpt lat="43.79647" lon="7.2489">
        <ele>697.421783</ele>
        <time>2011-11-12T12:51:16Z</time>
      </trkpt>
      <trkpt lat="43.79657" lon="7.24882">
        <ele>698.42178</ele>
        <time>2011-11-12T12:51:21Z</time>
      </trkpt>
      <trkpt lat="43.79665" lon="7.24874">
        <ele>699.421776</ele>
        <time>2011-11-12T12:51:25Z</time>
      </trkpt>
      <trkpt lat="43.79672" lon="7.24865">
        <ele>699.421768</ele>
        <time>2011-11-12T12:51:29Z</time>
      </trkpt>
      <trkpt lat="43.7968" lon="7.24857">
        <ele>700.421761</ele>
        <time>2011-11-12T12:51:33Z</time>
      </trkpt>
      <trkpt lat="43.79688" lon="7.24847">
        <ele>701.421749</ele>
        <time>2011-11-12T12:51:38Z</time>
      </trkpt>
      <trkpt lat="43.79696" lon="7.24836">
        <ele>703.421738</ele>
        <time>2011-11-12T12:51:43Z</time>
      </trkpt>
      <trkpt lat="43.79704" lon="7.24826">
        <ele>703.42173</ele>
        <time>2011-11-12T12:51:48Z</time>
      </trkpt>
      <trkpt lat="43.79712" lon="7.24817">
        <ele>704.421722</ele>
        <time>2011-11-12T12:51:53Z</time>
      </trkpt>
      <trkpt lat="43.79722" lon="7.24808">
        <ele>704.421715</ele>
        <time>2011-11-12T12:51:58Z</time>
      </trkpt>
      <trkpt lat="43.7973" lon="7.24802">
        <ele>705.421715</ele>
        <time>2011-11-12T12:52:02Z</time>
      </trkpt>
      <trkpt lat="43.7974" lon="7.24795">
        <ele>706.421707</ele>
        <time>2011-11-12T12:52:08Z</time>
      </trkpt>
      <trkpt lat="43.79749" lon="7.24792">
        <ele>708.421719</ele>
        <time>2011-11-12T12:52:14Z</time>
      </trkpt>
      <trkpt lat="43.79758" lon="7.24789">
        <ele>709.421722</ele>
        <time>2011-11-12T12:52:20Z</time>
      </trkpt>
      <trkpt lat="43.79768" lon="7.24785">
        <ele>711.42173</ele>
        <time>2011-11-12T12:52:26Z</time>
      </trkpt>
      <trkpt lat="43.79778" lon="7.24781">
        <ele>712.421738</ele>
        <time>2011-11-12T12:52:31Z</time>
      </trkpt>
      <trkpt lat="43.79786" lon="7.24775">
        <ele>713.421734</ele>
        <time>2011-11-12T12:52:35Z</time>
      </trkpt>
      <trkpt lat="43.79796" lon="7.24767">
        <ele>714.42173</ele>
        <time>2011-11-12T12:52:39Z</time>
      </trkpt>
      <trkpt lat="43.79804" lon="7.24761">
        <ele>714.42173</ele>
        <time>2011-11-12T12:52:42Z</time>
      </trkpt>
      <trkpt lat="43.79812" lon="7.24754">
        <ele>715.421726</ele>
        <time>2011-11-12T12:52:45Z</time>
      </trkpt>
      <trkpt lat="43.79819" lon="7.24745">
        <ele>716.421715</ele>
        <time>2011-11-12T12:52:48Z</time>
      </trkpt>
      <trkpt lat="43.79827" lon="7.24733">
        <ele>716.4217</ele>
        <time>2011-11-12T12:52:52Z</time>
      </trkpt>
      <trkpt lat="43.79835" lon="7.24721">
        <ele>716.421688</ele>
        <time>2011-11-12T12:52:56Z</time>
      </trkpt>
      <trkpt lat="43.79843" lon="7.2471">
        <ele>718.421677</ele>
        <time>2011-11-12T12:53:00Z</time>
      </trkpt>
      <trkpt lat="43.79851" lon="7.247">
        <ele>719.421661</ele>
        <time>2011-11-12T12:53:04Z</time>
      </trkpt>
      <trkpt lat="43.79859" lon="7.24691">
        <ele>720.421654</ele>
        <time>2011-11-12T12:53:08Z</time>
      </trkpt>
      <trkpt lat="43.79867" lon="7.24684">
        <ele>720.421654</ele>
        <time>2011-11-12T12:53:12Z</time>
      </trkpt>
      <trkpt lat="43.79876" lon="7.24678">
        <ele>721.421654</ele>
        <time>2011-11-12T12:53:16Z</time>
      </trkpt>
      <trkpt lat="43.79885" lon="7.24673">
        <ele>721.421654</ele>
        <time>2011-11-12T12:53:20Z</time>
      </trkpt>
      <trkpt lat="43.79894" lon="7.24667">
        <ele>722.421654</ele>
        <time>2011-11-12T12:53:24Z</time>
      </trkpt>
      <trkpt lat="43.79902" lon="7.2466">
        <ele>723.421654</ele>
        <time>2011-11-12T12:53:28Z</time>
      </trkpt>
      <trkpt lat="43.79911" lon="7.24651">
        <ele>724.421646</ele>
        <time>2011-11-12T12:53:32Z</time>
      </trkpt>
      <trkpt lat="43.79918" lon="7.24641">
        <ele>724.421631</ele>
        <time>2011-11-12T12:53:36Z</time>
      </trkpt>
      <trkpt lat="43.79925" lon="7.24631">
        <ele>725.421619</ele>
        <time>2011-11-12T12:53:40Z</time>
      </trkpt>
      <trkpt lat="43.79931" lon="7.2462">
        <ele>725.421608</ele>
        <time>2011-11-12T12:53:44Z</time>
      </trkpt>
      <trkpt lat="43.79937" lon="7.24609">
        <ele>726.421593</ele>
        <time>2011-11-12T12:53:48Z</time>
      </trkpt>
      <trkpt lat="43.79941" lon="7.24597">
        <ele>727.42157</ele>
        <time>2011-11-12T12:53:52Z</time>
      </trkpt>
      <trkpt lat="43.79944" lon="7.24584">
        <ele>726.421547</ele>
        <time>2011-11-12T12:53:56Z</time>
      </trkpt>
      <trkpt lat="43.79946" lon="7.24571">
        <ele>727.421528</ele>
        <time>2011-11-12T12:54:00Z</time>
      </trkpt>
      <trkpt lat="43.7995" lon="7.24559">
        <ele>730.421501</ele>
        <time>2011-11-12T12:54:04Z</time>
      </trkpt>
      <trkpt lat="43.79954" lon="7.24547">
        <ele>731.421486</ele>
        <time>2011-11-12T12:54:08Z</time>
      </trkpt>
      <trkpt lat="43.79961" lon="7.24537">
        <ele>732.421474</ele>
        <time>2011-11-12T12:54:12Z</time>
      </trkpt>
      <trkpt lat="43.7997" lon="7.24532">
        <ele>733.421478</ele>
        <time>2011-11-12T12:54:16Z</time>
      </trkpt>
      <trkpt lat="43.79981" lon="7.24532">
        <ele>734.421486</ele>
        <time>2011-11-12T12:54:20Z</time>
      </trkpt>
      <trkpt lat="43.79992" lon="7.24534">
        <ele>736.421509</ele>
        <time>2011-11-12T12:54:24Z</time>
      </trkpt>
      <trkpt lat="43.80002" lon="7.24537">
        <ele>737.421532</ele>
        <time>2011-11-12T12:54:28Z</time>
      </trkpt>
      <trkpt lat="43.80012" lon="7.2454">
        <ele>738.421551</ele>
        <time>2011-11-12T12:54:32Z</time>
      </trkpt>
      <trkpt lat="43.80021" lon="7.24543">
        <ele>738.42157</ele>
        <time>2011-11-12T12:54:36Z</time>
      </trkpt>
      <trkpt lat="43.80029" lon="7.24548">
        <ele>738.421593</ele>
        <time>2011-11-12T12:54:40Z</time>
      </trkpt>
      <trkpt lat="43.80039" lon="7.24548">
        <ele>740.421604</ele>
        <time>2011-11-12T12:54:45Z</time>
      </trkpt>
      <trkpt lat="43.80044" lon="7.24536">
        <ele>742.421593</ele>
        <time>2011-11-12T12:54:50Z</time>
      </trkpt>
      <trkpt lat="43.80047" lon="7.24522">
        <ele>744.421562</ele>
        <time>2011-11-12T12:54:55Z</time>
      </trkpt>
      <trkpt lat="43.80052" lon="7.24511">
        <ele>745.421543</ele>
        <time>2011-11-12T12:54:59Z</time>
      </trkpt>
      <trkpt lat="43.80056" lon="7.245">
        <ele>745.421532</ele>
        <time>2011-11-12T12:55:03Z</time>
      </trkpt>
      <trkpt lat="43.80062" lon="7.24488">
        <ele>746.421509</ele>
        <time>2011-11-12T12:55:08Z</time>
      </trkpt>
      <trkpt lat="43.80069" lon="7.24476">
        <ele>747.421494</ele>
        <time>2011-11-12T12:55:13Z</time>
      </trkpt>
      <trkpt lat="43.80078" lon="7.24471">
        <ele>748.421501</ele>
        <time>2011-11-12T12:55:17Z</time>
      </trkpt>
      <trkpt lat="43.80089" lon="7.24473">
        <ele>749.421516</ele>
        <time>2011-11-12T12:55:21Z</time>
      </trkpt>
      <trkpt lat="43.80098" lon="7.2448">
        <ele>749.421543</ele>
        <time>2011-11-12T12:55:25Z</time>
      </trkpt>
      <trkpt lat="43.80107" lon="7.2449">
        <ele>750.421574</ele>
        <time>2011-11-12T12:55:29Z</time>
      </trkpt>
      <trkpt lat="43.80114" lon="7.24501">
        <ele>751.421608</ele>
        <time>2011-11-12T12:55:33Z</time>
      </trkpt>
      <trkpt lat="43.80121" lon="7.24513">
        <ele>753.421642</ele>
        <time>2011-11-12T12:55:37Z</time>
      </trkpt>
      <trkpt lat="43.80126" lon="7.24524">
        <ele>753.421673</ele>
        <time>2011-11-12T12:55:41Z</time>
      </trkpt>
      <trkpt lat="43.80127" lon="7.24526">
        <ele>753.42168</ele>
        <time>2011-11-12T12:55:42Z</time>
      </trkpt>
      <trkpt lat="43.80132" lon="7.24537">
        <ele>754.421711</ele>
        <time>2011-11-12T12:55:46Z</time>
      </trkpt>
      <trkpt lat="43.80138" lon="7.2455">
        <ele>754.421745</ele>
        <time>2011-11-12T12:55:51Z</time>
      </trkpt>
      <trkpt lat="43.80145" lon="7.24561">
        <ele>753.421776</ele>
        <time>2011-11-12T12:55:56Z</time>
      </trkpt>
      <trkpt lat="43.80151" lon="7.2457">
        <ele>754.42181</ele>
        <time>2011-11-12T12:56:01Z</time>
      </trkpt>
      <trkpt lat="43.80159" lon="7.2458">
        <ele>753.421837</ele>
        <time>2011-11-12T12:56:07Z</time>
      </trkpt>
      <trkpt lat="43.80167" lon="7.24589">
        <ele>755.421867</ele>
        <time>2011-11-12T12:56:13Z</time>
      </trkpt>
      <trkpt lat="43.80175" lon="7.24593">
        <ele>756.421886</ele>
        <time>2011-11-12T12:56:20Z</time>
      </trkpt>
      <trkpt lat="43.80185" lon="7.24594">
        <ele>757.421906</ele>
        <time>2011-11-12T12:56:27Z</time>
      </trkpt>
      <trkpt lat="43.80195" lon="7.24592">
        <ele>758.421913</ele>
        <time>2011-11-12T12:56:34Z</time>
      </trkpt>
      <trkpt lat="43.80204" lon="7.2459">
        <ele>760.421921</ele>
        <time>2011-11-12T12:56:41Z</time>
      </trkpt>
      <trkpt lat="43.80214" lon="7.24586">
        <ele>761.421928</ele>
        <time>2011-11-12T12:56:50Z</time>
      </trkpt>
      <trkpt lat="43.80229" lon="7.24576">
        <ele>763.421921</ele>
        <time>2011-11-12T12:57:03Z</time>
      </trkpt>
      <trkpt lat="43.80237" lon="7.24568">
        <ele>766.421917</ele>
        <time>2011-11-12T12:57:11Z</time>
      </trkpt>
      <trkpt lat="43.80245" lon="7.2456">
        <ele>769.421913</ele>
        <time>2011-11-12T12:57:19Z</time>
      </trkpt>
      <trkpt lat="43.80258" lon="7.24554">
        <ele>771.421921</ele>
        <time>2011-11-12T12:57:31Z</time>
      </trkpt>
      <trkpt lat="43.80267" lon="7.24553">
        <ele>773.421932</ele>
        <time>2011-11-12T12:57:44Z</time>
      </trkpt>
      <trkpt lat="43.80281" lon="7.24552">
        <ele>777.421947</ele>
        <time>2011-11-12T12:57:56Z</time>
      </trkpt>
      <trkpt lat="43.80291" lon="7.24551">
        <ele>779.421959</ele>
        <time>2011-11-12T12:58:03Z</time>
      </trkpt>
      <trkpt lat="43.80302" lon="7.24548">
        <ele>781.42197</ele>
        <time>2011-11-12T12:58:11Z</time>
      </trkpt>
      <trkpt lat="43.80312" lon="7.24546">
        <ele>783.421974</ele>
        <time>2011-11-12T12:58:18Z</time>
      </trkpt>
      <trkpt lat="43.80326" lon="7.24544">
        <ele>784.421989</ele>
        <time>2011-11-12T12:58:26Z</time>
      </trkpt>
      <trkpt lat="43.80337" lon="7.24541">
        <ele>786.421997</ele>
        <time>2011-11-12T12:58:32Z</time>
      </trkpt>
      <trkpt lat="43.80346" lon="7.24539">
        <ele>786.422009</ele>
        <time>2011-11-12T12:58:36Z</time>
      </trkpt>
      <trkpt lat="43.80358" lon="7.24538">
        <ele>787.42202</ele>
        <time>2011-11-12T12:58:40Z</time>
      </trkpt>
      <trkpt lat="43.80367" lon="7.24536">
        <ele>788.422031</ele>
        <time>2011-11-12T12:58:43Z</time>
      </trkpt>
      <trkpt lat="43.80376" lon="7.24534">
        <ele>789.422035</ele>
        <time>2011-11-12T12:58:46Z</time>
      </trkpt>
      <trkpt lat="43.8038" lon="7.24533">
        <ele>789.422043</ele>
        <time>2011-11-12T12:58:47Z</time>
      </trkpt>
      <trkpt lat="43.80389" lon="7.24531">
        <ele>790.42205</ele>
        <time>2011-11-12T12:58:50Z</time>
      </trkpt>
      <trkpt lat="43.80398" lon="7.24529">
        <ele>790.422062</ele>
        <time>2011-11-12T12:58:53Z</time>
      </trkpt>
      <trkpt lat="43.8041" lon="7.24527">
        <ele>791.422073</ele>
        <time>2011-11-12T12:58:57Z</time>
      </trkpt>
      <trkpt lat="43.80413" lon="7.24527">
        <ele>791.422073</ele>
        <time>2011-11-12T12:58:58Z</time>
      </trkpt>
      <trkpt lat="43.80423" lon="7.24524">
        <ele>791.422081</ele>
        <time>2011-11-12T12:59:02Z</time>
      </trkpt>
      <trkpt lat="43.80426" lon="7.24523">
        <ele>791.422089</ele>
        <time>2011-11-12T12:59:03Z</time>
      </trkpt>
      <trkpt lat="43.80435" lon="7.24521">
        <ele>791.422096</ele>
        <time>2011-11-12T12:59:07Z</time>
      </trkpt>
      <trkpt lat="43.80445" lon="7.24522">
        <ele>792.422108</ele>
        <time>2011-11-12T12:59:12Z</time>
      </trkpt>
      <trkpt lat="43.80447" lon="7.24522">
        <ele>792.422112</ele>
        <time>2011-11-12T12:59:13Z</time>
      </trkpt>
      <trkpt lat="43.80461" lon="7.24522">
        <ele>792.422131</ele>
        <time>2011-11-12T12:59:20Z</time>
      </trkpt>
      <trkpt lat="43.80465" lon="7.24521">
        <ele>791.422138</ele>
        <time>2011-11-12T12:59:22Z</time>
      </trkpt>
      <trkpt lat="43.80475" lon="7.2452">
        <ele>791.422142</ele>
        <time>2011-11-12T12:59:26Z</time>
      </trkpt>
      <trkpt lat="43.80486" lon="7.24519">
        <ele>790.422157</ele>
        <time>2011-11-12T12:59:30Z</time>
      </trkpt>
      <trkpt lat="43.80497" lon="7.24519">
        <ele>791.422176</ele>
        <time>2011-11-12T12:59:33Z</time>
      </trkpt>
      <trkpt lat="43.80505" lon="7.2452">
        <ele>792.422184</ele>
        <time>2011-11-12T12:59:35Z</time>
      </trkpt>
      <trkpt lat="43.80514" lon="7.24521">
        <ele>793.422203</ele>
        <time>2011-11-12T12:59:37Z</time>
      </trkpt>
      <trkpt lat="43.80524" lon="7.24522">
        <ele>792.422218</ele>
        <time>2011-11-12T12:59:39Z</time>
      </trkpt>
      <trkpt lat="43.80534" lon="7.24524">
        <ele>792.422234</ele>
        <time>2011-11-12T12:59:41Z</time>
      </trkpt>
      <trkpt lat="43.80547" lon="7.24524">
        <ele>792.422253</ele>
        <time>2011-11-12T12:59:43Z</time>
      </trkpt>
      <trkpt lat="43.8056" lon="7.24523">
        <ele>793.422272</ele>
        <time>2011-11-12T12:59:45Z</time>
      </trkpt>
      <trkpt lat="43.80566" lon="7.24522">
        <ele>793.422276</ele>
        <time>2011-11-12T12:59:46Z</time>
      </trkpt>
      <trkpt lat="43.80579" lon="7.2452">
        <ele>792.422287</ele>
        <time>2011-11-12T12:59:48Z</time>
      </trkpt>
      <trkpt lat="43.80594" lon="7.24518">
        <ele>792.422302</ele>
        <time>2011-11-12T12:59:50Z</time>
      </trkpt>
      <trkpt lat="43.80601" lon="7.24516">
        <ele>792.42231</ele>
        <time>2011-11-12T12:59:51Z</time>
      </trkpt>
      <trkpt lat="43.80613" lon="7.24515">
        <ele>790.422325</ele>
        <time>2011-11-12T12:59:53Z</time>
      </trkpt>
      <trkpt lat="43.80625" lon="7.24513">
        <ele>790.422337</ele>
        <time>2011-11-12T12:59:55Z</time>
      </trkpt>
      <trkpt lat="43.80636" lon="7.24511">
        <ele>790.422348</ele>
        <time>2011-11-12T12:59:57Z</time>
      </trkpt>
      <trkpt lat="43.80647" lon="7.24509">
        <ele>790.422363</ele>
        <time>2011-11-12T12:59:59Z</time>
      </trkpt>
      <trkpt lat="43.80657" lon="7.24508">
        <ele>790.422371</ele>
        <time>2011-11-12T13:00:01Z</time>
      </trkpt>
      <trkpt lat="43.80662" lon="7.24507">
        <ele>790.422371</ele>
        <time>2011-11-12T13:00:02Z</time>
      </trkpt>
      <trkpt lat="43.80672" lon="7.24505">
        <ele>790.422386</ele>
        <time>2011-11-12T13:00:04Z</time>
      </trkpt>
      <trkpt lat="43.80681" lon="7.24503">
        <ele>790.422394</ele>
        <time>2011-11-12T13:00:06Z</time>
      </trkpt>
      <trkpt lat="43.80691" lon="7.24501">
        <ele>789.422401</ele>
        <time>2011-11-12T13:00:08Z</time>
      </trkpt>
      <trkpt lat="43.80703" lon="7.245">
        <ele>789.422417</ele>
        <time>2011-11-12T13:00:11Z</time>
      </trkpt>
      <trkpt lat="43.80707" lon="7.24499">
        <ele>789.422421</ele>
        <time>2011-11-12T13:00:12Z</time>
      </trkpt>
      <trkpt lat="43.8072" lon="7.24497">
        <ele>790.422432</ele>
        <time>2011-11-12T13:00:15Z</time>
      </trkpt>
      <trkpt lat="43.8073" lon="7.24495">
        <ele>790.422447</ele>
        <time>2011-11-12T13:00:18Z</time>
      </trkpt>
      <trkpt lat="43.80734" lon="7.24495">
        <ele>790.422447</ele>
        <time>2011-11-12T13:00:19Z</time>
      </trkpt>
      <trkpt lat="43.80743" lon="7.24494">
        <ele>791.422462</ele>
        <time>2011-11-12T13:00:22Z</time>
      </trkpt>
      <trkpt lat="43.80753" lon="7.24494">
        <ele>791.422474</ele>
        <time>2011-11-12T13:00:25Z</time>
      </trkpt>
      <trkpt lat="43.80763" lon="7.24495">
        <ele>791.422489</ele>
        <time>2011-11-12T13:00:28Z</time>
      </trkpt>
      <trkpt lat="43.80773" lon="7.24497">
        <ele>791.422508</ele>
        <time>2011-11-12T13:00:31Z</time>
      </trkpt>
      <trkpt lat="43.80783" lon="7.24501">
        <ele>790.422531</ele>
        <time>2011-11-12T13:00:34Z</time>
      </trkpt>
      <trkpt lat="43.80792" lon="7.24509">
        <ele>790.422562</ele>
        <time>2011-11-12T13:00:37Z</time>
      </trkpt>
      <trkpt lat="43.80799" lon="7.2452">
        <ele>790.422592</ele>
        <time>2011-11-12T13:00:40Z</time>
      </trkpt>
      <trkpt lat="43.80804" lon="7.2453">
        <ele>790.422619</ele>
        <time>2011-11-12T13:00:43Z</time>
      </trkpt>
      <trkpt lat="43.80811" lon="7.24542">
        <ele>792.422657</ele>
        <time>2011-11-12T13:00:47Z</time>
      </trkpt>
      <trkpt lat="43.80817" lon="7.24554">
        <ele>795.422688</ele>
        <time>2011-11-12T13:00:52Z</time>
      </trkpt>
      <trkpt lat="43.80828" lon="7.24555">
        <ele>796.422707</ele>
        <time>2011-11-12T13:00:57Z</time>
      </trkpt>
      <trkpt lat="43.80831" lon="7.24554">
        <ele>796.422707</ele>
        <time>2011-11-12T13:00:58Z</time>
      </trkpt>
      <trkpt lat="43.80841" lon="7.24552">
        <ele>797.422718</ele>
        <time>2011-11-12T13:01:01Z</time>
      </trkpt>
      <trkpt lat="43.80852" lon="7.24548">
        <ele>797.422726</ele>
        <time>2011-11-12T13:01:04Z</time>
      </trkpt>
      <trkpt lat="43.80863" lon="7.24543">
        <ele>798.422729</ele>
        <time>2011-11-12T13:01:07Z</time>
      </trkpt>
      <trkpt lat="43.80875" lon="7.24538">
        <ele>797.422733</ele>
        <time>2011-11-12T13:01:10Z</time>
      </trkpt>
      <trkpt lat="43.80882" lon="7.24536">
        <ele>797.422737</ele>
        <time>2011-11-12T13:01:12Z</time>
      </trkpt>
      <trkpt lat="43.80894" lon="7.24532">
        <ele>796.422752</ele>
        <time>2011-11-12T13:01:15Z</time>
      </trkpt>
      <trkpt lat="43.80906" lon="7.24532">
        <ele>795.422764</ele>
        <time>2011-11-12T13:01:18Z</time>
      </trkpt>
      <trkpt lat="43.80917" lon="7.24529">
        <ele>795.422775</ele>
        <time>2011-11-12T13:01:21Z</time>
      </trkpt>
      <trkpt lat="43.80923" lon="7.24524">
        <ele>796.422771</ele>
        <time>2011-11-12T13:01:23Z</time>
      </trkpt>
      <trkpt lat="43.80932" lon="7.24517">
        <ele>795.422768</ele>
        <time>2011-11-12T13:01:26Z</time>
      </trkpt>
      <trkpt lat="43.8094" lon="7.24509">
        <ele>795.42276</ele>
        <time>2011-11-12T13:01:29Z</time>
      </trkpt>
      <trkpt lat="43.80947" lon="7.24493">
        <ele>795.422741</ele>
        <time>2011-11-12T13:01:35Z</time>
      </trkpt>
      <trkpt lat="43.80954" lon="7.24452">
        <ele>791.422661</ele>
        <time>2011-11-12T13:01:52Z</time>
      </trkpt>
      <trkpt lat="43.80959" lon="7.24429">
        <ele>789.422623</ele>
        <time>2011-11-12T13:02:00Z</time>
      </trkpt>
      <trkpt lat="43.80969" lon="7.24407">
        <ele>787.422592</ele>
        <time>2011-11-12T13:02:12Z</time>
      </trkpt>
      <trkpt lat="43.80988" lon="7.24374">
        <ele>784.42255</ele>
        <time>2011-11-12T13:02:23Z</time>
      </trkpt>
      <trkpt lat="43.81006" lon="7.24346">
        <ele>782.422516</ele>
        <time>2011-11-12T13:02:34Z</time>
      </trkpt>
      <trkpt lat="43.81018" lon="7.24327">
        <ele>781.422489</ele>
        <time>2011-11-12T13:02:39Z</time>
      </trkpt>
      <trkpt lat="43.81025" lon="7.24314">
        <ele>780.42247</ele>
        <time>2011-11-12T13:02:42Z</time>
      </trkpt>
      <trkpt lat="43.81032" lon="7.24301">
        <ele>779.422455</ele>
        <time>2011-11-12T13:02:45Z</time>
      </trkpt>
      <trkpt lat="43.8104" lon="7.24289">
        <ele>779.42244</ele>
        <time>2011-11-12T13:02:48Z</time>
      </trkpt>
      <trkpt lat="43.81046" lon="7.24281">
        <ele>779.422432</ele>
        <time>2011-11-12T13:02:50Z</time>
      </trkpt>
      <trkpt lat="43.81058" lon="7.24265">
        <ele>778.422421</ele>
        <time>2011-11-12T13:02:55Z</time>
      </trkpt>
      <trkpt lat="43.81081" lon="7.24234">
        <ele>776.422382</ele>
        <time>2011-11-12T13:03:07Z</time>
      </trkpt>
      <trkpt lat="43.811" lon="7.2421">
        <ele>774.422359</ele>
        <time>2011-11-12T13:03:15Z</time>
      </trkpt>
      <trkpt lat="43.8111" lon="7.242">
        <ele>773.422348</ele>
        <time>2011-11-12T13:03:18Z</time>
      </trkpt>
      <trkpt lat="43.81118" lon="7.2419">
        <ele>773.42234</ele>
        <time>2011-11-12T13:03:21Z</time>
      </trkpt>
      <trkpt lat="43.81126" lon="7.2418">
        <ele>772.422333</ele>
        <time>2011-11-12T13:03:24Z</time>
      </trkpt>
      <trkpt lat="43.81134" lon="7.2417">
        <ele>772.422325</ele>
        <time>2011-11-12T13:03:27Z</time>
      </trkpt>
      <trkpt lat="43.81142" lon="7.24156">
        <ele>771.422302</ele>
        <time>2011-11-12T13:03:30Z</time>
      </trkpt>
      <trkpt lat="43.81147" lon="7.24144">
        <ele>770.422283</ele>
        <time>2011-11-12T13:03:32Z</time>
      </trkpt>
      <trkpt lat="43.81152" lon="7.2413">
        <ele>770.422264</ele>
        <time>2011-11-12T13:03:34Z</time>
      </trkpt>
      <trkpt lat="43.81156" lon="7.24119">
        <ele>768.422241</ele>
        <time>2011-11-12T13:03:36Z</time>
      </trkpt>
      <trkpt lat="43.81163" lon="7.24108">
        <ele>766.422234</ele>
        <time>2011-11-12T13:03:39Z</time>
      </trkpt>
      <trkpt lat="43.81174" lon="7.24106">
        <ele>764.422241</ele>
        <time>2011-11-12T13:03:46Z</time>
      </trkpt>
      <trkpt lat="43.81185" lon="7.24109">
        <ele>761.422264</ele>
        <time>2011-11-12T13:03:51Z</time>
      </trkpt>
      <trkpt lat="43.81196" lon="7.2411">
        <ele>760.422279</ele>
        <time>2011-11-12T13:03:55Z</time>
      </trkpt>
      <trkpt lat="43.81206" lon="7.24111">
        <ele>759.422298</ele>
        <time>2011-11-12T13:03:59Z</time>
      </trkpt>
      <trkpt lat="43.81209" lon="7.24112">
        <ele>759.422302</ele>
        <time>2011-11-12T13:04:00Z</time>
      </trkpt>
      <trkpt lat="43.81218" lon="7.24115">
        <ele>758.422321</ele>
        <time>2011-11-12T13:04:04Z</time>
      </trkpt>
      <trkpt lat="43.81231" lon="7.24119">
        <ele>755.422348</ele>
        <time>2011-11-12T13:04:11Z</time>
      </trkpt>
      <trkpt lat="43.81244" lon="7.2412">
        <ele>753.422363</ele>
        <time>2011-11-12T13:04:19Z</time>
      </trkpt>
      <trkpt lat="43.81253" lon="7.24119">
        <ele>750.422379</ele>
        <time>2011-11-12T13:04:23Z</time>
      </trkpt>
      <trkpt lat="43.81262" lon="7.2412">
        <ele>739.422394</ele>
        <time>2011-11-12T13:04:29Z</time>
      </trkpt>
      <trkpt lat="43.81271" lon="7.24121">
        <ele>727.422409</ele>
        <time>2011-11-12T13:04:35Z</time>
      </trkpt>
      <trkpt lat="43.81271" lon="7.24121">
        <ele>727.422409</ele>
        <time>2011-11-12T13:04:37Z</time>
      </trkpt>
      <trkpt lat="43.81281" lon="7.24123">
        <ele>717.422424</ele>
        <time>2011-11-12T13:04:41Z</time>
      </trkpt>
      <trkpt lat="43.81292" lon="7.24128">
        <ele>707.422447</ele>
        <time>2011-11-12T13:04:46Z</time>
      </trkpt>
      <trkpt lat="43.81292" lon="7.24128">
        <ele>707.422447</ele>
        <time>2011-11-12T13:04:49Z</time>
      </trkpt>
      <trkpt lat="43.81301" lon="7.24133">
        <ele>698.42247</ele>
        <time>2011-11-12T13:04:50Z</time>
      </trkpt>
      <trkpt lat="43.81313" lon="7.24139">
        <ele>693.422501</ele>
        <time>2011-11-12T13:04:54Z</time>
      </trkpt>
      <trkpt lat="43.81316" lon="7.2414">
        <ele>692.422508</ele>
        <time>2011-11-12T13:04:55Z</time>
      </trkpt>
      <trkpt lat="43.81325" lon="7.24144">
        <ele>688.422531</ele>
        <time>2011-11-12T13:04:58Z</time>
      </trkpt>
      <trkpt lat="43.81337" lon="7.2415">
        <ele>684.422558</ele>
        <time>2011-11-12T13:05:03Z</time>
      </trkpt>
      <trkpt lat="43.81344" lon="7.24152">
        <ele>682.422569</ele>
        <time>2011-11-12T13:05:06Z</time>
      </trkpt>
      <trkpt lat="43.81359" lon="7.24157">
        <ele>675.422604</ele>
        <time>2011-11-12T13:05:14Z</time>
      </trkpt>
      <trkpt lat="43.81364" lon="7.24161">
        <ele>673.422615</ele>
        <time>2011-11-12T13:05:17Z</time>
      </trkpt>
      <trkpt lat="43.81372" lon="7.24169">
        <ele>671.422646</ele>
        <time>2011-11-12T13:05:24Z</time>
      </trkpt>
      <trkpt lat="43.81378" lon="7.24184">
        <ele>667.422688</ele>
        <time>2011-11-12T13:05:31Z</time>
      </trkpt>
      <trkpt lat="43.81384" lon="7.24195">
        <ele>664.422714</ele>
        <time>2011-11-12T13:05:37Z</time>
      </trkpt>
      <trkpt lat="43.8139" lon="7.24205">
        <ele>661.422745</ele>
        <time>2011-11-12T13:05:41Z</time>
      </trkpt>
      <trkpt lat="43.81397" lon="7.24213">
        <ele>653.422775</ele>
        <time>2011-11-12T13:05:46Z</time>
      </trkpt>
      <trkpt lat="43.81408" lon="7.24222">
        <ele>645.422806</ele>
        <time>2011-11-12T13:05:54Z</time>
      </trkpt>
      <trkpt lat="43.81416" lon="7.24228">
        <ele>642.422836</ele>
        <time>2011-11-12T13:05:59Z</time>
      </trkpt>
      <trkpt lat="43.81423" lon="7.24244">
        <ele>636.422871</ele>
        <time>2011-11-12T13:06:13Z</time>
      </trkpt>
      <trkpt lat="43.8142" lon="7.2426">
        <ele>626.422905</ele>
        <time>2011-11-12T13:06:26Z</time>
      </trkpt>
      <trkpt lat="43.81419" lon="7.24264">
        <ele>625.422913</ele>
        <time>2011-11-12T13:06:29Z</time>
      </trkpt>
      <trkpt lat="43.81418" lon="7.24276">
        <ele>621.422932</ele>
        <time>2011-11-12T13:06:44Z</time>
      </trkpt>
      <trkpt lat="43.81415" lon="7.24289">
        <ele>615.422958</ele>
        <time>2011-11-12T13:07:02Z</time>
      </trkpt>
      <trkpt lat="43.81421" lon="7.24299">
        <ele>612.422985</ele>
        <time>2011-11-12T13:07:08Z</time>
      </trkpt>
      <trkpt lat="43.81429" lon="7.24305">
        <ele>610.423012</ele>
        <time>2011-11-12T13:07:13Z</time>
      </trkpt>
      <trkpt lat="43.81439" lon="7.2431">
        <ele>604.423035</ele>
        <time>2011-11-12T13:07:19Z</time>
      </trkpt>
      <trkpt lat="43.81448" lon="7.24311">
        <ele>595.42305</ele>
        <time>2011-11-12T13:07:53Z</time>
      </trkpt>
      <trkpt lat="43.81458" lon="7.24312">
        <ele>593.423065</ele>
        <time>2011-11-12T13:08:04Z</time>
      </trkpt>
      <trkpt lat="43.81466" lon="7.24311">
        <ele>591.423077</ele>
        <time>2011-11-12T13:08:11Z</time>
      </trkpt>
      <trkpt lat="43.81475" lon="7.24308">
        <ele>590.42308</ele>
        <time>2011-11-12T13:08:12Z</time>
      </trkpt>
      <trkpt lat="43.81484" lon="7.24309">
        <ele>589.423092</ele>
        <time>2011-11-12T13:08:19Z</time>
      </trkpt>
      <trkpt lat="43.81472" lon="7.24313">
        <ele>587.423084</ele>
        <time>2011-11-12T13:08:26Z</time>
      </trkpt>
      <trkpt lat="43.81468" lon="7.24316">
        <ele>587.423088</ele>
        <time>2011-11-12T13:08:27Z</time>
      </trkpt>
      <trkpt lat="43.81458" lon="7.24322">
        <ele>587.42308</ele>
        <time>2011-11-12T13:08:29Z</time>
      </trkpt>
      <trkpt lat="43.81444" lon="7.24328">
        <ele>586.42308</ele>
        <time>2011-11-12T13:08:31Z</time>
      </trkpt>
      <trkpt lat="43.81432" lon="7.24333">
        <ele>584.423073</ele>
        <time>2011-11-12T13:08:33Z</time>
      </trkpt>
      <trkpt lat="43.8142" lon="7.24338">
        <ele>583.423069</ele>
        <time>2011-11-12T13:08:35Z</time>
      </trkpt>
      <trkpt lat="43.81409" lon="7.24346">
        <ele>582.423069</ele>
        <time>2011-11-12T13:08:37Z</time>
      </trkpt>
      <trkpt lat="43.81398" lon="7.24354">
        <ele>582.423073</ele>
        <time>2011-11-12T13:08:39Z</time>
      </trkpt>
      <trkpt lat="43.81388" lon="7.24364">
        <ele>583.423073</ele>
        <time>2011-11-12T13:08:41Z</time>
      </trkpt>
      <trkpt lat="43.81378" lon="7.24373">
        <ele>583.42308</ele>
        <time>2011-11-12T13:08:43Z</time>
      </trkpt>
      <trkpt lat="43.81365" lon="7.24383">
        <ele>583.42308</ele>
        <time>2011-11-12T13:08:45Z</time>
      </trkpt>
      <trkpt lat="43.81351" lon="7.24396">
        <ele>584.423092</ele>
        <time>2011-11-12T13:08:47Z</time>
      </trkpt>
      <trkpt lat="43.81337" lon="7.24409">
        <ele>583.423103</ele>
        <time>2011-11-12T13:08:49Z</time>
      </trkpt>
      <trkpt lat="43.81325" lon="7.24422">
        <ele>583.423111</ele>
        <time>2011-11-12T13:08:51Z</time>
      </trkpt>
      <trkpt lat="43.81313" lon="7.24436">
        <ele>584.423126</ele>
        <time>2011-11-12T13:08:53Z</time>
      </trkpt>
      <trkpt lat="43.81301" lon="7.24451">
        <ele>584.423141</ele>
        <time>2011-11-12T13:08:55Z</time>
      </trkpt>
      <trkpt lat="43.81291" lon="7.24466">
        <ele>585.423157</ele>
        <time>2011-11-12T13:08:57Z</time>
      </trkpt>
      <trkpt lat="43.81284" lon="7.24477">
        <ele>586.423168</ele>
        <time>2011-11-12T13:08:59Z</time>
      </trkpt>
      <trkpt lat="43.81275" lon="7.24489">
        <ele>586.423187</ele>
        <time>2011-11-12T13:09:02Z</time>
      </trkpt>
      <trkpt lat="43.81265" lon="7.24499">
        <ele>585.423191</ele>
        <time>2011-11-12T13:09:05Z</time>
      </trkpt>
      <trkpt lat="43.8126" lon="7.24514">
        <ele>586.423218</ele>
        <time>2011-11-12T13:09:08Z</time>
      </trkpt>
      <trkpt lat="43.81264" lon="7.24532">
        <ele>587.423264</ele>
        <time>2011-11-12T13:09:11Z</time>
      </trkpt>
      <trkpt lat="43.8127" lon="7.2455">
        <ele>587.423302</ele>
        <time>2011-11-12T13:09:14Z</time>
      </trkpt>
      <trkpt lat="43.81274" lon="7.24566">
        <ele>587.423344</ele>
        <time>2011-11-12T13:09:16Z</time>
      </trkpt>
      <trkpt lat="43.81275" lon="7.24582">
        <ele>586.423378</ele>
        <time>2011-11-12T13:09:18Z</time>
      </trkpt>
      <trkpt lat="43.81274" lon="7.2459">
        <ele>586.423393</ele>
        <time>2011-11-12T13:09:19Z</time>
      </trkpt>
      <trkpt lat="43.81271" lon="7.24603">
        <ele>586.423416</ele>
        <time>2011-11-12T13:09:21Z</time>
      </trkpt>
      <trkpt lat="43.81267" lon="7.24617">
        <ele>587.423439</ele>
        <time>2011-11-12T13:09:23Z</time>
      </trkpt>
      <trkpt lat="43.81263" lon="7.24632">
        <ele>588.42347</ele>
        <time>2011-11-12T13:09:25Z</time>
      </trkpt>
      <trkpt lat="43.81259" lon="7.24644">
        <ele>588.423485</ele>
        <time>2011-11-12T13:09:27Z</time>
      </trkpt>
      <trkpt lat="43.81252" lon="7.24654">
        <ele>589.423496</ele>
        <time>2011-11-12T13:09:29Z</time>
      </trkpt>
      <trkpt lat="43.81245" lon="7.24662">
        <ele>588.423504</ele>
        <time>2011-11-12T13:09:31Z</time>
      </trkpt>
      <trkpt lat="43.81237" lon="7.24668">
        <ele>589.423508</ele>
        <time>2011-11-12T13:09:33Z</time>
      </trkpt>
      <trkpt lat="43.8123" lon="7.24675">
        <ele>589.423508</ele>
        <time>2011-11-12T13:09:35Z</time>
      </trkpt>
      <trkpt lat="43.81222" lon="7.24682">
        <ele>589.423515</ele>
        <time>2011-11-12T13:09:37Z</time>
      </trkpt>
      <trkpt lat="43.81213" lon="7.2469">
        <ele>590.423515</ele>
        <time>2011-11-12T13:09:39Z</time>
      </trkpt>
      <trkpt lat="43.81205" lon="7.24698">
        <ele>590.423523</ele>
        <time>2011-11-12T13:09:41Z</time>
      </trkpt>
      <trkpt lat="43.81198" lon="7.24707">
        <ele>591.423534</ele>
        <time>2011-11-12T13:09:43Z</time>
      </trkpt>
      <trkpt lat="43.81193" lon="7.24718">
        <ele>591.423553</ele>
        <time>2011-11-12T13:09:45Z</time>
      </trkpt>
      <trkpt lat="43.81196" lon="7.24725">
        <ele>592.423569</ele>
        <time>2011-11-12T13:09:46Z</time>
      </trkpt>
      <trkpt lat="43.81202" lon="7.24739">
        <ele>592.423607</ele>
        <time>2011-11-12T13:09:48Z</time>
      </trkpt>
      <trkpt lat="43.8121" lon="7.24753">
        <ele>592.423653</ele>
        <time>2011-11-12T13:09:50Z</time>
      </trkpt>
      <trkpt lat="43.81218" lon="7.24769">
        <ele>592.423691</ele>
        <time>2011-11-12T13:09:52Z</time>
      </trkpt>
      <trkpt lat="43.81226" lon="7.24781">
        <ele>592.423725</ele>
        <time>2011-11-12T13:09:54Z</time>
      </trkpt>
      <trkpt lat="43.81233" lon="7.2479">
        <ele>592.423759</ele>
        <time>2011-11-12T13:09:56Z</time>
      </trkpt>
      <trkpt lat="43.81237" lon="7.24802">
        <ele>591.423786</ele>
        <time>2011-11-12T13:10:00Z</time>
      </trkpt>
      <trkpt lat="43.81228" lon="7.24813">
        <ele>590.423798</ele>
        <time>2011-11-12T13:10:04Z</time>
      </trkpt>
      <trkpt lat="43.81227" lon="7.24813">
        <ele>590.423798</ele>
        <time>2011-11-12T13:10:08Z</time>
      </trkpt>
      <trkpt lat="43.81222" lon="7.24824">
        <ele>590.423813</ele>
        <time>2011-11-12T13:10:13Z</time>
      </trkpt>
      <trkpt lat="43.81218" lon="7.24847">
        <ele>590.423859</ele>
        <time>2011-11-12T13:10:21Z</time>
      </trkpt>
      <trkpt lat="43.81225" lon="7.24888">
        <ele>592.42395</ele>
        <time>2011-11-12T13:10:31Z</time>
      </trkpt>
      <trkpt lat="43.81234" lon="7.24903">
        <ele>592.423996</ele>
        <time>2011-11-12T13:10:35Z</time>
      </trkpt>
      <trkpt lat="43.81248" lon="7.24927">
        <ele>590.424065</ele>
        <time>2011-11-12T13:10:42Z</time>
      </trkpt>
      <trkpt lat="43.81249" lon="7.24948">
        <ele>590.424107</ele>
        <time>2011-11-12T13:10:49Z</time>
      </trkpt>
      <trkpt lat="43.81248" lon="7.24964">
        <ele>592.424141</ele>
        <time>2011-11-12T13:10:56Z</time>
      </trkpt>
      <trkpt lat="43.81259" lon="7.24981">
        <ele>592.424191</ele>
        <time>2011-11-12T13:11:05Z</time>
      </trkpt>
      <trkpt lat="43.81261" lon="7.24983">
        <ele>593.424198</ele>
        <time>2011-11-12T13:11:06Z</time>
      </trkpt>
      <trkpt lat="43.81276" lon="7.24997">
        <ele>591.424248</ele>
        <time>2011-11-12T13:11:14Z</time>
      </trkpt>
      <trkpt lat="43.81277" lon="7.24999">
        <ele>591.424255</ele>
        <time>2011-11-12T13:11:18Z</time>
      </trkpt>
      <trkpt lat="43.81281" lon="7.25014">
        <ele>592.42429</ele>
        <time>2011-11-12T13:11:22Z</time>
      </trkpt>
      <trkpt lat="43.81278" lon="7.25025">
        <ele>592.424309</ele>
        <time>2011-11-12T13:11:27Z</time>
      </trkpt>
      <trkpt lat="43.81267" lon="7.2505">
        <ele>594.424347</ele>
        <time>2011-11-12T13:11:38Z</time>
      </trkpt>
      <trkpt lat="43.81262" lon="7.2506">
        <ele>594.424358</ele>
        <time>2011-11-12T13:11:43Z</time>
      </trkpt>
      <trkpt lat="43.81263" lon="7.25073">
        <ele>594.424389</ele>
        <time>2011-11-12T13:11:52Z</time>
      </trkpt>
      <trkpt lat="43.81269" lon="7.25082">
        <ele>593.424419</ele>
        <time>2011-11-12T13:12:06Z</time>
      </trkpt>
      <trkpt lat="43.81278" lon="7.25088">
        <ele>594.424446</ele>
        <time>2011-11-12T13:12:13Z</time>
      </trkpt>
      <trkpt lat="43.81287" lon="7.25093">
        <ele>595.424465</ele>
        <time>2011-11-12T13:12:20Z</time>
      </trkpt>
      <trkpt lat="43.81297" lon="7.25103">
        <ele>597.4245</ele>
        <time>2011-11-12T13:12:27Z</time>
      </trkpt>
      <trkpt lat="43.81306" lon="7.25111">
        <ele>599.424526</ele>
        <time>2011-11-12T13:12:32Z</time>
      </trkpt>
      <trkpt lat="43.81315" lon="7.25125">
        <ele>599.424568</ele>
        <time>2011-11-12T13:12:38Z</time>
      </trkpt>
      <trkpt lat="43.81322" lon="7.25144">
        <ele>600.424618</ele>
        <time>2011-11-12T13:12:46Z</time>
      </trkpt>
      <trkpt lat="43.81326" lon="7.25158">
        <ele>603.424652</ele>
        <time>2011-11-12T13:12:53Z</time>
      </trkpt>
      <trkpt lat="43.81331" lon="7.25171">
        <ele>603.424686</ele>
        <time>2011-11-12T13:13:01Z</time>
      </trkpt>
      <trkpt lat="43.81338" lon="7.25177">
        <ele>603.424713</ele>
        <time>2011-11-12T13:13:08Z</time>
      </trkpt>
      <trkpt lat="43.81347" lon="7.2518">
        <ele>603.424728</ele>
        <time>2011-11-12T13:13:13Z</time>
      </trkpt>
      <trkpt lat="43.81365" lon="7.25181">
        <ele>604.424755</ele>
        <time>2011-11-12T13:13:23Z</time>
      </trkpt>
      <trkpt lat="43.81367" lon="7.25181">
        <ele>604.424759</ele>
        <time>2011-11-12T13:13:24Z</time>
      </trkpt>
      <trkpt lat="43.81378" lon="7.2518">
        <ele>604.42477</ele>
        <time>2011-11-12T13:13:29Z</time>
      </trkpt>
      <trkpt lat="43.81387" lon="7.25179">
        <ele>605.424778</ele>
        <time>2011-11-12T13:13:33Z</time>
      </trkpt>
      <trkpt lat="43.81396" lon="7.25174">
        <ele>605.424782</ele>
        <time>2011-11-12T13:13:37Z</time>
      </trkpt>
      <trkpt lat="43.81396" lon="7.25174">
        <ele>605.424782</ele>
        <time>2011-11-12T13:13:39Z</time>
      </trkpt>
      <trkpt lat="43.81406" lon="7.2517">
        <ele>605.424789</ele>
        <time>2011-11-12T13:13:42Z</time>
      </trkpt>
      <trkpt lat="43.81415" lon="7.25169">
        <ele>604.424805</ele>
        <time>2011-11-12T13:13:47Z</time>
      </trkpt>
      <trkpt lat="43.81429" lon="7.25169">
        <ele>605.424812</ele>
        <time>2011-11-12T13:13:54Z</time>
      </trkpt>
      <trkpt lat="43.81433" lon="7.25169">
        <ele>605.42482</ele>
        <time>2011-11-12T13:13:56Z</time>
      </trkpt>
      <trkpt lat="43.81443" lon="7.25169">
        <ele>606.424835</ele>
        <time>2011-11-12T13:14:01Z</time>
      </trkpt>
      <trkpt lat="43.81443" lon="7.25169">
        <ele>606.424835</ele>
        <time>2011-11-12T13:14:05Z</time>
      </trkpt>
      <trkpt lat="43.81452" lon="7.2517">
        <ele>607.424854</ele>
        <time>2011-11-12T13:14:06Z</time>
      </trkpt>
      <trkpt lat="43.81462" lon="7.2517">
        <ele>607.424866</ele>
        <time>2011-11-12T13:14:12Z</time>
      </trkpt>
      <trkpt lat="43.81464" lon="7.2517">
        <ele>607.424866</ele>
        <time>2011-11-12T13:14:13Z</time>
      </trkpt>
      <trkpt lat="43.8148" lon="7.25174">
        <ele>608.424896</ele>
        <time>2011-11-12T13:14:24Z</time>
      </trkpt>
      <trkpt lat="43.8149" lon="7.25181">
        <ele>609.424927</ele>
        <time>2011-11-12T13:14:30Z</time>
      </trkpt>
      <trkpt lat="43.815" lon="7.25189">
        <ele>610.424957</ele>
        <time>2011-11-12T13:14:37Z</time>
      </trkpt>
      <trkpt lat="43.8151" lon="7.25194">
        <ele>611.42498</ele>
        <time>2011-11-12T13:14:44Z</time>
      </trkpt>
      <trkpt lat="43.8152" lon="7.252">
        <ele>611.425011</ele>
        <time>2011-11-12T13:14:52Z</time>
      </trkpt>
      <trkpt lat="43.8153" lon="7.25204">
        <ele>612.425034</ele>
        <time>2011-11-12T13:14:59Z</time>
      </trkpt>
      <trkpt lat="43.81538" lon="7.25209">
        <ele>612.425049</ele>
        <time>2011-11-12T13:15:06Z</time>
      </trkpt>
      <trkpt lat="43.81547" lon="7.25215">
        <ele>613.425079</ele>
        <time>2011-11-12T13:15:13Z</time>
      </trkpt>
      <trkpt lat="43.81561" lon="7.25223">
        <ele>615.425114</ele>
        <time>2011-11-12T13:15:26Z</time>
      </trkpt>
      <trkpt lat="43.81562" lon="7.25224">
        <ele>615.425114</ele>
        <time>2011-11-12T13:15:27Z</time>
      </trkpt>
      <trkpt lat="43.81574" lon="7.25234">
        <ele>620.425156</ele>
        <time>2011-11-12T13:15:39Z</time>
      </trkpt>
      <trkpt lat="43.81582" lon="7.25241">
        <ele>623.425179</ele>
        <time>2011-11-12T13:15:47Z</time>
      </trkpt>
      <trkpt lat="43.8159" lon="7.25248">
        <ele>625.425209</ele>
        <time>2011-11-12T13:15:54Z</time>
      </trkpt>
      <trkpt lat="43.81602" lon="7.25261">
        <ele>626.425251</ele>
        <time>2011-11-12T13:16:04Z</time>
      </trkpt>
      <trkpt lat="43.81609" lon="7.25271">
        <ele>626.425278</ele>
        <time>2011-11-12T13:16:12Z</time>
      </trkpt>
      <trkpt lat="43.81614" lon="7.25283">
        <ele>628.425308</ele>
        <time>2011-11-12T13:16:19Z</time>
      </trkpt>
      <trkpt lat="43.81619" lon="7.25295">
        <ele>629.425339</ele>
        <time>2011-11-12T13:16:25Z</time>
      </trkpt>
      <trkpt lat="43.81624" lon="7.25309">
        <ele>630.425381</ele>
        <time>2011-11-12T13:16:31Z</time>
      </trkpt>
      <trkpt lat="43.81629" lon="7.25317">
        <ele>629.425404</ele>
        <time>2011-11-12T13:16:34Z</time>
      </trkpt>
      <trkpt lat="43.81636" lon="7.25329">
        <ele>628.425438</ele>
        <time>2011-11-12T13:16:38Z</time>
      </trkpt>
      <trkpt lat="43.8164" lon="7.25335">
        <ele>627.425457</ele>
        <time>2011-11-12T13:16:40Z</time>
      </trkpt>
      <trkpt lat="43.81651" lon="7.25351">
        <ele>626.425507</ele>
        <time>2011-11-12T13:16:46Z</time>
      </trkpt>
      <trkpt lat="43.81657" lon="7.25362">
        <ele>624.425533</ele>
        <time>2011-11-12T13:16:51Z</time>
      </trkpt>
      <trkpt lat="43.81666" lon="7.25368">
        <ele>625.42556</ele>
        <time>2011-11-12T13:16:55Z</time>
      </trkpt>
      <trkpt lat="43.81672" lon="7.25379">
        <ele>626.425591</ele>
        <time>2011-11-12T13:17:01Z</time>
      </trkpt>
      <trkpt lat="43.81676" lon="7.25392">
        <ele>626.425625</ele>
        <time>2011-11-12T13:17:08Z</time>
      </trkpt>
      <trkpt lat="43.81681" lon="7.25404">
        <ele>625.425659</ele>
        <time>2011-11-12T13:17:13Z</time>
      </trkpt>
      <trkpt lat="43.8169" lon="7.25422">
        <ele>626.425705</ele>
        <time>2011-11-12T13:17:21Z</time>
      </trkpt>
      <trkpt lat="43.81696" lon="7.25433">
        <ele>626.425735</ele>
        <time>2011-11-12T13:17:27Z</time>
      </trkpt>
      <trkpt lat="43.81704" lon="7.25447">
        <ele>628.425774</ele>
        <time>2011-11-12T13:17:35Z</time>
      </trkpt>
      <trkpt lat="43.81696" lon="7.25439">
        <ele>624.425751</ele>
        <time>2011-11-12T13:18:06Z</time>
      </trkpt>
      <trkpt lat="43.81696" lon="7.25439">
        <ele>624.425751</ele>
        <time>2011-11-12T13:18:07Z</time>
      </trkpt>
      <trkpt lat="43.81687" lon="7.25431">
        <ele>622.42572</ele>
        <time>2011-11-12T13:18:13Z</time>
      </trkpt>
      <trkpt lat="43.81678" lon="7.2542">
        <ele>622.425682</ele>
        <time>2011-11-12T13:18:22Z</time>
      </trkpt>
      <trkpt lat="43.81671" lon="7.2541">
        <ele>623.425655</ele>
        <time>2011-11-12T13:18:30Z</time>
      </trkpt>
      <trkpt lat="43.81663" lon="7.25401">
        <ele>631.425625</ele>
        <time>2011-11-12T13:18:42Z</time>
      </trkpt>
      <trkpt lat="43.81654" lon="7.25393">
        <ele>632.425598</ele>
        <time>2011-11-12T13:18:54Z</time>
      </trkpt>
      <trkpt lat="43.81646" lon="7.25387">
        <ele>634.425575</ele>
        <time>2011-11-12T13:19:02Z</time>
      </trkpt>
      <trkpt lat="43.81634" lon="7.25381">
        <ele>636.425545</ele>
        <time>2011-11-12T13:19:11Z</time>
      </trkpt>
      <trkpt lat="43.81626" lon="7.25374">
        <ele>636.425522</ele>
        <time>2011-11-12T13:19:20Z</time>
      </trkpt>
      <trkpt lat="43.81626" lon="7.25373">
        <ele>636.425514</ele>
        <time>2011-11-12T13:19:21Z</time>
      </trkpt>
      <trkpt lat="43.81613" lon="7.25359">
        <ele>639.425468</ele>
        <time>2011-11-12T13:19:44Z</time>
      </trkpt>
      <trkpt lat="43.81604" lon="7.25355">
        <ele>642.425446</ele>
        <time>2011-11-12T13:19:59Z</time>
      </trkpt>
      <trkpt lat="43.81603" lon="7.25355">
        <ele>643.425446</ele>
        <time>2011-11-12T13:20:00Z</time>
      </trkpt>
      <trkpt lat="43.81592" lon="7.25353">
        <ele>643.42543</ele>
        <time>2011-11-12T13:20:16Z</time>
      </trkpt>
      <trkpt lat="43.81583" lon="7.25348">
        <ele>647.425404</ele>
        <time>2011-11-12T13:20:35Z</time>
      </trkpt>
      <trkpt lat="43.81583" lon="7.25347">
        <ele>647.425404</ele>
        <time>2011-11-12T13:20:36Z</time>
      </trkpt>
      <trkpt lat="43.81576" lon="7.25339">
        <ele>651.425377</ele>
        <time>2011-11-12T13:20:54Z</time>
      </trkpt>
      <trkpt lat="43.81566" lon="7.25336">
        <ele>655.425354</ele>
        <time>2011-11-12T13:21:09Z</time>
      </trkpt>
      <trkpt lat="43.81552" lon="7.25336">
        <ele>659.425339</ele>
        <time>2011-11-12T13:21:26Z</time>
      </trkpt>
      <trkpt lat="43.81542" lon="7.25337">
        <ele>660.425323</ele>
        <time>2011-11-12T13:21:34Z</time>
      </trkpt>
      <trkpt lat="43.81531" lon="7.25341">
        <ele>662.425316</ele>
        <time>2011-11-12T13:21:43Z</time>
      </trkpt>
      <trkpt lat="43.81523" lon="7.25347">
        <ele>661.42532</ele>
        <time>2011-11-12T13:21:53Z</time>
      </trkpt>
      <trkpt lat="43.81514" lon="7.2535">
        <ele>664.425308</ele>
        <time>2011-11-12T13:22:04Z</time>
      </trkpt>
      <trkpt lat="43.81504" lon="7.25352">
        <ele>667.425304</ele>
        <time>2011-11-12T13:22:15Z</time>
      </trkpt>
      <trkpt lat="43.81495" lon="7.25356">
        <ele>670.425301</ele>
        <time>2011-11-12T13:22:27Z</time>
      </trkpt>
      <trkpt lat="43.81486" lon="7.25363">
        <ele>674.425301</ele>
        <time>2011-11-12T13:22:40Z</time>
      </trkpt>
      <trkpt lat="43.81476" lon="7.25368">
        <ele>676.425301</ele>
        <time>2011-11-12T13:22:58Z</time>
      </trkpt>
      <trkpt lat="43.81467" lon="7.25372">
        <ele>679.425301</ele>
        <time>2011-11-12T13:23:12Z</time>
      </trkpt>
      <trkpt lat="43.81458" lon="7.25375">
        <ele>683.425289</ele>
        <time>2011-11-12T13:23:25Z</time>
      </trkpt>
      <trkpt lat="43.8145" lon="7.2538">
        <ele>686.425289</ele>
        <time>2011-11-12T13:23:35Z</time>
      </trkpt>
      <trkpt lat="43.81441" lon="7.25387">
        <ele>684.425285</ele>
        <time>2011-11-12T13:23:46Z</time>
      </trkpt>
      <trkpt lat="43.81431" lon="7.25387">
        <ele>685.425278</ele>
        <time>2011-11-12T13:23:52Z</time>
      </trkpt>
      <trkpt lat="43.81416" lon="7.25383">
        <ele>685.425247</ele>
        <time>2011-11-12T13:23:55Z</time>
      </trkpt>
      <trkpt lat="43.81404" lon="7.2538">
        <ele>685.425224</ele>
        <time>2011-11-12T13:23:57Z</time>
      </trkpt>
      <trkpt lat="43.81392" lon="7.25378">
        <ele>685.425205</ele>
        <time>2011-11-12T13:23:59Z</time>
      </trkpt>
      <trkpt lat="43.81378" lon="7.25375">
        <ele>685.425179</ele>
        <time>2011-11-12T13:24:01Z</time>
      </trkpt>
      <trkpt lat="43.81365" lon="7.25372">
        <ele>686.425156</ele>
        <time>2011-11-12T13:24:03Z</time>
      </trkpt>
      <trkpt lat="43.81353" lon="7.25368">
        <ele>686.425133</ele>
        <time>2011-11-12T13:24:05Z</time>
      </trkpt>
      <trkpt lat="43.81341" lon="7.25363">
        <ele>685.425102</ele>
        <time>2011-11-12T13:24:07Z</time>
      </trkpt>
      <trkpt lat="43.8133" lon="7.25359">
        <ele>685.425079</ele>
        <time>2011-11-12T13:24:09Z</time>
      </trkpt>
      <trkpt lat="43.8132" lon="7.25356">
        <ele>685.425056</ele>
        <time>2011-11-12T13:24:11Z</time>
      </trkpt>
      <trkpt lat="43.8131" lon="7.25354">
        <ele>686.425041</ele>
        <time>2011-11-12T13:24:14Z</time>
      </trkpt>
      <trkpt lat="43.81301" lon="7.25352">
        <ele>689.425026</ele>
        <time>2011-11-12T13:24:21Z</time>
      </trkpt>
      <trkpt lat="43.81289" lon="7.2535">
        <ele>690.425003</ele>
        <time>2011-11-12T13:24:33Z</time>
      </trkpt>
      <trkpt lat="43.81278" lon="7.25347">
        <ele>689.424988</ele>
        <time>2011-11-12T13:24:42Z</time>
      </trkpt>
      <trkpt lat="43.81274" lon="7.25346">
        <ele>689.424973</ele>
        <time>2011-11-12T13:24:45Z</time>
      </trkpt>
      <trkpt lat="43.81266" lon="7.25343">
        <ele>688.424957</ele>
        <time>2011-11-12T13:24:53Z</time>
      </trkpt>
      <trkpt lat="43.81257" lon="7.25337">
        <ele>692.424931</ele>
        <time>2011-11-12T13:25:06Z</time>
      </trkpt>
      <trkpt lat="43.81248" lon="7.25335">
        <ele>694.424919</ele>
        <time>2011-11-12T13:25:15Z</time>
      </trkpt>
      <trkpt lat="43.81237" lon="7.25333">
        <ele>696.424896</ele>
        <time>2011-11-12T13:25:28Z</time>
      </trkpt>
      <trkpt lat="43.81228" lon="7.25328">
        <ele>698.424881</ele>
        <time>2011-11-12T13:25:37Z</time>
      </trkpt>
      <trkpt lat="43.81218" lon="7.25326">
        <ele>698.424858</ele>
        <time>2011-11-12T13:25:44Z</time>
      </trkpt>
      <trkpt lat="43.81209" lon="7.25324">
        <ele>699.424843</ele>
        <time>2011-11-12T13:25:52Z</time>
      </trkpt>
      <trkpt lat="43.81199" lon="7.2532">
        <ele>701.42482</ele>
        <time>2011-11-12T13:26:06Z</time>
      </trkpt>
      <trkpt lat="43.81183" lon="7.25312">
        <ele>701.424782</ele>
        <time>2011-11-12T13:26:18Z</time>
      </trkpt>
      <trkpt lat="43.81174" lon="7.25306">
        <ele>701.424751</ele>
        <time>2011-11-12T13:26:23Z</time>
      </trkpt>
      <trkpt lat="43.81165" lon="7.25301">
        <ele>702.424736</ele>
        <time>2011-11-12T13:26:31Z</time>
      </trkpt>
      <trkpt lat="43.81158" lon="7.25293">
        <ele>704.424706</ele>
        <time>2011-11-12T13:26:43Z</time>
      </trkpt>
      <trkpt lat="43.81149" lon="7.25289">
        <ele>706.424683</ele>
        <time>2011-11-12T13:26:49Z</time>
      </trkpt>
      <trkpt lat="43.81136" lon="7.25284">
        <ele>706.42466</ele>
        <time>2011-11-12T13:26:57Z</time>
      </trkpt>
      <trkpt lat="43.81123" lon="7.25276">
        <ele>706.424618</ele>
        <time>2011-11-12T13:27:11Z</time>
      </trkpt>
      <trkpt lat="43.81122" lon="7.25275">
        <ele>706.424622</ele>
        <time>2011-11-12T13:27:12Z</time>
      </trkpt>
      <trkpt lat="43.81114" lon="7.25266">
        <ele>707.424591</ele>
        <time>2011-11-12T13:27:22Z</time>
      </trkpt>
      <trkpt lat="43.81113" lon="7.25265">
        <ele>707.424587</ele>
        <time>2011-11-12T13:27:23Z</time>
      </trkpt>
      <trkpt lat="43.81103" lon="7.25257">
        <ele>711.424561</ele>
        <time>2011-11-12T13:27:33Z</time>
      </trkpt>
      <trkpt lat="43.81102" lon="7.25257">
        <ele>712.424553</ele>
        <time>2011-11-12T13:27:35Z</time>
      </trkpt>
      <trkpt lat="43.81093" lon="7.25248">
        <ele>715.424522</ele>
        <time>2011-11-12T13:27:49Z</time>
      </trkpt>
      <trkpt lat="43.81092" lon="7.25247">
        <ele>716.424515</ele>
        <time>2011-11-12T13:27:56Z</time>
      </trkpt>
      <trkpt lat="43.81083" lon="7.25241">
        <ele>720.424492</ele>
        <time>2011-11-12T13:28:03Z</time>
      </trkpt>
      <trkpt lat="43.8108" lon="7.2524">
        <ele>721.424484</ele>
        <time>2011-11-12T13:28:06Z</time>
      </trkpt>
      <trkpt lat="43.81072" lon="7.25234">
        <ele>723.424469</ele>
        <time>2011-11-12T13:28:12Z</time>
      </trkpt>
      <trkpt lat="43.81062" lon="7.25226">
        <ele>725.424431</ele>
        <time>2011-11-12T13:28:21Z</time>
      </trkpt>
      <trkpt lat="43.81053" lon="7.25217">
        <ele>726.4244</ele>
        <time>2011-11-12T13:28:26Z</time>
      </trkpt>
      <trkpt lat="43.81044" lon="7.25207">
        <ele>726.42437</ele>
        <time>2011-11-12T13:28:32Z</time>
      </trkpt>
      <trkpt lat="43.81038" lon="7.25196">
        <ele>726.424335</ele>
        <time>2011-11-12T13:28:39Z</time>
      </trkpt>
      <trkpt lat="43.81031" lon="7.25182">
        <ele>727.424294</ele>
        <time>2011-11-12T13:28:46Z</time>
      </trkpt>
      <trkpt lat="43.81025" lon="7.25173">
        <ele>727.424271</ele>
        <time>2011-11-12T13:28:51Z</time>
      </trkpt>
      <trkpt lat="43.81019" lon="7.25162">
        <ele>728.42424</ele>
        <time>2011-11-12T13:28:54Z</time>
      </trkpt>
      <trkpt lat="43.81013" lon="7.25151">
        <ele>729.42421</ele>
        <time>2011-11-12T13:28:59Z</time>
      </trkpt>
      <trkpt lat="43.81011" lon="7.25148">
        <ele>729.424198</ele>
        <time>2011-11-12T13:29:00Z</time>
      </trkpt>
      <trkpt lat="43.81004" lon="7.25136">
        <ele>730.424164</ele>
        <time>2011-11-12T13:29:05Z</time>
      </trkpt>
      <trkpt lat="43.80996" lon="7.25125">
        <ele>731.424133</ele>
        <time>2011-11-12T13:29:10Z</time>
      </trkpt>
      <trkpt lat="43.80994" lon="7.25122">
        <ele>732.424126</ele>
        <time>2011-11-12T13:29:11Z</time>
      </trkpt>
      <trkpt lat="43.80986" lon="7.25115">
        <ele>733.424095</ele>
        <time>2011-11-12T13:29:16Z</time>
      </trkpt>
      <trkpt lat="43.8097" lon="7.25106">
        <ele>735.424057</ele>
        <time>2011-11-12T13:29:29Z</time>
      </trkpt>
      <trkpt lat="43.80969" lon="7.25106">
        <ele>736.424053</ele>
        <time>2011-11-12T13:29:31Z</time>
      </trkpt>
      <trkpt lat="43.80961" lon="7.25101">
        <ele>737.424034</ele>
        <time>2011-11-12T13:29:38Z</time>
      </trkpt>
      <trkpt lat="43.80961" lon="7.25101">
        <ele>737.424034</ele>
        <time>2011-11-12T13:29:41Z</time>
      </trkpt>
      <trkpt lat="43.80951" lon="7.25093">
        <ele>737.424004</ele>
        <time>2011-11-12T13:29:43Z</time>
      </trkpt>
      <trkpt lat="43.80942" lon="7.25086">
        <ele>738.423977</ele>
        <time>2011-11-12T13:29:49Z</time>
      </trkpt>
      <trkpt lat="43.80927" lon="7.25077">
        <ele>738.423935</ele>
        <time>2011-11-12T13:29:57Z</time>
      </trkpt>
      <trkpt lat="43.80921" lon="7.25074">
        <ele>739.42392</ele>
        <time>2011-11-12T13:30:00Z</time>
      </trkpt>
      <trkpt lat="43.80911" lon="7.25071">
        <ele>740.423901</ele>
        <time>2011-11-12T13:30:04Z</time>
      </trkpt>
      <trkpt lat="43.80895" lon="7.25069">
        <ele>741.423878</ele>
        <time>2011-11-12T13:30:10Z</time>
      </trkpt>
      <trkpt lat="43.80884" lon="7.25068">
        <ele>740.423855</ele>
        <time>2011-11-12T13:30:14Z</time>
      </trkpt>
      <trkpt lat="43.80882" lon="7.25067">
        <ele>740.423851</ele>
        <time>2011-11-12T13:30:15Z</time>
      </trkpt>
      <trkpt lat="43.80873" lon="7.25064">
        <ele>741.423836</ele>
        <time>2011-11-12T13:30:19Z</time>
      </trkpt>
      <trkpt lat="43.80869" lon="7.25062">
        <ele>741.42382</ele>
        <time>2011-11-12T13:30:21Z</time>
      </trkpt>
      <trkpt lat="43.8086" lon="7.25058">
        <ele>741.423805</ele>
        <time>2011-11-12T13:30:28Z</time>
      </trkpt>
      <trkpt lat="43.80841" lon="7.25049">
        <ele>745.423759</ele>
        <time>2011-11-12T13:30:38Z</time>
      </trkpt>
      <trkpt lat="43.80832" lon="7.25049">
        <ele>746.423748</ele>
        <time>2011-11-12T13:30:43Z</time>
      </trkpt>
      <trkpt lat="43.80818" lon="7.2506">
        <ele>748.423752</ele>
        <time>2011-11-12T13:30:51Z</time>
      </trkpt>
      <trkpt lat="43.80814" lon="7.25064">
        <ele>747.423752</ele>
        <time>2011-11-12T13:30:54Z</time>
      </trkpt>
      <trkpt lat="43.80803" lon="7.25076">
        <ele>750.423767</ele>
        <time>2011-11-12T13:31:02Z</time>
      </trkpt>
      <trkpt lat="43.80802" lon="7.25077">
        <ele>750.423763</ele>
        <time>2011-11-12T13:31:03Z</time>
      </trkpt>
      <trkpt lat="43.80794" lon="7.25086">
        <ele>753.423771</ele>
        <time>2011-11-12T13:31:09Z</time>
      </trkpt>
      <trkpt lat="43.80785" lon="7.25094">
        <ele>753.423775</ele>
        <time>2011-11-12T13:31:15Z</time>
      </trkpt>
      <trkpt lat="43.8078" lon="7.25098">
        <ele>754.423775</ele>
        <time>2011-11-12T13:31:18Z</time>
      </trkpt>
      <trkpt lat="43.8077" lon="7.25105">
        <ele>755.423779</ele>
        <time>2011-11-12T13:31:22Z</time>
      </trkpt>
      <trkpt lat="43.80759" lon="7.25108">
        <ele>755.423775</ele>
        <time>2011-11-12T13:31:25Z</time>
      </trkpt>
      <trkpt lat="43.80748" lon="7.25107">
        <ele>754.423752</ele>
        <time>2011-11-12T13:31:27Z</time>
      </trkpt>
      <trkpt lat="43.80736" lon="7.25105">
        <ele>753.423729</ele>
        <time>2011-11-12T13:31:29Z</time>
      </trkpt>
      <trkpt lat="43.8073" lon="7.25104">
        <ele>753.423721</ele>
        <time>2011-11-12T13:31:30Z</time>
      </trkpt>
      <trkpt lat="43.80717" lon="7.25101">
        <ele>752.423698</ele>
        <time>2011-11-12T13:31:32Z</time>
      </trkpt>
      <trkpt lat="43.80705" lon="7.25097">
        <ele>751.423676</ele>
        <time>2011-11-12T13:31:34Z</time>
      </trkpt>
      <trkpt lat="43.80695" lon="7.25095">
        <ele>750.423653</ele>
        <time>2011-11-12T13:31:36Z</time>
      </trkpt>
      <trkpt lat="43.80684" lon="7.25094">
        <ele>750.423637</ele>
        <time>2011-11-12T13:31:38Z</time>
      </trkpt>
      <trkpt lat="43.80672" lon="7.25094">
        <ele>749.423622</ele>
        <time>2011-11-12T13:31:40Z</time>
      </trkpt>
      <trkpt lat="43.80661" lon="7.25095">
        <ele>749.423607</ele>
        <time>2011-11-12T13:31:42Z</time>
      </trkpt>
      <trkpt lat="43.80649" lon="7.25098">
        <ele>749.423599</ele>
        <time>2011-11-12T13:31:45Z</time>
      </trkpt>
      <trkpt lat="43.80643" lon="7.25101">
        <ele>749.423592</ele>
        <time>2011-11-12T13:31:47Z</time>
      </trkpt>
      <trkpt lat="43.80634" lon="7.25105">
        <ele>749.423592</ele>
        <time>2011-11-12T13:31:50Z</time>
      </trkpt>
      <trkpt lat="43.8062" lon="7.2511">
        <ele>750.423584</ele>
        <time>2011-11-12T13:31:53Z</time>
      </trkpt>
      <trkpt lat="43.80608" lon="7.25113">
        <ele>751.423573</ele>
        <time>2011-11-12T13:31:55Z</time>
      </trkpt>
      <trkpt lat="43.80602" lon="7.25114">
        <ele>750.423565</ele>
        <time>2011-11-12T13:31:56Z</time>
      </trkpt>
      <trkpt lat="43.8059" lon="7.25115">
        <ele>750.42355</ele>
        <time>2011-11-12T13:31:58Z</time>
      </trkpt>
      <trkpt lat="43.80578" lon="7.25115">
        <ele>749.423538</ele>
        <time>2011-11-12T13:32:00Z</time>
      </trkpt>
      <trkpt lat="43.80566" lon="7.25116">
        <ele>749.423519</ele>
        <time>2011-11-12T13:32:02Z</time>
      </trkpt>
      <trkpt lat="43.80554" lon="7.25117">
        <ele>748.423508</ele>
        <time>2011-11-12T13:32:04Z</time>
      </trkpt>
      <trkpt lat="43.80542" lon="7.25118">
        <ele>748.423492</ele>
        <time>2011-11-12T13:32:06Z</time>
      </trkpt>
      <trkpt lat="43.80536" lon="7.25118">
        <ele>747.423485</ele>
        <time>2011-11-12T13:32:07Z</time>
      </trkpt>
      <trkpt lat="43.80524" lon="7.25123">
        <ele>746.423477</ele>
        <time>2011-11-12T13:32:09Z</time>
      </trkpt>
      <trkpt lat="43.80513" lon="7.25128">
        <ele>746.423473</ele>
        <time>2011-11-12T13:32:11Z</time>
      </trkpt>
      <trkpt lat="43.80502" lon="7.25131">
        <ele>745.42347</ele>
        <time>2011-11-12T13:32:13Z</time>
      </trkpt>
      <trkpt lat="43.80492" lon="7.25134">
        <ele>745.423454</ele>
        <time>2011-11-12T13:32:15Z</time>
      </trkpt>
      <trkpt lat="43.80482" lon="7.25137">
        <ele>745.42345</ele>
        <time>2011-11-12T13:32:17Z</time>
      </trkpt>
      <trkpt lat="43.80472" lon="7.2514">
        <ele>745.423439</ele>
        <time>2011-11-12T13:32:19Z</time>
      </trkpt>
      <trkpt lat="43.80463" lon="7.25143">
        <ele>744.423439</ele>
        <time>2011-11-12T13:32:21Z</time>
      </trkpt>
      <trkpt lat="43.80454" lon="7.25146">
        <ele>745.423431</ele>
        <time>2011-11-12T13:32:23Z</time>
      </trkpt>
      <trkpt lat="43.80442" lon="7.25151">
        <ele>745.423424</ele>
        <time>2011-11-12T13:32:26Z</time>
      </trkpt>
      <trkpt lat="43.80428" lon="7.25155">
        <ele>744.423416</ele>
        <time>2011-11-12T13:32:29Z</time>
      </trkpt>
      <trkpt lat="43.80419" lon="7.25158">
        <ele>744.423409</ele>
        <time>2011-11-12T13:32:31Z</time>
      </trkpt>
      <trkpt lat="43.80408" lon="7.25162">
        <ele>744.423401</ele>
        <time>2011-11-12T13:32:33Z</time>
      </trkpt>
      <trkpt lat="43.80397" lon="7.25165">
        <ele>743.423389</ele>
        <time>2011-11-12T13:32:35Z</time>
      </trkpt>
      <trkpt lat="43.80391" lon="7.25166">
        <ele>743.423386</ele>
        <time>2011-11-12T13:32:36Z</time>
      </trkpt>
      <trkpt lat="43.8038" lon="7.25168">
        <ele>742.423378</ele>
        <time>2011-11-12T13:32:38Z</time>
      </trkpt>
      <trkpt lat="43.80369" lon="7.2517">
        <ele>742.423363</ele>
        <time>2011-11-12T13:32:40Z</time>
      </trkpt>
      <trkpt lat="43.80356" lon="7.2517">
        <ele>741.423347</ele>
        <time>2011-11-12T13:32:42Z</time>
      </trkpt>
      <trkpt lat="43.80339" lon="7.25169">
        <ele>741.423325</ele>
        <time>2011-11-12T13:32:44Z</time>
      </trkpt>
      <trkpt lat="43.80321" lon="7.25166">
        <ele>739.42329</ele>
        <time>2011-11-12T13:32:46Z</time>
      </trkpt>
      <trkpt lat="43.80313" lon="7.25164">
        <ele>739.423271</ele>
        <time>2011-11-12T13:32:47Z</time>
      </trkpt>
      <trkpt lat="43.80298" lon="7.25158">
        <ele>738.423241</ele>
        <time>2011-11-12T13:32:49Z</time>
      </trkpt>
      <trkpt lat="43.80285" lon="7.25149">
        <ele>737.42321</ele>
        <time>2011-11-12T13:32:51Z</time>
      </trkpt>
      <trkpt lat="43.80273" lon="7.2514">
        <ele>737.423172</ele>
        <time>2011-11-12T13:32:53Z</time>
      </trkpt>
      <trkpt lat="43.80265" lon="7.25129">
        <ele>737.423134</ele>
        <time>2011-11-12T13:32:55Z</time>
      </trkpt>
      <trkpt lat="43.80258" lon="7.25118">
        <ele>738.423103</ele>
        <time>2011-11-12T13:32:58Z</time>
      </trkpt>
      <trkpt lat="43.80253" lon="7.25111">
        <ele>737.42308</ele>
        <time>2011-11-12T13:33:00Z</time>
      </trkpt>
      <trkpt lat="43.80246" lon="7.25103">
        <ele>737.423058</ele>
        <time>2011-11-12T13:33:02Z</time>
      </trkpt>
      <trkpt lat="43.80238" lon="7.25093">
        <ele>738.423027</ele>
        <time>2011-11-12T13:33:04Z</time>
      </trkpt>
      <trkpt lat="43.80231" lon="7.25083">
        <ele>738.422989</ele>
        <time>2011-11-12T13:33:06Z</time>
      </trkpt>
      <trkpt lat="43.80227" lon="7.25078">
        <ele>738.422981</ele>
        <time>2011-11-12T13:33:07Z</time>
      </trkpt>
      <trkpt lat="43.80221" lon="7.25065">
        <ele>737.422943</ele>
        <time>2011-11-12T13:33:09Z</time>
      </trkpt>
      <trkpt lat="43.80216" lon="7.25053">
        <ele>737.422905</ele>
        <time>2011-11-12T13:33:11Z</time>
      </trkpt>
      <trkpt lat="43.80212" lon="7.25041">
        <ele>737.422874</ele>
        <time>2011-11-12T13:33:13Z</time>
      </trkpt>
      <trkpt lat="43.8021" lon="7.25035">
        <ele>737.422859</ele>
        <time>2011-11-12T13:33:14Z</time>
      </trkpt>
      <trkpt lat="43.80205" lon="7.25023">
        <ele>736.422832</ele>
        <time>2011-11-12T13:33:17Z</time>
      </trkpt>
      <trkpt lat="43.80196" lon="7.25008">
        <ele>736.422787</ele>
        <time>2011-11-12T13:33:20Z</time>
      </trkpt>
      <trkpt lat="43.80193" lon="7.25002">
        <ele>735.422768</ele>
        <time>2011-11-12T13:33:21Z</time>
      </trkpt>
      <trkpt lat="43.80186" lon="7.24992">
        <ele>735.422737</ele>
        <time>2011-11-12T13:33:23Z</time>
      </trkpt>
      <trkpt lat="43.80181" lon="7.24987">
        <ele>735.422722</ele>
        <time>2011-11-12T13:33:24Z</time>
      </trkpt>
      <trkpt lat="43.80174" lon="7.24981">
        <ele>735.422699</ele>
        <time>2011-11-12T13:33:26Z</time>
      </trkpt>
      <trkpt lat="43.80163" lon="7.24978">
        <ele>734.422676</ele>
        <time>2011-11-12T13:33:28Z</time>
      </trkpt>
      <trkpt lat="43.80152" lon="7.24977">
        <ele>733.422661</ele>
        <time>2011-11-12T13:33:30Z</time>
      </trkpt>
      <trkpt lat="43.80141" lon="7.24972">
        <ele>732.422634</ele>
        <time>2011-11-12T13:33:32Z</time>
      </trkpt>
      <trkpt lat="43.80133" lon="7.24965">
        <ele>731.422611</ele>
        <time>2011-11-12T13:33:34Z</time>
      </trkpt>
      <trkpt lat="43.80123" lon="7.24954">
        <ele>731.422577</ele>
        <time>2011-11-12T13:33:37Z</time>
      </trkpt>
      <trkpt lat="43.80117" lon="7.24945">
        <ele>731.422546</ele>
        <time>2011-11-12T13:33:39Z</time>
      </trkpt>
      <trkpt lat="43.80109" lon="7.24934">
        <ele>730.422508</ele>
        <time>2011-11-12T13:33:41Z</time>
      </trkpt>
      <trkpt lat="43.80105" lon="7.24928">
        <ele>730.422493</ele>
        <time>2011-11-12T13:33:42Z</time>
      </trkpt>
      <trkpt lat="43.80097" lon="7.24918">
        <ele>730.422462</ele>
        <time>2011-11-12T13:33:44Z</time>
      </trkpt>
      <trkpt lat="43.8009" lon="7.24905">
        <ele>729.422424</ele>
        <time>2011-11-12T13:33:47Z</time>
      </trkpt>
      <trkpt lat="43.80084" lon="7.24892">
        <ele>728.422386</ele>
        <time>2011-11-12T13:33:50Z</time>
      </trkpt>
      <trkpt lat="43.80079" lon="7.24874">
        <ele>728.422344</ele>
        <time>2011-11-12T13:33:52Z</time>
      </trkpt>
      <trkpt lat="43.80077" lon="7.24856">
        <ele>727.422302</ele>
        <time>2011-11-12T13:33:54Z</time>
      </trkpt>
      <trkpt lat="43.80077" lon="7.2484">
        <ele>726.422272</ele>
        <time>2011-11-12T13:33:56Z</time>
      </trkpt>
      <trkpt lat="43.80078" lon="7.24825">
        <ele>725.422241</ele>
        <time>2011-11-12T13:33:58Z</time>
      </trkpt>
      <trkpt lat="43.80078" lon="7.24811">
        <ele>724.422211</ele>
        <time>2011-11-12T13:34:00Z</time>
      </trkpt>
      <trkpt lat="43.80078" lon="7.24798">
        <ele>722.42218</ele>
        <time>2011-11-12T13:34:02Z</time>
      </trkpt>
      <trkpt lat="43.80078" lon="7.24786">
        <ele>721.422157</ele>
        <time>2011-11-12T13:34:04Z</time>
      </trkpt>
      <trkpt lat="43.80077" lon="7.24767">
        <ele>720.422115</ele>
        <time>2011-11-12T13:34:07Z</time>
      </trkpt>
      <trkpt lat="43.80075" lon="7.24752">
        <ele>719.422081</ele>
        <time>2011-11-12T13:34:09Z</time>
      </trkpt>
      <trkpt lat="43.80072" lon="7.24736">
        <ele>718.422043</ele>
        <time>2011-11-12T13:34:11Z</time>
      </trkpt>
      <trkpt lat="43.80065" lon="7.2472">
        <ele>717.422001</ele>
        <time>2011-11-12T13:34:13Z</time>
      </trkpt>
      <trkpt lat="43.80057" lon="7.24709">
        <ele>716.421967</ele>
        <time>2011-11-12T13:34:15Z</time>
      </trkpt>
      <trkpt lat="43.80052" lon="7.24698">
        <ele>714.421936</ele>
        <time>2011-11-12T13:34:17Z</time>
      </trkpt>
      <trkpt lat="43.80043" lon="7.24682">
        <ele>710.421894</ele>
        <time>2011-11-12T13:34:26Z</time>
      </trkpt>
      <trkpt lat="43.80039" lon="7.24682">
        <ele>709.421883</ele>
        <time>2011-11-12T13:34:31Z</time>
      </trkpt>
      <trkpt lat="43.80029" lon="7.24682">
        <ele>707.421875</ele>
        <time>2011-11-12T13:34:33Z</time>
      </trkpt>
      <trkpt lat="43.80019" lon="7.24681">
        <ele>706.421852</ele>
        <time>2011-11-12T13:34:39Z</time>
      </trkpt>
      <trkpt lat="43.80007" lon="7.24683">
        <ele>703.421844</ele>
        <time>2011-11-12T13:34:50Z</time>
      </trkpt>
      <trkpt lat="43.80004" lon="7.24684">
        <ele>702.421841</ele>
        <time>2011-11-12T13:34:54Z</time>
      </trkpt>
      <trkpt lat="43.79991" lon="7.24684">
        <ele>700.421825</ele>
        <time>2011-11-12T13:35:10Z</time>
      </trkpt>
      <trkpt lat="43.79981" lon="7.24685">
        <ele>701.421814</ele>
        <time>2011-11-12T13:35:18Z</time>
      </trkpt>
      <trkpt lat="43.79971" lon="7.24687">
        <ele>699.421799</ele>
        <time>2011-11-12T13:35:24Z</time>
      </trkpt>
      <trkpt lat="43.79969" lon="7.24687">
        <ele>699.421799</ele>
        <time>2011-11-12T13:35:25Z</time>
      </trkpt>
      <trkpt lat="43.79955" lon="7.24691">
        <ele>700.421791</ele>
        <time>2011-11-12T13:35:32Z</time>
      </trkpt>
      <trkpt lat="43.79945" lon="7.24695">
        <ele>701.421783</ele>
        <time>2011-11-12T13:35:39Z</time>
      </trkpt>
      <trkpt lat="43.79936" lon="7.24696">
        <ele>702.421776</ele>
        <time>2011-11-12T13:35:46Z</time>
      </trkpt>
      <trkpt lat="43.79927" lon="7.24699">
        <ele>703.421768</ele>
        <time>2011-11-12T13:35:53Z</time>
      </trkpt>
      <trkpt lat="43.79918" lon="7.24702">
        <ele>705.421761</ele>
        <time>2011-11-12T13:35:59Z</time>
      </trkpt>
      <trkpt lat="43.79907" lon="7.24705">
        <ele>705.421753</ele>
        <time>2011-11-12T13:36:05Z</time>
      </trkpt>
      <trkpt lat="43.79898" lon="7.24708">
        <ele>705.421749</ele>
        <time>2011-11-12T13:36:11Z</time>
      </trkpt>
      <trkpt lat="43.79888" lon="7.2471">
        <ele>706.421738</ele>
        <time>2011-11-12T13:36:18Z</time>
      </trkpt>
      <trkpt lat="43.79874" lon="7.24716">
        <ele>707.42173</ele>
        <time>2011-11-12T13:36:29Z</time>
      </trkpt>
      <trkpt lat="43.79865" lon="7.24721">
        <ele>708.421722</ele>
        <time>2011-11-12T13:36:36Z</time>
      </trkpt>
      <trkpt lat="43.79856" lon="7.24726">
        <ele>708.421726</ele>
        <time>2011-11-12T13:36:42Z</time>
      </trkpt>
      <trkpt lat="43.79847" lon="7.24734">
        <ele>711.421738</ele>
        <time>2011-11-12T13:36:49Z</time>
      </trkpt>
      <trkpt lat="43.79838" lon="7.24742">
        <ele>714.42173</ele>
        <time>2011-11-12T13:36:56Z</time>
      </trkpt>
      <trkpt lat="43.7983" lon="7.24748">
        <ele>715.421738</ele>
        <time>2011-11-12T13:37:03Z</time>
      </trkpt>
      <trkpt lat="43.7982" lon="7.2475">
        <ele>715.42173</ele>
        <time>2011-11-12T13:37:11Z</time>
      </trkpt>
      <trkpt lat="43.79809" lon="7.24755">
        <ele>715.421722</ele>
        <time>2011-11-12T13:37:26Z</time>
      </trkpt>
      <trkpt lat="43.798" lon="7.24761">
        <ele>716.421722</ele>
        <time>2011-11-12T13:37:30Z</time>
      </trkpt>
      <trkpt lat="43.79791" lon="7.24767">
        <ele>719.421726</ele>
        <time>2011-11-12T13:37:34Z</time>
      </trkpt>
      <trkpt lat="43.79775" lon="7.24779">
        <ele>722.42173</ele>
        <time>2011-11-12T13:37:39Z</time>
      </trkpt>
      <trkpt lat="43.79767" lon="7.24784">
        <ele>723.421722</ele>
        <time>2011-11-12T13:37:41Z</time>
      </trkpt>
      <trkpt lat="43.79755" lon="7.24793">
        <ele>724.421726</ele>
        <time>2011-11-12T13:37:44Z</time>
      </trkpt>
      <trkpt lat="43.79743" lon="7.24803">
        <ele>725.421738</ele>
        <time>2011-11-12T13:37:46Z</time>
      </trkpt>
      <trkpt lat="43.79735" lon="7.2481">
        <ele>725.421738</ele>
        <time>2011-11-12T13:37:47Z</time>
      </trkpt>
      <trkpt lat="43.79727" lon="7.24817">
        <ele>725.421741</ele>
        <time>2011-11-12T13:37:48Z</time>
      </trkpt>
      <trkpt lat="43.79712" lon="7.24831">
        <ele>725.421745</ele>
        <time>2011-11-12T13:37:50Z</time>
      </trkpt>
      <trkpt lat="43.79698" lon="7.24844">
        <ele>725.421761</ele>
        <time>2011-11-12T13:37:52Z</time>
      </trkpt>
      <trkpt lat="43.79685" lon="7.24856">
        <ele>726.421764</ele>
        <time>2011-11-12T13:37:54Z</time>
      </trkpt>
      <trkpt lat="43.79671" lon="7.24866">
        <ele>726.421768</ele>
        <time>2011-11-12T13:37:56Z</time>
      </trkpt>
      <trkpt lat="43.79656" lon="7.24876">
        <ele>726.421768</ele>
        <time>2011-11-12T13:37:58Z</time>
      </trkpt>
      <trkpt lat="43.79642" lon="7.24883">
        <ele>726.421761</ele>
        <time>2011-11-12T13:38:00Z</time>
      </trkpt>
      <trkpt lat="43.79626" lon="7.24885">
        <ele>726.421745</ele>
        <time>2011-11-12T13:38:02Z</time>
      </trkpt>
      <trkpt lat="43.79617" lon="7.24885">
        <ele>726.421738</ele>
        <time>2011-11-12T13:38:03Z</time>
      </trkpt>
      <trkpt lat="43.79606" lon="7.24885">
        <ele>726.421722</ele>
        <time>2011-11-12T13:38:04Z</time>
      </trkpt>
      <trkpt lat="43.79594" lon="7.24884">
        <ele>725.4217</ele>
        <time>2011-11-12T13:38:05Z</time>
      </trkpt>
      <trkpt lat="43.79582" lon="7.24883">
        <ele>725.421684</ele>
        <time>2011-11-12T13:38:06Z</time>
      </trkpt>
      <trkpt lat="43.7957" lon="7.24882">
        <ele>725.421661</ele>
        <time>2011-11-12T13:38:07Z</time>
      </trkpt>
      <trkpt lat="43.79559" lon="7.24881">
        <ele>724.421638</ele>
        <time>2011-11-12T13:38:08Z</time>
      </trkpt>
      <trkpt lat="43.79548" lon="7.24879">
        <ele>724.421627</ele>
        <time>2011-11-12T13:38:09Z</time>
      </trkpt>
      <trkpt lat="43.79538" lon="7.24877">
        <ele>723.421604</ele>
        <time>2011-11-12T13:38:10Z</time>
      </trkpt>
      <trkpt lat="43.79529" lon="7.24874">
        <ele>723.421589</ele>
        <time>2011-11-12T13:38:11Z</time>
      </trkpt>
      <trkpt lat="43.79521" lon="7.24872">
        <ele>723.421574</ele>
        <time>2011-11-12T13:38:12Z</time>
      </trkpt>
      <trkpt lat="43.79508" lon="7.2487">
        <ele>722.421555</ele>
        <time>2011-11-12T13:38:14Z</time>
      </trkpt>
      <trkpt lat="43.79493" lon="7.24867">
        <ele>722.42152</ele>
        <time>2011-11-12T13:38:16Z</time>
      </trkpt>
      <trkpt lat="43.79478" lon="7.24864">
        <ele>721.421497</ele>
        <time>2011-11-12T13:38:18Z</time>
      </trkpt>
      <trkpt lat="43.79463" lon="7.24862">
        <ele>719.421471</ele>
        <time>2011-11-12T13:38:20Z</time>
      </trkpt>
      <trkpt lat="43.79448" lon="7.24858">
        <ele>718.42144</ele>
        <time>2011-11-12T13:38:22Z</time>
      </trkpt>
      <trkpt lat="43.79434" lon="7.24853">
        <ele>717.421417</ele>
        <time>2011-11-12T13:38:24Z</time>
      </trkpt>
      <trkpt lat="43.7942" lon="7.24846">
        <ele>716.421379</ele>
        <time>2011-11-12T13:38:26Z</time>
      </trkpt>
      <trkpt lat="43.79407" lon="7.24839">
        <ele>715.421341</ele>
        <time>2011-11-12T13:38:28Z</time>
      </trkpt>
      <trkpt lat="43.79394" lon="7.24832">
        <ele>714.42131</ele>
        <time>2011-11-12T13:38:30Z</time>
      </trkpt>
      <trkpt lat="43.79381" lon="7.24826">
        <ele>713.42128</ele>
        <time>2011-11-12T13:38:32Z</time>
      </trkpt>
      <trkpt lat="43.7937" lon="7.24821">
        <ele>713.421257</ele>
        <time>2011-11-12T13:38:34Z</time>
      </trkpt>
      <trkpt lat="43.79361" lon="7.2482">
        <ele>714.421242</ele>
        <time>2011-11-12T13:38:36Z</time>
      </trkpt>
      <trkpt lat="43.79358" lon="7.24819">
        <ele>713.421234</ele>
        <time>2011-11-12T13:38:37Z</time>
      </trkpt>
      <trkpt lat="43.79347" lon="7.24821">
        <ele>711.421227</ele>
        <time>2011-11-12T13:38:42Z</time>
      </trkpt>
      <trkpt lat="43.79337" lon="7.2482">
        <ele>711.421207</ele>
        <time>2011-11-12T13:38:44Z</time>
      </trkpt>
      <trkpt lat="43.79323" lon="7.24812">
        <ele>710.421173</ele>
        <time>2011-11-12T13:38:46Z</time>
      </trkpt>
      <trkpt lat="43.79309" lon="7.24808">
        <ele>709.421143</ele>
        <time>2011-11-12T13:38:48Z</time>
      </trkpt>
      <trkpt lat="43.79296" lon="7.24804">
        <ele>708.42112</ele>
        <time>2011-11-12T13:38:50Z</time>
      </trkpt>
      <trkpt lat="43.79286" lon="7.24798">
        <ele>707.421093</ele>
        <time>2011-11-12T13:38:52Z</time>
      </trkpt>
      <trkpt lat="43.79276" lon="7.24799">
        <ele>706.421082</ele>
        <time>2011-11-12T13:38:54Z</time>
      </trkpt>
      <trkpt lat="43.79266" lon="7.2481">
        <ele>703.421089</ele>
        <time>2011-11-12T13:38:57Z</time>
      </trkpt>
      <trkpt lat="43.79255" lon="7.24819">
        <ele>698.421097</ele>
        <time>2011-11-12T13:39:00Z</time>
      </trkpt>
      <trkpt lat="43.79246" lon="7.24824">
        <ele>695.421097</ele>
        <time>2011-11-12T13:39:02Z</time>
      </trkpt>
      <trkpt lat="43.79238" lon="7.2483">
        <ele>693.421097</ele>
        <time>2011-11-12T13:39:04Z</time>
      </trkpt>
      <trkpt lat="43.7923" lon="7.24837">
        <ele>692.421097</ele>
        <time>2011-11-12T13:39:06Z</time>
      </trkpt>
      <trkpt lat="43.79226" lon="7.24841">
        <ele>692.421104</ele>
        <time>2011-11-12T13:39:07Z</time>
      </trkpt>
      <trkpt lat="43.79219" lon="7.24849">
        <ele>692.421112</ele>
        <time>2011-11-12T13:39:09Z</time>
      </trkpt>
      <trkpt lat="43.79209" lon="7.24859">
        <ele>692.421112</ele>
        <time>2011-11-12T13:39:12Z</time>
      </trkpt>
      <trkpt lat="43.792" lon="7.24867">
        <ele>691.42112</ele>
        <time>2011-11-12T13:39:15Z</time>
      </trkpt>
      <trkpt lat="43.79198" lon="7.2489">
        <ele>692.421165</ele>
        <time>2011-11-12T13:39:26Z</time>
      </trkpt>
      <trkpt lat="43.79208" lon="7.24909">
        <ele>689.421219</ele>
        <time>2011-11-12T13:39:34Z</time>
      </trkpt>
      <trkpt lat="43.79216" lon="7.24919">
        <ele>685.421253</ele>
        <time>2011-11-12T13:39:40Z</time>
      </trkpt>
      <trkpt lat="43.79222" lon="7.24929">
        <ele>679.421284</ele>
        <time>2011-11-12T13:39:50Z</time>
      </trkpt>
      <trkpt lat="43.79227" lon="7.24939">
        <ele>672.42131</ele>
        <time>2011-11-12T13:40:10Z</time>
      </trkpt>
      <trkpt lat="43.7924" lon="7.24944">
        <ele>667.421337</ele>
        <time>2011-11-12T13:40:23Z</time>
      </trkpt>
      <trkpt lat="43.79244" lon="7.24949">
        <ele>663.421352</ele>
        <time>2011-11-12T13:40:26Z</time>
      </trkpt>
      <trkpt lat="43.7925" lon="7.24961">
        <ele>659.421387</ele>
        <time>2011-11-12T13:40:31Z</time>
      </trkpt>
      <trkpt lat="43.79256" lon="7.24971">
        <ele>655.421417</ele>
        <time>2011-11-12T13:40:36Z</time>
      </trkpt>
      <trkpt lat="43.79261" lon="7.24983">
        <ele>650.421448</ele>
        <time>2011-11-12T13:40:45Z</time>
      </trkpt>
      <trkpt lat="43.79267" lon="7.24994">
        <ele>647.421482</ele>
        <time>2011-11-12T13:40:54Z</time>
      </trkpt>
      <trkpt lat="43.79263" lon="7.25009">
        <ele>643.421509</ele>
        <time>2011-11-12T13:40:59Z</time>
      </trkpt>
      <trkpt lat="43.79261" lon="7.25011">
        <ele>642.421509</ele>
        <time>2011-11-12T13:41:01Z</time>
      </trkpt>
      <trkpt lat="43.79253" lon="7.25017">
        <ele>641.421509</ele>
        <time>2011-11-12T13:41:04Z</time>
      </trkpt>
      <trkpt lat="43.79232" lon="7.2503">
        <ele>640.421509</ele>
        <time>2011-11-12T13:41:14Z</time>
      </trkpt>
      <trkpt lat="43.7922" lon="7.25039">
        <ele>638.421509</ele>
        <time>2011-11-12T13:41:19Z</time>
      </trkpt>
      <trkpt lat="43.79217" lon="7.2504">
        <ele>638.421509</ele>
        <time>2011-11-12T13:41:21Z</time>
      </trkpt>
      <trkpt lat="43.79209" lon="7.25048">
        <ele>638.421513</ele>
        <time>2011-11-12T13:41:23Z</time>
      </trkpt>
      <trkpt lat="43.79207" lon="7.25051">
        <ele>638.421516</ele>
        <time>2011-11-12T13:41:24Z</time>
      </trkpt>
      <trkpt lat="43.79199" lon="7.2506">
        <ele>637.421524</ele>
        <time>2011-11-12T13:41:27Z</time>
      </trkpt>
      <trkpt lat="43.79192" lon="7.25067">
        <ele>637.421532</ele>
        <time>2011-11-12T13:41:30Z</time>
      </trkpt>
      <trkpt lat="43.79185" lon="7.25077">
        <ele>636.421539</ele>
        <time>2011-11-12T13:41:33Z</time>
      </trkpt>
      <trkpt lat="43.7918" lon="7.25084">
        <ele>635.421547</ele>
        <time>2011-11-12T13:41:35Z</time>
      </trkpt>
      <trkpt lat="43.79173" lon="7.25095">
        <ele>634.421562</ele>
        <time>2011-11-12T13:41:38Z</time>
      </trkpt>
      <trkpt lat="43.79171" lon="7.25099">
        <ele>634.42157</ele>
        <time>2011-11-12T13:41:39Z</time>
      </trkpt>
      <trkpt lat="43.79164" lon="7.25112">
        <ele>632.421585</ele>
        <time>2011-11-12T13:41:42Z</time>
      </trkpt>
      <trkpt lat="43.79161" lon="7.25117">
        <ele>632.421593</ele>
        <time>2011-11-12T13:41:43Z</time>
      </trkpt>
      <trkpt lat="43.79155" lon="7.2513">
        <ele>633.421608</ele>
        <time>2011-11-12T13:41:46Z</time>
      </trkpt>
      <trkpt lat="43.7915" lon="7.25143">
        <ele>632.421631</ele>
        <time>2011-11-12T13:41:49Z</time>
      </trkpt>
      <trkpt lat="43.79148" lon="7.25147">
        <ele>631.421638</ele>
        <time>2011-11-12T13:41:50Z</time>
      </trkpt>
      <trkpt lat="43.79144" lon="7.25161">
        <ele>633.421661</ele>
        <time>2011-11-12T13:41:54Z</time>
      </trkpt>
      <trkpt lat="43.79143" lon="7.25164">
        <ele>633.421669</ele>
        <time>2011-11-12T13:41:55Z</time>
      </trkpt>
      <trkpt lat="43.79138" lon="7.25175">
        <ele>631.421684</ele>
        <time>2011-11-12T13:41:59Z</time>
      </trkpt>
      <trkpt lat="43.79134" lon="7.25182">
        <ele>630.421692</ele>
        <time>2011-11-12T13:42:01Z</time>
      </trkpt>
      <trkpt lat="43.79129" lon="7.25194">
        <ele>629.421715</ele>
        <time>2011-11-12T13:42:04Z</time>
      </trkpt>
      <trkpt lat="43.79123" lon="7.25204">
        <ele>626.421722</ele>
        <time>2011-11-12T13:42:07Z</time>
      </trkpt>
      <trkpt lat="43.79121" lon="7.25206">
        <ele>625.421722</ele>
        <time>2011-11-12T13:42:08Z</time>
      </trkpt>
      <trkpt lat="43.79114" lon="7.25215">
        <ele>623.421738</ele>
        <time>2011-11-12T13:42:12Z</time>
      </trkpt>
      <trkpt lat="43.79106" lon="7.25225">
        <ele>621.421745</ele>
        <time>2011-11-12T13:42:16Z</time>
      </trkpt>
      <trkpt lat="43.79099" lon="7.25233">
        <ele>619.421753</ele>
        <time>2011-11-12T13:42:20Z</time>
      </trkpt>
      <trkpt lat="43.7909" lon="7.25238">
        <ele>617.421753</ele>
        <time>2011-11-12T13:42:27Z</time>
      </trkpt>
      <trkpt lat="43.79089" lon="7.25237">
        <ele>616.421745</ele>
        <time>2011-11-12T13:42:30Z</time>
      </trkpt>
      <trkpt lat="43.79077" lon="7.25236">
        <ele>614.421722</ele>
        <time>2011-11-12T13:42:38Z</time>
      </trkpt>
      <trkpt lat="43.79066" lon="7.25229">
        <ele>612.4217</ele>
        <time>2011-11-12T13:42:46Z</time>
      </trkpt>
      <trkpt lat="43.79055" lon="7.25213">
        <ele>608.421646</ele>
        <time>2011-11-12T13:42:56Z</time>
      </trkpt>
      <trkpt lat="43.79048" lon="7.25201">
        <ele>606.421616</ele>
        <time>2011-11-12T13:43:02Z</time>
      </trkpt>
      <trkpt lat="43.79041" lon="7.25187">
        <ele>604.421577</ele>
        <time>2011-11-12T13:43:08Z</time>
      </trkpt>
      <trkpt lat="43.79034" lon="7.2517">
        <ele>603.421532</ele>
        <time>2011-11-12T13:43:12Z</time>
      </trkpt>
      <trkpt lat="43.79028" lon="7.25159">
        <ele>601.421494</ele>
        <time>2011-11-12T13:43:16Z</time>
      </trkpt>
      <trkpt lat="43.79023" lon="7.25147">
        <ele>601.421467</ele>
        <time>2011-11-12T13:43:20Z</time>
      </trkpt>
      <trkpt lat="43.79018" lon="7.25136">
        <ele>600.42144</ele>
        <time>2011-11-12T13:43:21Z</time>
      </trkpt>
      <trkpt lat="43.79003" lon="7.25114">
        <ele>599.421368</ele>
        <time>2011-11-12T13:43:28Z</time>
      </trkpt>
      <trkpt lat="43.78997" lon="7.25102">
        <ele>600.421337</ele>
        <time>2011-11-12T13:43:31Z</time>
      </trkpt>
      <trkpt lat="43.78991" lon="7.25092">
        <ele>600.421303</ele>
        <time>2011-11-12T13:43:34Z</time>
      </trkpt>
      <trkpt lat="43.78984" lon="7.25082">
        <ele>600.421276</ele>
        <time>2011-11-12T13:43:38Z</time>
      </trkpt>
      <trkpt lat="43.78978" lon="7.25071">
        <ele>600.421242</ele>
        <time>2011-11-12T13:43:41Z</time>
      </trkpt>
      <trkpt lat="43.78969" lon="7.25059">
        <ele>599.421211</ele>
        <time>2011-11-12T13:43:44Z</time>
      </trkpt>
      <trkpt lat="43.78962" lon="7.2505">
        <ele>599.421177</ele>
        <time>2011-11-12T13:43:46Z</time>
      </trkpt>
      <trkpt lat="43.78952" lon="7.25044">
        <ele>599.42115</ele>
        <time>2011-11-12T13:43:48Z</time>
      </trkpt>
      <trkpt lat="43.78943" lon="7.25041">
        <ele>599.421135</ele>
        <time>2011-11-12T13:43:50Z</time>
      </trkpt>
      <trkpt lat="43.78933" lon="7.2504">
        <ele>600.42112</ele>
        <time>2011-11-12T13:43:53Z</time>
      </trkpt>
      <trkpt lat="43.78922" lon="7.25043">
        <ele>600.421112</ele>
        <time>2011-11-12T13:43:56Z</time>
      </trkpt>
      <trkpt lat="43.7891" lon="7.25046">
        <ele>600.421097</ele>
        <time>2011-11-12T13:43:59Z</time>
      </trkpt>
      <trkpt lat="43.78896" lon="7.25048">
        <ele>600.421082</ele>
        <time>2011-11-12T13:44:02Z</time>
      </trkpt>
      <trkpt lat="43.78891" lon="7.25049">
        <ele>601.421078</ele>
        <time>2011-11-12T13:44:03Z</time>
      </trkpt>
      <trkpt lat="43.78878" lon="7.2505">
        <ele>601.421066</ele>
        <time>2011-11-12T13:44:05Z</time>
      </trkpt>
      <trkpt lat="43.78868" lon="7.25052">
        <ele>601.421051</ele>
        <time>2011-11-12T13:44:07Z</time>
      </trkpt>
      <trkpt lat="43.78853" lon="7.25052">
        <ele>601.421028</ele>
        <time>2011-11-12T13:44:09Z</time>
      </trkpt>
      <trkpt lat="43.7884" lon="7.25052">
        <ele>601.421013</ele>
        <time>2011-11-12T13:44:11Z</time>
      </trkpt>
      <trkpt lat="43.78829" lon="7.25052">
        <ele>601.420998</ele>
        <time>2011-11-12T13:44:13Z</time>
      </trkpt>
      <trkpt lat="43.7881" lon="7.25049">
        <ele>601.420967</ele>
        <time>2011-11-12T13:44:15Z</time>
      </trkpt>
      <trkpt lat="43.78797" lon="7.25047">
        <ele>601.420944</ele>
        <time>2011-11-12T13:44:17Z</time>
      </trkpt>
      <trkpt lat="43.78787" lon="7.25041">
        <ele>601.420914</ele>
        <time>2011-11-12T13:44:18Z</time>
      </trkpt>
      <trkpt lat="43.78778" lon="7.25036">
        <ele>600.420898</ele>
        <time>2011-11-12T13:44:19Z</time>
      </trkpt>
      <trkpt lat="43.78761" lon="7.25032">
        <ele>599.42086</ele>
        <time>2011-11-12T13:44:21Z</time>
      </trkpt>
      <trkpt lat="43.78745" lon="7.25035">
        <ele>598.420845</ele>
        <time>2011-11-12T13:44:23Z</time>
      </trkpt>
      <trkpt lat="43.78729" lon="7.25043">
        <ele>597.420841</ele>
        <time>2011-11-12T13:44:25Z</time>
      </trkpt>
      <trkpt lat="43.78713" lon="7.25049">
        <ele>596.42083</ele>
        <time>2011-11-12T13:44:27Z</time>
      </trkpt>
      <trkpt lat="43.78698" lon="7.25054">
        <ele>595.420822</ele>
        <time>2011-11-12T13:44:29Z</time>
      </trkpt>
      <trkpt lat="43.78686" lon="7.25057">
        <ele>595.420815</ele>
        <time>2011-11-12T13:44:31Z</time>
      </trkpt>
      <trkpt lat="43.78682" lon="7.25056">
        <ele>595.420807</ele>
        <time>2011-11-12T13:44:33Z</time>
      </trkpt>
      <trkpt lat="43.78678" lon="7.25044">
        <ele>595.420776</ele>
        <time>2011-11-12T13:44:36Z</time>
      </trkpt>
      <trkpt lat="43.78675" lon="7.25026">
        <ele>595.420738</ele>
        <time>2011-11-12T13:44:39Z</time>
      </trkpt>
      <trkpt lat="43.78673" lon="7.25012">
        <ele>594.4207</ele>
        <time>2011-11-12T13:44:40Z</time>
      </trkpt>
      <trkpt lat="43.78671" lon="7.25003">
        <ele>594.420677</ele>
        <time>2011-11-12T13:44:41Z</time>
      </trkpt>
      <trkpt lat="43.7867" lon="7.24983">
        <ele>593.420639</ele>
        <time>2011-11-12T13:44:43Z</time>
      </trkpt>
      <trkpt lat="43.78668" lon="7.24964">
        <ele>592.420593</ele>
        <time>2011-11-12T13:44:45Z</time>
      </trkpt>
      <trkpt lat="43.78666" lon="7.24946">
        <ele>591.420555</ele>
        <time>2011-11-12T13:44:47Z</time>
      </trkpt>
      <trkpt lat="43.78664" lon="7.24932">
        <ele>590.420517</ele>
        <time>2011-11-12T13:44:49Z</time>
      </trkpt>
      <trkpt lat="43.78661" lon="7.24918">
        <ele>589.420486</ele>
        <time>2011-11-12T13:44:51Z</time>
      </trkpt>
      <trkpt lat="43.78658" lon="7.24912">
        <ele>589.420471</ele>
        <time>2011-11-12T13:44:52Z</time>
      </trkpt>
      <trkpt lat="43.78648" lon="7.24912">
        <ele>589.420456</ele>
        <time>2011-11-12T13:44:54Z</time>
      </trkpt>
      <trkpt lat="43.78636" lon="7.24915">
        <ele>589.420444</ele>
        <time>2011-11-12T13:44:56Z</time>
      </trkpt>
      <trkpt lat="43.7863" lon="7.24916">
        <ele>589.420441</ele>
        <time>2011-11-12T13:44:57Z</time>
      </trkpt>
      <trkpt lat="43.7862" lon="7.24919">
        <ele>590.420429</ele>
        <time>2011-11-12T13:44:59Z</time>
      </trkpt>
      <trkpt lat="43.7861" lon="7.24923">
        <ele>590.420425</ele>
        <time>2011-11-12T13:45:01Z</time>
      </trkpt>
      <trkpt lat="43.78601" lon="7.24927">
        <ele>589.420422</ele>
        <time>2011-11-12T13:45:03Z</time>
      </trkpt>
      <trkpt lat="43.78597" lon="7.24929">
        <ele>589.420425</ele>
        <time>2011-11-12T13:45:04Z</time>
      </trkpt>
      <trkpt lat="43.78587" lon="7.24935">
        <ele>588.420418</ele>
        <time>2011-11-12T13:45:06Z</time>
      </trkpt>
      <trkpt lat="43.78577" lon="7.2494">
        <ele>588.420418</ele>
        <time>2011-11-12T13:45:08Z</time>
      </trkpt>
      <trkpt lat="43.78567" lon="7.24946">
        <ele>587.420418</ele>
        <time>2011-11-12T13:45:10Z</time>
      </trkpt>
      <trkpt lat="43.78557" lon="7.24954">
        <ele>587.420418</ele>
        <time>2011-11-12T13:45:12Z</time>
      </trkpt>
      <trkpt lat="43.78548" lon="7.24961">
        <ele>588.420418</ele>
        <time>2011-11-12T13:45:14Z</time>
      </trkpt>
      <trkpt lat="43.78538" lon="7.24968">
        <ele>589.420425</ele>
        <time>2011-11-12T13:45:16Z</time>
      </trkpt>
      <trkpt lat="43.78529" lon="7.24975">
        <ele>589.420425</ele>
        <time>2011-11-12T13:45:18Z</time>
      </trkpt>
      <trkpt lat="43.7852" lon="7.24982">
        <ele>589.420425</ele>
        <time>2011-11-12T13:45:20Z</time>
      </trkpt>
      <trkpt lat="43.78516" lon="7.24986">
        <ele>589.420429</ele>
        <time>2011-11-12T13:45:21Z</time>
      </trkpt>
      <trkpt lat="43.78507" lon="7.24995">
        <ele>589.420437</ele>
        <time>2011-11-12T13:45:23Z</time>
      </trkpt>
      <trkpt lat="43.78499" lon="7.25004">
        <ele>588.420448</ele>
        <time>2011-11-12T13:45:25Z</time>
      </trkpt>
      <trkpt lat="43.78491" lon="7.25013">
        <ele>589.420456</ele>
        <time>2011-11-12T13:45:27Z</time>
      </trkpt>
      <trkpt lat="43.78483" lon="7.25023">
        <ele>589.420464</ele>
        <time>2011-11-12T13:45:29Z</time>
      </trkpt>
      <trkpt lat="43.78476" lon="7.25035">
        <ele>590.420479</ele>
        <time>2011-11-12T13:45:31Z</time>
      </trkpt>
      <trkpt lat="43.78468" lon="7.25046">
        <ele>590.42049</ele>
        <time>2011-11-12T13:45:33Z</time>
      </trkpt>
      <trkpt lat="43.78458" lon="7.25058">
        <ele>590.420502</ele>
        <time>2011-11-12T13:45:35Z</time>
      </trkpt>
      <trkpt lat="43.78447" lon="7.25071">
        <ele>590.420513</ele>
        <time>2011-11-12T13:45:37Z</time>
      </trkpt>
      <trkpt lat="43.78433" lon="7.25086">
        <ele>590.420525</ele>
        <time>2011-11-12T13:45:39Z</time>
      </trkpt>
      <trkpt lat="43.78425" lon="7.25094">
        <ele>590.420532</ele>
        <time>2011-11-12T13:45:40Z</time>
      </trkpt>
      <trkpt lat="43.78415" lon="7.25102">
        <ele>590.420532</ele>
        <time>2011-11-12T13:45:41Z</time>
      </trkpt>
      <trkpt lat="43.78405" lon="7.25109">
        <ele>589.420536</ele>
        <time>2011-11-12T13:45:42Z</time>
      </trkpt>
      <trkpt lat="43.78395" lon="7.25115">
        <ele>588.420536</ele>
        <time>2011-11-12T13:45:43Z</time>
      </trkpt>
      <trkpt lat="43.78385" lon="7.25121">
        <ele>588.420536</ele>
        <time>2011-11-12T13:45:44Z</time>
      </trkpt>
      <trkpt lat="43.78375" lon="7.25126">
        <ele>587.420532</ele>
        <time>2011-11-12T13:45:45Z</time>
      </trkpt>
      <trkpt lat="43.78362" lon="7.2513">
        <ele>586.420525</ele>
        <time>2011-11-12T13:45:46Z</time>
      </trkpt>
      <trkpt lat="43.7835" lon="7.25134">
        <ele>586.420513</ele>
        <time>2011-11-12T13:45:47Z</time>
      </trkpt>
      <trkpt lat="43.78338" lon="7.25139">
        <ele>586.420509</ele>
        <time>2011-11-12T13:45:48Z</time>
      </trkpt>
      <trkpt lat="43.78327" lon="7.25145">
        <ele>585.420506</ele>
        <time>2011-11-12T13:45:49Z</time>
      </trkpt>
      <trkpt lat="43.78315" lon="7.25151">
        <ele>585.420506</ele>
        <time>2011-11-12T13:45:50Z</time>
      </trkpt>
      <trkpt lat="43.78304" lon="7.25157">
        <ele>584.420494</ele>
        <time>2011-11-12T13:45:51Z</time>
      </trkpt>
      <trkpt lat="43.78292" lon="7.25164">
        <ele>584.420502</ele>
        <time>2011-11-12T13:45:52Z</time>
      </trkpt>
      <trkpt lat="43.7828" lon="7.2517">
        <ele>584.420494</ele>
        <time>2011-11-12T13:45:53Z</time>
      </trkpt>
      <trkpt lat="43.78268" lon="7.25176">
        <ele>583.420486</ele>
        <time>2011-11-12T13:45:54Z</time>
      </trkpt>
      <trkpt lat="43.78256" lon="7.25182">
        <ele>583.420483</ele>
        <time>2011-11-12T13:45:55Z</time>
      </trkpt>
      <trkpt lat="43.78243" lon="7.25188">
        <ele>582.420479</ele>
        <time>2011-11-12T13:45:56Z</time>
      </trkpt>
      <trkpt lat="43.78232" lon="7.25194">
        <ele>582.420479</ele>
        <time>2011-11-12T13:45:57Z</time>
      </trkpt>
      <trkpt lat="43.7822" lon="7.252">
        <ele>582.420471</ele>
        <time>2011-11-12T13:45:58Z</time>
      </trkpt>
      <trkpt lat="43.78206" lon="7.25209">
        <ele>581.420471</ele>
        <time>2011-11-12T13:46:00Z</time>
      </trkpt>
      <trkpt lat="43.78199" lon="7.25216">
        <ele>580.420479</ele>
        <time>2011-11-12T13:46:02Z</time>
      </trkpt>
      <trkpt lat="43.78194" lon="7.2523">
        <ele>577.420502</ele>
        <time>2011-11-12T13:46:07Z</time>
      </trkpt>
      <trkpt lat="43.78187" lon="7.25249">
        <ele>576.420532</ele>
        <time>2011-11-12T13:46:16Z</time>
      </trkpt>
      <trkpt lat="43.78174" lon="7.25249">
        <ele>565.420517</ele>
        <time>2011-11-12T13:46:34Z</time>
      </trkpt>
      <trkpt lat="43.78169" lon="7.25239">
        <ele>563.420486</ele>
        <time>2011-11-12T13:46:39Z</time>
      </trkpt>
      <trkpt lat="43.7816" lon="7.25234">
        <ele>563.420467</ele>
        <time>2011-11-12T13:46:44Z</time>
      </trkpt>
      <trkpt lat="43.78145" lon="7.2524">
        <ele>562.420448</ele>
        <time>2011-11-12T13:46:50Z</time>
      </trkpt>
      <trkpt lat="43.78142" lon="7.25241">
        <ele>562.420452</ele>
        <time>2011-11-12T13:46:52Z</time>
      </trkpt>
      <trkpt lat="43.78133" lon="7.25246">
        <ele>562.420452</ele>
        <time>2011-11-12T13:46:55Z</time>
      </trkpt>
      <trkpt lat="43.78124" lon="7.25251">
        <ele>561.420456</ele>
        <time>2011-11-12T13:46:59Z</time>
      </trkpt>
      <trkpt lat="43.78115" lon="7.25258">
        <ele>560.420448</ele>
        <time>2011-11-12T13:47:03Z</time>
      </trkpt>
      <trkpt lat="43.78103" lon="7.2527">
        <ele>559.420464</ele>
        <time>2011-11-12T13:47:13Z</time>
      </trkpt>
      <trkpt lat="43.78095" lon="7.25278">
        <ele>560.420471</ele>
        <time>2011-11-12T13:47:19Z</time>
      </trkpt>
      <trkpt lat="43.78085" lon="7.25284">
        <ele>561.420467</ele>
        <time>2011-11-12T13:47:26Z</time>
      </trkpt>
      <trkpt lat="43.78076" lon="7.25291">
        <ele>561.420464</ele>
        <time>2011-11-12T13:47:30Z</time>
      </trkpt>
      <trkpt lat="43.78068" lon="7.25299">
        <ele>563.420471</ele>
        <time>2011-11-12T13:47:36Z</time>
      </trkpt>
      <trkpt lat="43.78058" lon="7.25309">
        <ele>565.420483</ele>
        <time>2011-11-12T13:47:47Z</time>
      </trkpt>
      <trkpt lat="43.7805" lon="7.25316">
        <ele>566.420486</ele>
        <time>2011-11-12T13:47:55Z</time>
      </trkpt>
      <trkpt lat="43.7804" lon="7.25322">
        <ele>572.420483</ele>
        <time>2011-11-12T13:48:05Z</time>
      </trkpt>
      <trkpt lat="43.7803" lon="7.25328">
        <ele>573.420486</ele>
        <time>2011-11-12T13:48:15Z</time>
      </trkpt>
      <trkpt lat="43.78022" lon="7.25336">
        <ele>574.420486</ele>
        <time>2011-11-12T13:48:27Z</time>
      </trkpt>
      <trkpt lat="43.78015" lon="7.25345">
        <ele>577.420502</ele>
        <time>2011-11-12T13:48:39Z</time>
      </trkpt>
      <trkpt lat="43.78007" lon="7.25352">
        <ele>577.420506</ele>
        <time>2011-11-12T13:48:47Z</time>
      </trkpt>
      <trkpt lat="43.77996" lon="7.25364">
        <ele>577.420517</ele>
        <time>2011-11-12T13:48:57Z</time>
      </trkpt>
      <trkpt lat="43.77987" lon="7.25375">
        <ele>576.420525</ele>
        <time>2011-11-12T13:49:01Z</time>
      </trkpt>
      <trkpt lat="43.7798" lon="7.25384">
        <ele>577.420528</ele>
        <time>2011-11-12T13:49:05Z</time>
      </trkpt>
      <trkpt lat="43.77965" lon="7.25398">
        <ele>578.420544</ele>
        <time>2011-11-12T13:49:13Z</time>
      </trkpt>
      <trkpt lat="43.77958" lon="7.25406">
        <ele>578.420551</ele>
        <time>2011-11-12T13:49:18Z</time>
      </trkpt>
      <trkpt lat="43.77949" lon="7.25415">
        <ele>580.420555</ele>
        <time>2011-11-12T13:49:24Z</time>
      </trkpt>
      <trkpt lat="43.7794" lon="7.25422">
        <ele>580.420559</ele>
        <time>2011-11-12T13:49:37Z</time>
      </trkpt>
      <trkpt lat="43.77938" lon="7.25424">
        <ele>581.420563</ele>
        <time>2011-11-12T13:49:39Z</time>
      </trkpt>
      <trkpt lat="43.77933" lon="7.25434">
        <ele>580.420578</ele>
        <time>2011-11-12T13:49:46Z</time>
      </trkpt>
      <trkpt lat="43.77932" lon="7.2544">
        <ele>581.420586</ele>
        <time>2011-11-12T13:49:53Z</time>
      </trkpt>
      <trkpt lat="43.7793" lon="7.25454">
        <ele>582.420616</ele>
        <time>2011-11-12T13:50:03Z</time>
      </trkpt>
      <trkpt lat="43.7793" lon="7.25454">
        <ele>582.420616</ele>
        <time>2011-11-12T13:50:04Z</time>
      </trkpt>
      <trkpt lat="43.77927" lon="7.25466">
        <ele>583.420635</ele>
        <time>2011-11-12T13:50:11Z</time>
      </trkpt>
      <trkpt lat="43.77925" lon="7.25478">
        <ele>585.420658</ele>
        <time>2011-11-12T13:50:18Z</time>
      </trkpt>
      <trkpt lat="43.77922" lon="7.2549">
        <ele>587.420677</ele>
        <time>2011-11-12T13:50:25Z</time>
      </trkpt>
      <trkpt lat="43.77922" lon="7.2549">
        <ele>587.420677</ele>
        <time>2011-11-12T13:50:30Z</time>
      </trkpt>
      <trkpt lat="43.77917" lon="7.25501">
        <ele>589.420692</ele>
        <time>2011-11-12T13:50:34Z</time>
      </trkpt>
      <trkpt lat="43.77913" lon="7.25506">
        <ele>590.4207</ele>
        <time>2011-11-12T13:50:39Z</time>
      </trkpt>
      <trkpt lat="43.77904" lon="7.25517">
        <ele>593.420712</ele>
        <time>2011-11-12T13:50:45Z</time>
      </trkpt>
      <trkpt lat="43.77899" lon="7.25528">
        <ele>595.420727</ele>
        <time>2011-11-12T13:50:54Z</time>
      </trkpt>
      <trkpt lat="43.77892" lon="7.25541">
        <ele>598.420742</ele>
        <time>2011-11-12T13:51:03Z</time>
      </trkpt>
      <trkpt lat="43.77883" lon="7.25553">
        <ele>597.420757</ele>
        <time>2011-11-12T13:51:19Z</time>
      </trkpt>
      <trkpt lat="43.77877" lon="7.25563">
        <ele>599.420769</ele>
        <time>2011-11-12T13:51:37Z</time>
      </trkpt>
      <trkpt lat="43.77877" lon="7.25564">
        <ele>599.420769</ele>
        <time>2011-11-12T13:51:39Z</time>
      </trkpt>
      <trkpt lat="43.77872" lon="7.25575">
        <ele>602.420784</ele>
        <time>2011-11-12T13:52:06Z</time>
      </trkpt>
      <trkpt lat="43.77874" lon="7.25587">
        <ele>604.420818</ele>
        <time>2011-11-12T13:52:23Z</time>
      </trkpt>
      <trkpt lat="43.77865" lon="7.25589">
        <ele>616.420811</ele>
        <time>2011-11-12T13:53:04Z</time>
      </trkpt>
      <trkpt lat="43.77857" lon="7.25595">
        <ele>617.420811</ele>
        <time>2011-11-12T13:53:18Z</time>
      </trkpt>
      <trkpt lat="43.77858" lon="7.25608">
        <ele>619.420841</ele>
        <time>2011-11-12T13:53:33Z</time>
      </trkpt>
      <trkpt lat="43.77863" lon="7.2562">
        <ele>622.420868</ele>
        <time>2011-11-12T13:53:42Z</time>
      </trkpt>
      <trkpt lat="43.77863" lon="7.25622">
        <ele>622.420876</ele>
        <time>2011-11-12T13:53:44Z</time>
      </trkpt>
      <trkpt lat="43.77855" lon="7.25627">
        <ele>627.420876</ele>
        <time>2011-11-12T13:54:16Z</time>
      </trkpt>
      <trkpt lat="43.77846" lon="7.2562">
        <ele>634.420849</ele>
        <time>2011-11-12T13:54:31Z</time>
      </trkpt>
      <trkpt lat="43.77837" lon="7.25618">
        <ele>645.42083</ele>
        <time>2011-11-12T13:54:51Z</time>
      </trkpt>
      <trkpt lat="43.77828" lon="7.25616">
        <ele>654.420815</ele>
        <time>2011-11-12T13:55:09Z</time>
      </trkpt>
      <trkpt lat="43.77818" lon="7.25615">
        <ele>656.420799</ele>
        <time>2011-11-12T13:55:24Z</time>
      </trkpt>
      <trkpt lat="43.77809" lon="7.25619">
        <ele>655.420799</ele>
        <time>2011-11-12T13:55:32Z</time>
      </trkpt>
      <trkpt lat="43.778" lon="7.2561">
        <ele>654.420761</ele>
        <time>2011-11-12T13:56:03Z</time>
      </trkpt>
      <trkpt lat="43.7779" lon="7.25611">
        <ele>656.42075</ele>
        <time>2011-11-12T13:56:12Z</time>
      </trkpt>
      <trkpt lat="43.77789" lon="7.25611">
        <ele>656.42075</ele>
        <time>2011-11-12T13:56:13Z</time>
      </trkpt>
      <trkpt lat="43.7778" lon="7.25617">
        <ele>657.42075</ele>
        <time>2011-11-12T13:56:23Z</time>
      </trkpt>
      <trkpt lat="43.77772" lon="7.25624">
        <ele>661.420753</ele>
        <time>2011-11-12T13:56:48Z</time>
      </trkpt>
      <trkpt lat="43.77762" lon="7.2563">
        <ele>664.420753</ele>
        <time>2011-11-12T13:57:06Z</time>
      </trkpt>
      <trkpt lat="43.77762" lon="7.2563">
        <ele>664.420753</ele>
        <time>2011-11-12T13:57:07Z</time>
      </trkpt>
      <trkpt lat="43.77754" lon="7.25638">
        <ele>668.420757</ele>
        <time>2011-11-12T13:57:23Z</time>
      </trkpt>
      <trkpt lat="43.77748" lon="7.25648">
        <ele>667.420769</ele>
        <time>2011-11-12T13:57:41Z</time>
      </trkpt>
      <trkpt lat="43.7774" lon="7.25655">
        <ele>675.420776</ele>
        <time>2011-11-12T13:57:59Z</time>
      </trkpt>
      <trkpt lat="43.7774" lon="7.25656">
        <ele>675.420773</ele>
        <time>2011-11-12T13:58:00Z</time>
      </trkpt>
      <trkpt lat="43.77734" lon="7.2567">
        <ele>678.420799</ele>
        <time>2011-11-12T13:58:15Z</time>
      </trkpt>
      <trkpt lat="43.77731" lon="7.25685">
        <ele>678.42083</ele>
        <time>2011-11-12T13:58:26Z</time>
      </trkpt>
      <trkpt lat="43.77731" lon="7.25699">
        <ele>675.420856</ele>
        <time>2011-11-12T13:58:40Z</time>
      </trkpt>
      <trkpt lat="43.77731" lon="7.25701">
        <ele>675.420856</ele>
        <time>2011-11-12T13:58:42Z</time>
      </trkpt>
      <trkpt lat="43.77727" lon="7.25712">
        <ele>675.420876</ele>
        <time>2011-11-12T13:58:53Z</time>
      </trkpt>
      <trkpt lat="43.77723" lon="7.25724">
        <ele>675.420895</ele>
        <time>2011-11-12T13:59:03Z</time>
      </trkpt>
      <trkpt lat="43.77721" lon="7.25737">
        <ele>676.420921</ele>
        <time>2011-11-12T13:59:13Z</time>
      </trkpt>
      <trkpt lat="43.77723" lon="7.25752">
        <ele>679.420959</ele>
        <time>2011-11-12T13:59:25Z</time>
      </trkpt>
      <trkpt lat="43.77725" lon="7.25764">
        <ele>681.420982</ele>
        <time>2011-11-12T13:59:35Z</time>
      </trkpt>
      <trkpt lat="43.77723" lon="7.25777">
        <ele>684.421009</ele>
        <time>2011-11-12T13:59:47Z</time>
      </trkpt>
      <trkpt lat="43.77717" lon="7.25788">
        <ele>688.421024</ele>
        <time>2011-11-12T14:00:00Z</time>
      </trkpt>
      <trkpt lat="43.77709" lon="7.25795">
        <ele>692.421028</ele>
        <time>2011-11-12T14:00:32Z</time>
      </trkpt>
      <trkpt lat="43.77706" lon="7.25808">
        <ele>693.421051</ele>
        <time>2011-11-12T14:00:41Z</time>
      </trkpt>
      <trkpt lat="43.77701" lon="7.25819">
        <ele>696.421066</ele>
        <time>2011-11-12T14:00:49Z</time>
      </trkpt>
      <trkpt lat="43.77694" lon="7.25829">
        <ele>699.421078</ele>
        <time>2011-11-12T14:00:57Z</time>
      </trkpt>
      <trkpt lat="43.77685" lon="7.25837">
        <ele>699.421085</ele>
        <time>2011-11-12T14:01:04Z</time>
      </trkpt>
      <trkpt lat="43.77677" lon="7.25845">
        <ele>701.421089</ele>
        <time>2011-11-12T14:01:12Z</time>
      </trkpt>
      <trkpt lat="43.77668" lon="7.25856">
        <ele>704.421101</ele>
        <time>2011-11-12T14:01:24Z</time>
      </trkpt>
      <trkpt lat="43.77659" lon="7.25864">
        <ele>706.421104</ele>
        <time>2011-11-12T14:01:35Z</time>
      </trkpt>
      <trkpt lat="43.77651" lon="7.25872">
        <ele>708.421112</ele>
        <time>2011-11-12T14:01:44Z</time>
      </trkpt>
      <trkpt lat="43.77645" lon="7.25882">
        <ele>710.421124</ele>
        <time>2011-11-12T14:01:53Z</time>
      </trkpt>
      <trkpt lat="43.77638" lon="7.2589">
        <ele>711.421135</ele>
        <time>2011-11-12T14:02:02Z</time>
      </trkpt>
      <trkpt lat="43.77637" lon="7.25891">
        <ele>711.421131</ele>
        <time>2011-11-12T14:02:03Z</time>
      </trkpt>
      <trkpt lat="43.7763" lon="7.25901">
        <ele>714.421143</ele>
        <time>2011-11-12T14:02:13Z</time>
      </trkpt>
      <trkpt lat="43.77625" lon="7.25913">
        <ele>717.421162</ele>
        <time>2011-11-12T14:02:22Z</time>
      </trkpt>
      <trkpt lat="43.77617" lon="7.25923">
        <ele>717.421173</ele>
        <time>2011-11-12T14:02:34Z</time>
      </trkpt>
      <trkpt lat="43.77608" lon="7.25931">
        <ele>718.421177</ele>
        <time>2011-11-12T14:02:45Z</time>
      </trkpt>
      <trkpt lat="43.776" lon="7.25939">
        <ele>721.421181</ele>
        <time>2011-11-12T14:02:56Z</time>
      </trkpt>
      <trkpt lat="43.77591" lon="7.25951">
        <ele>723.421196</ele>
        <time>2011-11-12T14:03:07Z</time>
      </trkpt>
      <trkpt lat="43.77583" lon="7.2596">
        <ele>726.421204</ele>
        <time>2011-11-12T14:03:16Z</time>
      </trkpt>
      <trkpt lat="43.77576" lon="7.25968">
        <ele>727.421211</ele>
        <time>2011-11-12T14:03:24Z</time>
      </trkpt>
      <trkpt lat="43.7757" lon="7.25977">
        <ele>728.421219</ele>
        <time>2011-11-12T14:03:33Z</time>
      </trkpt>
      <trkpt lat="43.77559" lon="7.25985">
        <ele>728.421223</ele>
        <time>2011-11-12T14:03:43Z</time>
      </trkpt>
      <trkpt lat="43.77547" lon="7.2599">
        <ele>729.421219</ele>
        <time>2011-11-12T14:03:52Z</time>
      </trkpt>
      <trkpt lat="43.77536" lon="7.25994">
        <ele>734.421211</ele>
        <time>2011-11-12T14:04:01Z</time>
      </trkpt>
      <trkpt lat="43.77528" lon="7.26001">
        <ele>738.421211</ele>
        <time>2011-11-12T14:04:09Z</time>
      </trkpt>
      <trkpt lat="43.77525" lon="7.26005">
        <ele>739.421219</ele>
        <time>2011-11-12T14:04:12Z</time>
      </trkpt>
      <trkpt lat="43.77515" lon="7.26014">
        <ele>737.421227</ele>
        <time>2011-11-12T14:04:23Z</time>
      </trkpt>
      <trkpt lat="43.77515" lon="7.26014">
        <ele>738.421227</ele>
        <time>2011-11-12T14:04:24Z</time>
      </trkpt>
      <trkpt lat="43.7752" lon="7.25997">
        <ele>739.421196</ele>
        <time>2011-11-12T14:04:37Z</time>
      </trkpt>
      <trkpt lat="43.77525" lon="7.25986">
        <ele>736.421181</ele>
        <time>2011-11-12T14:04:40Z</time>
      </trkpt>
      <trkpt lat="43.77532" lon="7.25975">
        <ele>736.421165</ele>
        <time>2011-11-12T14:04:43Z</time>
      </trkpt>
      <trkpt lat="43.77534" lon="7.25971">
        <ele>736.421158</ele>
        <time>2011-11-12T14:04:44Z</time>
      </trkpt>
      <trkpt lat="43.77541" lon="7.25961">
        <ele>736.42115</ele>
        <time>2011-11-12T14:04:47Z</time>
      </trkpt>
      <trkpt lat="43.77548" lon="7.25951">
        <ele>736.421135</ele>
        <time>2011-11-12T14:04:51Z</time>
      </trkpt>
      <trkpt lat="43.77556" lon="7.25943">
        <ele>739.421131</ele>
        <time>2011-11-12T14:05:00Z</time>
      </trkpt>
      <trkpt lat="43.77556" lon="7.25943">
        <ele>740.421127</ele>
        <time>2011-11-12T14:05:06Z</time>
      </trkpt>
      <trkpt lat="43.77562" lon="7.25932">
        <ele>722.42112</ele>
        <time>2011-11-12T14:05:53Z</time>
      </trkpt>
      <trkpt lat="43.7757" lon="7.25925">
        <ele>701.421112</ele>
        <time>2011-11-12T14:06:08Z</time>
      </trkpt>
      <trkpt lat="43.77571" lon="7.25923">
        <ele>698.421112</ele>
        <time>2011-11-12T14:06:12Z</time>
      </trkpt>
      <trkpt lat="43.77576" lon="7.25911">
        <ele>741.421089</ele>
        <time>2011-11-12T14:07:34Z</time>
      </trkpt>
      <trkpt lat="43.77577" lon="7.25898">
        <ele>741.421062</ele>
        <time>2011-11-12T14:07:38Z</time>
      </trkpt>
      <trkpt lat="43.77579" lon="7.25885">
        <ele>741.421043</ele>
        <time>2011-11-12T14:07:42Z</time>
      </trkpt>
      <trkpt lat="43.77581" lon="7.25868">
        <ele>742.421005</ele>
        <time>2011-11-12T14:07:48Z</time>
      </trkpt>
      <trkpt lat="43.77581" lon="7.25866">
        <ele>743.421005</ele>
        <time>2011-11-12T14:07:49Z</time>
      </trkpt>
      <trkpt lat="43.77582" lon="7.25851">
        <ele>742.420975</ele>
        <time>2011-11-12T14:07:54Z</time>
      </trkpt>
      <trkpt lat="43.77582" lon="7.25834">
        <ele>743.420937</ele>
        <time>2011-11-12T14:08:00Z</time>
      </trkpt>
      <trkpt lat="43.77579" lon="7.25822">
        <ele>742.420906</ele>
        <time>2011-11-12T14:08:05Z</time>
      </trkpt>
      <trkpt lat="43.77575" lon="7.2581">
        <ele>742.420876</ele>
        <time>2011-11-12T14:08:09Z</time>
      </trkpt>
      <trkpt lat="43.77568" lon="7.25801">
        <ele>745.420849</ele>
        <time>2011-11-12T14:08:13Z</time>
      </trkpt>
      <trkpt lat="43.77563" lon="7.25796">
        <ele>746.42083</ele>
        <time>2011-11-12T14:08:15Z</time>
      </trkpt>
      <trkpt lat="43.77554" lon="7.25789">
        <ele>746.420807</ele>
        <time>2011-11-12T14:08:19Z</time>
      </trkpt>
      <trkpt lat="43.77544" lon="7.25787">
        <ele>746.420788</ele>
        <time>2011-11-12T14:08:23Z</time>
      </trkpt>
      <trkpt lat="43.77534" lon="7.25792">
        <ele>746.420784</ele>
        <time>2011-11-12T14:08:27Z</time>
      </trkpt>
      <trkpt lat="43.77525" lon="7.25799">
        <ele>746.420784</ele>
        <time>2011-11-12T14:08:31Z</time>
      </trkpt>
      <trkpt lat="43.77516" lon="7.25805">
        <ele>745.420784</ele>
        <time>2011-11-12T14:08:37Z</time>
      </trkpt>
      <trkpt lat="43.77503" lon="7.25804">
        <ele>744.420761</ele>
        <time>2011-11-12T14:08:40Z</time>
      </trkpt>
      <trkpt lat="43.77492" lon="7.25804">
        <ele>745.420753</ele>
        <time>2011-11-12T14:08:43Z</time>
      </trkpt>
      <trkpt lat="43.77482" lon="7.25806">
        <ele>746.420742</ele>
        <time>2011-11-12T14:08:47Z</time>
      </trkpt>
      <trkpt lat="43.77473" lon="7.25811">
        <ele>746.420738</ele>
        <time>2011-11-12T14:08:52Z</time>
      </trkpt>
      <trkpt lat="43.77464" lon="7.25815">
        <ele>748.420738</ele>
        <time>2011-11-12T14:08:57Z</time>
      </trkpt>
      <trkpt lat="43.77454" lon="7.25819">
        <ele>750.420731</ele>
        <time>2011-11-12T14:09:02Z</time>
      </trkpt>
      <trkpt lat="43.77445" lon="7.25824">
        <ele>750.420727</ele>
        <time>2011-11-12T14:09:07Z</time>
      </trkpt>
      <trkpt lat="43.77436" lon="7.25827">
        <ele>749.420723</ele>
        <time>2011-11-12T14:09:12Z</time>
      </trkpt>
      <trkpt lat="43.77434" lon="7.25828">
        <ele>749.420723</ele>
        <time>2011-11-12T14:09:13Z</time>
      </trkpt>
      <trkpt lat="43.77425" lon="7.25829">
        <ele>749.420715</ele>
        <time>2011-11-12T14:09:19Z</time>
      </trkpt>
      <trkpt lat="43.77434" lon="7.2582">
        <ele>748.420708</ele>
        <time>2011-11-12T14:09:37Z</time>
      </trkpt>
      <trkpt lat="43.77429" lon="7.25807">
        <ele>750.42067</ele>
        <time>2011-11-12T14:09:40Z</time>
      </trkpt>
      <trkpt lat="43.77422" lon="7.25797">
        <ele>751.420643</ele>
        <time>2011-11-12T14:09:42Z</time>
      </trkpt>
      <trkpt lat="43.77412" lon="7.25791">
        <ele>752.420612</ele>
        <time>2011-11-12T14:09:45Z</time>
      </trkpt>
      <trkpt lat="43.77403" lon="7.2579">
        <ele>752.420597</ele>
        <time>2011-11-12T14:09:48Z</time>
      </trkpt>
      <trkpt lat="43.77393" lon="7.2579">
        <ele>752.420586</ele>
        <time>2011-11-12T14:09:52Z</time>
      </trkpt>
      <trkpt lat="43.77383" lon="7.25791">
        <ele>754.42057</ele>
        <time>2011-11-12T14:09:56Z</time>
      </trkpt>
      <trkpt lat="43.77374" lon="7.25794">
        <ele>754.420567</ele>
        <time>2011-11-12T14:10:00Z</time>
      </trkpt>
      <trkpt lat="43.77366" lon="7.25801">
        <ele>755.42057</ele>
        <time>2011-11-12T14:10:04Z</time>
      </trkpt>
      <trkpt lat="43.77358" lon="7.25808">
        <ele>755.420578</ele>
        <time>2011-11-12T14:10:07Z</time>
      </trkpt>
      <trkpt lat="43.77348" lon="7.25815">
        <ele>755.420574</ele>
        <time>2011-11-12T14:10:10Z</time>
      </trkpt>
      <trkpt lat="43.77345" lon="7.25816">
        <ele>755.420574</ele>
        <time>2011-11-12T14:10:11Z</time>
      </trkpt>
      <trkpt lat="43.77334" lon="7.25822">
        <ele>754.42057</ele>
        <time>2011-11-12T14:10:14Z</time>
      </trkpt>
      <trkpt lat="43.77326" lon="7.25829">
        <ele>755.42057</ele>
        <time>2011-11-12T14:10:17Z</time>
      </trkpt>
      <trkpt lat="43.77323" lon="7.25846">
        <ele>756.420609</ele>
        <time>2011-11-12T14:10:21Z</time>
      </trkpt>
      <trkpt lat="43.77321" lon="7.25861">
        <ele>755.420635</ele>
        <time>2011-11-12T14:10:24Z</time>
      </trkpt>
      <trkpt lat="43.77317" lon="7.2587">
        <ele>754.42065</ele>
        <time>2011-11-12T14:10:26Z</time>
      </trkpt>
      <trkpt lat="43.77309" lon="7.25879">
        <ele>753.420654</ele>
        <time>2011-11-12T14:10:29Z</time>
      </trkpt>
      <trkpt lat="43.77298" lon="7.25888">
        <ele>752.420662</ele>
        <time>2011-11-12T14:10:32Z</time>
      </trkpt>
      <trkpt lat="43.77286" lon="7.25895">
        <ele>750.420662</ele>
        <time>2011-11-12T14:10:35Z</time>
      </trkpt>
      <trkpt lat="43.77279" lon="7.25897">
        <ele>749.420654</ele>
        <time>2011-11-12T14:10:37Z</time>
      </trkpt>
      <trkpt lat="43.77269" lon="7.25904">
        <ele>748.420658</ele>
        <time>2011-11-12T14:10:40Z</time>
      </trkpt>
      <trkpt lat="43.7726" lon="7.25912">
        <ele>748.420662</ele>
        <time>2011-11-12T14:10:43Z</time>
      </trkpt>
      <trkpt lat="43.77251" lon="7.25918">
        <ele>748.420662</ele>
        <time>2011-11-12T14:10:46Z</time>
      </trkpt>
      <trkpt lat="43.77243" lon="7.25923">
        <ele>747.420662</ele>
        <time>2011-11-12T14:10:49Z</time>
      </trkpt>
      <trkpt lat="43.77234" lon="7.25926">
        <ele>745.420654</ele>
        <time>2011-11-12T14:10:54Z</time>
      </trkpt>
      <trkpt lat="43.77232" lon="7.25926">
        <ele>745.42065</ele>
        <time>2011-11-12T14:10:55Z</time>
      </trkpt>
      <trkpt lat="43.77222" lon="7.25926">
        <ele>744.420635</ele>
        <time>2011-11-12T14:10:59Z</time>
      </trkpt>
      <trkpt lat="43.77212" lon="7.25923">
        <ele>743.42062</ele>
        <time>2011-11-12T14:11:02Z</time>
      </trkpt>
      <trkpt lat="43.77208" lon="7.25922">
        <ele>742.420609</ele>
        <time>2011-11-12T14:11:03Z</time>
      </trkpt>
      <trkpt lat="43.77195" lon="7.25917">
        <ele>742.420586</ele>
        <time>2011-11-12T14:11:06Z</time>
      </trkpt>
      <trkpt lat="43.77184" lon="7.25909">
        <ele>743.420555</ele>
        <time>2011-11-12T14:11:09Z</time>
      </trkpt>
      <trkpt lat="43.77175" lon="7.25901">
        <ele>744.420521</ele>
        <time>2011-11-12T14:11:13Z</time>
      </trkpt>
      <trkpt lat="43.77167" lon="7.25895">
        <ele>742.420498</ele>
        <time>2011-11-12T14:11:18Z</time>
      </trkpt>
      <trkpt lat="43.77158" lon="7.2589">
        <ele>740.420475</ele>
        <time>2011-11-12T14:11:24Z</time>
      </trkpt>
      <trkpt lat="43.77148" lon="7.25887">
        <ele>739.420456</ele>
        <time>2011-11-12T14:11:29Z</time>
      </trkpt>
      <trkpt lat="43.77128" lon="7.25889">
        <ele>739.420433</ele>
        <time>2011-11-12T14:11:38Z</time>
      </trkpt>
      <trkpt lat="43.77118" lon="7.2589">
        <ele>738.420418</ele>
        <time>2011-11-12T14:11:42Z</time>
      </trkpt>
      <trkpt lat="43.77105" lon="7.25893">
        <ele>740.42041</ele>
        <time>2011-11-12T14:11:50Z</time>
      </trkpt>
      <trkpt lat="43.771" lon="7.25893">
        <ele>740.420403</ele>
        <time>2011-11-12T14:11:52Z</time>
      </trkpt>
      <trkpt lat="43.77088" lon="7.25893">
        <ele>740.420387</ele>
        <time>2011-11-12T14:11:56Z</time>
      </trkpt>
      <trkpt lat="43.77077" lon="7.25893">
        <ele>741.420368</ele>
        <time>2011-11-12T14:12:00Z</time>
      </trkpt>
      <trkpt lat="43.77061" lon="7.25896">
        <ele>742.420349</ele>
        <time>2011-11-12T14:12:06Z</time>
      </trkpt>
      <trkpt lat="43.7705" lon="7.25898">
        <ele>742.420341</ele>
        <time>2011-11-12T14:12:10Z</time>
      </trkpt>
      <trkpt lat="43.77047" lon="7.25898">
        <ele>742.420341</ele>
        <time>2011-11-12T14:12:11Z</time>
      </trkpt>
      <trkpt lat="43.77034" lon="7.259">
        <ele>742.420326</ele>
        <time>2011-11-12T14:12:16Z</time>
      </trkpt>
      <trkpt lat="43.77023" lon="7.259">
        <ele>742.420311</ele>
        <time>2011-11-12T14:12:20Z</time>
      </trkpt>
      <trkpt lat="43.77014" lon="7.25899">
        <ele>743.420296</ele>
        <time>2011-11-12T14:12:23Z</time>
      </trkpt>
      <trkpt lat="43.77004" lon="7.25896">
        <ele>745.420277</ele>
        <time>2011-11-12T14:12:26Z</time>
      </trkpt>
      <trkpt lat="43.76995" lon="7.25894">
        <ele>747.420258</ele>
        <time>2011-11-12T14:12:29Z</time>
      </trkpt>
      <trkpt lat="43.76986" lon="7.2589">
        <ele>748.420235</ele>
        <time>2011-11-12T14:12:32Z</time>
      </trkpt>
      <trkpt lat="43.76976" lon="7.25884">
        <ele>750.420212</ele>
        <time>2011-11-12T14:12:36Z</time>
      </trkpt>
      <trkpt lat="43.76971" lon="7.25882">
        <ele>750.4202</ele>
        <time>2011-11-12T14:12:38Z</time>
      </trkpt>
      <trkpt lat="43.76966" lon="7.2587">
        <ele>751.420166</ele>
        <time>2011-11-12T14:12:43Z</time>
      </trkpt>
      <trkpt lat="43.76964" lon="7.25856">
        <ele>751.420135</ele>
        <time>2011-11-12T14:12:49Z</time>
      </trkpt>
      <trkpt lat="43.76964" lon="7.25854">
        <ele>751.420128</ele>
        <time>2011-11-12T14:12:50Z</time>
      </trkpt>
      <trkpt lat="43.76958" lon="7.25839">
        <ele>750.420094</ele>
        <time>2011-11-12T14:12:59Z</time>
      </trkpt>
      <trkpt lat="43.76945" lon="7.25822">
        <ele>751.42004</ele>
        <time>2011-11-12T14:13:12Z</time>
      </trkpt>
      <trkpt lat="43.76936" lon="7.25815">
        <ele>752.42001</ele>
        <time>2011-11-12T14:13:18Z</time>
      </trkpt>
      <trkpt lat="43.7693" lon="7.25806">
        <ele>754.419983</ele>
        <time>2011-11-12T14:13:23Z</time>
      </trkpt>
      <trkpt lat="43.76927" lon="7.25792">
        <ele>756.419949</ele>
        <time>2011-11-12T14:13:28Z</time>
      </trkpt>
      <trkpt lat="43.7692" lon="7.25778">
        <ele>758.419914</ele>
        <time>2011-11-12T14:13:34Z</time>
      </trkpt>
      <trkpt lat="43.76913" lon="7.25768">
        <ele>758.41988</ele>
        <time>2011-11-12T14:13:39Z</time>
      </trkpt>
      <trkpt lat="43.76906" lon="7.25758">
        <ele>758.419846</ele>
        <time>2011-11-12T14:13:43Z</time>
      </trkpt>
      <trkpt lat="43.76898" lon="7.25748">
        <ele>758.419819</ele>
        <time>2011-11-12T14:13:48Z</time>
      </trkpt>
      <trkpt lat="43.76896" lon="7.25746">
        <ele>758.419811</ele>
        <time>2011-11-12T14:13:49Z</time>
      </trkpt>
      <trkpt lat="43.76884" lon="7.25731">
        <ele>758.419762</ele>
        <time>2011-11-12T14:13:58Z</time>
      </trkpt>
      <trkpt lat="43.7688" lon="7.2572">
        <ele>759.419731</ele>
        <time>2011-11-12T14:14:02Z</time>
      </trkpt>
      <trkpt lat="43.76876" lon="7.25706">
        <ele>758.419701</ele>
        <time>2011-11-12T14:14:07Z</time>
      </trkpt>
      <trkpt lat="43.76875" lon="7.25704">
        <ele>758.419693</ele>
        <time>2011-11-12T14:14:10Z</time>
      </trkpt>
      <trkpt lat="43.76872" lon="7.25691">
        <ele>759.419662</ele>
        <time>2011-11-12T14:14:15Z</time>
      </trkpt>
      <trkpt lat="43.76867" lon="7.25675">
        <ele>760.419621</ele>
        <time>2011-11-12T14:14:24Z</time>
      </trkpt>
      <trkpt lat="43.76866" lon="7.25673">
        <ele>760.419617</ele>
        <time>2011-11-12T14:14:25Z</time>
      </trkpt>
      <trkpt lat="43.76861" lon="7.25661">
        <ele>762.419579</ele>
        <time>2011-11-12T14:14:32Z</time>
      </trkpt>
      <trkpt lat="43.76858" lon="7.25653">
        <ele>765.419559</ele>
        <time>2011-11-12T14:14:38Z</time>
      </trkpt>
      <trkpt lat="43.7685" lon="7.25642">
        <ele>766.419529</ele>
        <time>2011-11-12T14:14:53Z</time>
      </trkpt>
      <trkpt lat="43.76843" lon="7.25634">
        <ele>757.419498</ele>
        <time>2011-11-12T14:16:42Z</time>
      </trkpt>
      <trkpt lat="43.76842" lon="7.25619">
        <ele>756.419472</ele>
        <time>2011-11-12T14:19:20Z</time>
      </trkpt>
      <trkpt lat="43.76839" lon="7.256">
        <ele>756.419418</ele>
        <time>2011-11-12T14:19:23Z</time>
      </trkpt>
      <trkpt lat="43.76836" lon="7.25585">
        <ele>757.419388</ele>
        <time>2011-11-12T14:19:25Z</time>
      </trkpt>
      <trkpt lat="43.76836" lon="7.25569">
        <ele>757.419353</ele>
        <time>2011-11-12T14:19:27Z</time>
      </trkpt>
      <trkpt lat="43.76837" lon="7.2556">
        <ele>757.419338</ele>
        <time>2011-11-12T14:19:28Z</time>
      </trkpt>
      <trkpt lat="43.76838" lon="7.25545">
        <ele>758.419304</ele>
        <time>2011-11-12T14:19:30Z</time>
      </trkpt>
      <trkpt lat="43.7684" lon="7.25535">
        <ele>757.419289</ele>
        <time>2011-11-12T14:19:31Z</time>
      </trkpt>
      <trkpt lat="43.76844" lon="7.25515">
        <ele>757.41925</ele>
        <time>2011-11-12T14:19:33Z</time>
      </trkpt>
      <trkpt lat="43.76848" lon="7.25494">
        <ele>756.419212</ele>
        <time>2011-11-12T14:19:35Z</time>
      </trkpt>
      <trkpt lat="43.76851" lon="7.25475">
        <ele>755.419174</ele>
        <time>2011-11-12T14:19:37Z</time>
      </trkpt>
      <trkpt lat="43.76853" lon="7.25459">
        <ele>755.419147</ele>
        <time>2011-11-12T14:19:39Z</time>
      </trkpt>
      <trkpt lat="43.76855" lon="7.25451">
        <ele>755.419128</ele>
        <time>2011-11-12T14:19:40Z</time>
      </trkpt>
      <trkpt lat="43.7686" lon="7.25435">
        <ele>755.419106</ele>
        <time>2011-11-12T14:19:42Z</time>
      </trkpt>
      <trkpt lat="43.76866" lon="7.25417">
        <ele>754.419075</ele>
        <time>2011-11-12T14:19:44Z</time>
      </trkpt>
      <trkpt lat="43.76871" lon="7.25396">
        <ele>753.419037</ele>
        <time>2011-11-12T14:19:46Z</time>
      </trkpt>
      <trkpt lat="43.76873" lon="7.25379">
        <ele>752.418999</ele>
        <time>2011-11-12T14:19:48Z</time>
      </trkpt>
      <trkpt lat="43.76876" lon="7.25365">
        <ele>751.418976</ele>
        <time>2011-11-12T14:19:50Z</time>
      </trkpt>
      <trkpt lat="43.76881" lon="7.25351">
        <ele>751.418953</ele>
        <time>2011-11-12T14:19:52Z</time>
      </trkpt>
      <trkpt lat="43.76886" lon="7.25338">
        <ele>751.41893</ele>
        <time>2011-11-12T14:19:54Z</time>
      </trkpt>
      <trkpt lat="43.76894" lon="7.25325">
        <ele>750.418915</ele>
        <time>2011-11-12T14:19:56Z</time>
      </trkpt>
      <trkpt lat="43.76901" lon="7.25311">
        <ele>748.4189</ele>
        <time>2011-11-12T14:19:58Z</time>
      </trkpt>
      <trkpt lat="43.7691" lon="7.253">
        <ele>747.418888</ele>
        <time>2011-11-12T14:20:00Z</time>
      </trkpt>
      <trkpt lat="43.76919" lon="7.25289">
        <ele>745.418877</ele>
        <time>2011-11-12T14:20:02Z</time>
      </trkpt>
      <trkpt lat="43.76929" lon="7.25277">
        <ele>743.418865</ele>
        <time>2011-11-12T14:20:04Z</time>
      </trkpt>
      <trkpt lat="43.76937" lon="7.2526">
        <ele>740.418839</ele>
        <time>2011-11-12T14:20:06Z</time>
      </trkpt>
      <trkpt lat="43.76942" lon="7.25242">
        <ele>737.418808</ele>
        <time>2011-11-12T14:20:08Z</time>
      </trkpt>
      <trkpt lat="43.76944" lon="7.25235">
        <ele>736.418797</ele>
        <time>2011-11-12T14:20:09Z</time>
      </trkpt>
      <trkpt lat="43.76947" lon="7.25219">
        <ele>734.418766</ele>
        <time>2011-11-12T14:20:11Z</time>
      </trkpt>
      <trkpt lat="43.76948" lon="7.25206">
        <ele>732.418739</ele>
        <time>2011-11-12T14:20:13Z</time>
      </trkpt>
      <trkpt lat="43.76947" lon="7.25186">
        <ele>728.418694</ele>
        <time>2011-11-12T14:20:18Z</time>
      </trkpt>
      <trkpt lat="43.76949" lon="7.2517">
        <ele>725.418663</ele>
        <time>2011-11-12T14:20:21Z</time>
      </trkpt>
      <trkpt lat="43.76946" lon="7.25151">
        <ele>725.418621</ele>
        <time>2011-11-12T14:20:26Z</time>
      </trkpt>
      <trkpt lat="43.76936" lon="7.25144">
        <ele>725.418591</ele>
        <time>2011-11-12T14:20:29Z</time>
      </trkpt>
      <trkpt lat="43.76927" lon="7.25138">
        <ele>724.418564</ele>
        <time>2011-11-12T14:20:32Z</time>
      </trkpt>
      <trkpt lat="43.76918" lon="7.25129">
        <ele>723.418533</ele>
        <time>2011-11-12T14:20:36Z</time>
      </trkpt>
      <trkpt lat="43.76915" lon="7.25124">
        <ele>721.418518</ele>
        <time>2011-11-12T14:20:38Z</time>
      </trkpt>
      <trkpt lat="43.7691" lon="7.25111">
        <ele>720.418488</ele>
        <time>2011-11-12T14:20:42Z</time>
      </trkpt>
      <trkpt lat="43.76906" lon="7.25099">
        <ele>719.418457</ele>
        <time>2011-11-12T14:20:45Z</time>
      </trkpt>
      <trkpt lat="43.76902" lon="7.25086">
        <ele>718.418419</ele>
        <time>2011-11-12T14:20:48Z</time>
      </trkpt>
      <trkpt lat="43.769" lon="7.25068">
        <ele>713.418385</ele>
        <time>2011-11-12T14:20:51Z</time>
      </trkpt>
      <trkpt lat="43.76899" lon="7.25062">
        <ele>712.418365</ele>
        <time>2011-11-12T14:20:52Z</time>
      </trkpt>
      <trkpt lat="43.76898" lon="7.25048">
        <ele>711.418335</ele>
        <time>2011-11-12T14:20:54Z</time>
      </trkpt>
      <trkpt lat="43.76891" lon="7.25035">
        <ele>711.418297</ele>
        <time>2011-11-12T14:20:57Z</time>
      </trkpt>
      <trkpt lat="43.76878" lon="7.25033">
        <ele>710.418274</ele>
        <time>2011-11-12T14:21:00Z</time>
      </trkpt>
      <trkpt lat="43.76869" lon="7.25034">
        <ele>709.41827</ele>
        <time>2011-11-12T14:21:02Z</time>
      </trkpt>
      <trkpt lat="43.7686" lon="7.25036">
        <ele>709.418259</ele>
        <time>2011-11-12T14:21:04Z</time>
      </trkpt>
      <trkpt lat="43.76851" lon="7.25037">
        <ele>708.418247</ele>
        <time>2011-11-12T14:21:06Z</time>
      </trkpt>
      <trkpt lat="43.76841" lon="7.25039">
        <ele>706.418236</ele>
        <time>2011-11-12T14:21:08Z</time>
      </trkpt>
      <trkpt lat="43.7683" lon="7.25039">
        <ele>704.418224</ele>
        <time>2011-11-12T14:21:11Z</time>
      </trkpt>
      <trkpt lat="43.76827" lon="7.25039">
        <ele>704.418221</ele>
        <time>2011-11-12T14:21:12Z</time>
      </trkpt>
      <trkpt lat="43.76817" lon="7.25037">
        <ele>701.418198</ele>
        <time>2011-11-12T14:21:16Z</time>
      </trkpt>
      <trkpt lat="43.76804" lon="7.25034">
        <ele>682.418175</ele>
        <time>2011-11-12T14:22:02Z</time>
      </trkpt>
      <trkpt lat="43.76793" lon="7.2503">
        <ele>681.418156</ele>
        <time>2011-11-12T14:22:07Z</time>
      </trkpt>
      <trkpt lat="43.76781" lon="7.25032">
        <ele>681.41814</ele>
        <time>2011-11-12T14:22:10Z</time>
      </trkpt>
      <trkpt lat="43.76772" lon="7.25034">
        <ele>681.418137</ele>
        <time>2011-11-12T14:22:12Z</time>
      </trkpt>
      <trkpt lat="43.76762" lon="7.25038">
        <ele>680.418129</ele>
        <time>2011-11-12T14:22:14Z</time>
      </trkpt>
      <trkpt lat="43.76753" lon="7.25042">
        <ele>680.418129</ele>
        <time>2011-11-12T14:22:16Z</time>
      </trkpt>
      <trkpt lat="43.76743" lon="7.25046">
        <ele>679.418118</ele>
        <time>2011-11-12T14:22:19Z</time>
      </trkpt>
      <trkpt lat="43.76736" lon="7.25048">
        <ele>678.418114</ele>
        <time>2011-11-12T14:22:21Z</time>
      </trkpt>
      <trkpt lat="43.76725" lon="7.25048">
        <ele>677.418098</ele>
        <time>2011-11-12T14:22:25Z</time>
      </trkpt>
      <trkpt lat="43.76715" lon="7.25047">
        <ele>676.418083</ele>
        <time>2011-11-12T14:22:28Z</time>
      </trkpt>
      <trkpt lat="43.76705" lon="7.25047">
        <ele>675.418068</ele>
        <time>2011-11-12T14:22:31Z</time>
      </trkpt>
      <trkpt lat="43.76694" lon="7.25045">
        <ele>677.418049</ele>
        <time>2011-11-12T14:22:35Z</time>
      </trkpt>
      <trkpt lat="43.76683" lon="7.25051">
        <ele>678.418045</ele>
        <time>2011-11-12T14:22:39Z</time>
      </trkpt>
      <trkpt lat="43.76676" lon="7.25063">
        <ele>678.41806</ele>
        <time>2011-11-12T14:22:42Z</time>
      </trkpt>
      <trkpt lat="43.76668" lon="7.25075">
        <ele>678.418076</ele>
        <time>2011-11-12T14:22:45Z</time>
      </trkpt>
      <trkpt lat="43.76657" lon="7.25082">
        <ele>676.418079</ele>
        <time>2011-11-12T14:22:48Z</time>
      </trkpt>
      <trkpt lat="43.76648" lon="7.25086">
        <ele>676.418076</ele>
        <time>2011-11-12T14:22:50Z</time>
      </trkpt>
      <trkpt lat="43.76635" lon="7.25089">
        <ele>675.41806</ele>
        <time>2011-11-12T14:22:53Z</time>
      </trkpt>
      <trkpt lat="43.76622" lon="7.2509">
        <ele>674.418045</ele>
        <time>2011-11-12T14:22:56Z</time>
      </trkpt>
      <trkpt lat="43.76613" lon="7.25091">
        <ele>673.418034</ele>
        <time>2011-11-12T14:22:58Z</time>
      </trkpt>
      <trkpt lat="43.766" lon="7.25094">
        <ele>673.418022</ele>
        <time>2011-11-12T14:23:01Z</time>
      </trkpt>
      <trkpt lat="43.76587" lon="7.25099">
        <ele>673.418018</ele>
        <time>2011-11-12T14:23:04Z</time>
      </trkpt>
      <trkpt lat="43.76583" lon="7.251">
        <ele>672.418015</ele>
        <time>2011-11-12T14:23:05Z</time>
      </trkpt>
      <trkpt lat="43.76573" lon="7.25105">
        <ele>672.418007</ele>
        <time>2011-11-12T14:23:07Z</time>
      </trkpt>
      <trkpt lat="43.7656" lon="7.25111">
        <ele>672.418007</ele>
        <time>2011-11-12T14:23:09Z</time>
      </trkpt>
      <trkpt lat="43.76548" lon="7.25118">
        <ele>671.418007</ele>
        <time>2011-11-12T14:23:11Z</time>
      </trkpt>
      <trkpt lat="43.76537" lon="7.25121">
        <ele>670.417992</ele>
        <time>2011-11-12T14:23:13Z</time>
      </trkpt>
      <trkpt lat="43.76527" lon="7.25119">
        <ele>668.417976</ele>
        <time>2011-11-12T14:23:15Z</time>
      </trkpt>
      <trkpt lat="43.76517" lon="7.25115">
        <ele>665.417953</ele>
        <time>2011-11-12T14:23:17Z</time>
      </trkpt>
      <trkpt lat="43.76505" lon="7.2511">
        <ele>663.417927</ele>
        <time>2011-11-12T14:23:20Z</time>
      </trkpt>
      <trkpt lat="43.76493" lon="7.25105">
        <ele>662.4179</ele>
        <time>2011-11-12T14:23:23Z</time>
      </trkpt>
      <trkpt lat="43.76481" lon="7.25102">
        <ele>661.417877</ele>
        <time>2011-11-12T14:23:26Z</time>
      </trkpt>
      <trkpt lat="43.76478" lon="7.25101">
        <ele>661.41787</ele>
        <time>2011-11-12T14:23:27Z</time>
      </trkpt>
      <trkpt lat="43.76466" lon="7.25102">
        <ele>660.417854</ele>
        <time>2011-11-12T14:23:30Z</time>
      </trkpt>
      <trkpt lat="43.76462" lon="7.25103">
        <ele>660.417854</ele>
        <time>2011-11-12T14:23:31Z</time>
      </trkpt>
      <trkpt lat="43.7645" lon="7.25105">
        <ele>658.417847</ele>
        <time>2011-11-12T14:23:34Z</time>
      </trkpt>
      <trkpt lat="43.76439" lon="7.25112">
        <ele>656.417839</ele>
        <time>2011-11-12T14:23:37Z</time>
      </trkpt>
      <trkpt lat="43.76428" lon="7.25119">
        <ele>653.417839</ele>
        <time>2011-11-12T14:23:40Z</time>
      </trkpt>
      <trkpt lat="43.76416" lon="7.25124">
        <ele>650.417839</ele>
        <time>2011-11-12T14:23:43Z</time>
      </trkpt>
      <trkpt lat="43.76404" lon="7.2513">
        <ele>649.417831</ele>
        <time>2011-11-12T14:23:46Z</time>
      </trkpt>
      <trkpt lat="43.76393" lon="7.25138">
        <ele>647.417831</ele>
        <time>2011-11-12T14:23:49Z</time>
      </trkpt>
      <trkpt lat="43.76389" lon="7.25141">
        <ele>647.417835</ele>
        <time>2011-11-12T14:23:50Z</time>
      </trkpt>
      <trkpt lat="43.76378" lon="7.2515">
        <ele>647.417835</ele>
        <time>2011-11-12T14:23:53Z</time>
      </trkpt>
      <trkpt lat="43.76369" lon="7.25159">
        <ele>646.417847</ele>
        <time>2011-11-12T14:23:56Z</time>
      </trkpt>
      <trkpt lat="43.76361" lon="7.25166">
        <ele>644.417847</ele>
        <time>2011-11-12T14:23:59Z</time>
      </trkpt>
      <trkpt lat="43.76359" lon="7.25169">
        <ele>642.417847</ele>
        <time>2011-11-12T14:24:03Z</time>
      </trkpt>
      <trkpt lat="43.7635" lon="7.25174">
        <ele>624.41785</ele>
        <time>2011-11-12T14:28:19Z</time>
      </trkpt>
      <trkpt lat="43.76341" lon="7.25171">
        <ele>624.417831</ele>
        <time>2011-11-12T14:28:22Z</time>
      </trkpt>
      <trkpt lat="43.76333" lon="7.25164">
        <ele>624.417805</ele>
        <time>2011-11-12T14:28:26Z</time>
      </trkpt>
      <trkpt lat="43.76325" lon="7.25155">
        <ele>624.417778</ele>
        <time>2011-11-12T14:28:31Z</time>
      </trkpt>
      <trkpt lat="43.76316" lon="7.25148">
        <ele>623.417747</ele>
        <time>2011-11-12T14:28:36Z</time>
      </trkpt>
      <trkpt lat="43.76312" lon="7.25135">
        <ele>622.417717</ele>
        <time>2011-11-12T14:28:41Z</time>
      </trkpt>
      <trkpt lat="43.76312" lon="7.25122">
        <ele>621.417686</ele>
        <time>2011-11-12T14:28:45Z</time>
      </trkpt>
      <trkpt lat="43.76308" lon="7.2511">
        <ele>620.417656</ele>
        <time>2011-11-12T14:28:50Z</time>
      </trkpt>
      <trkpt lat="43.76296" lon="7.25105">
        <ele>620.417629</ele>
        <time>2011-11-12T14:28:54Z</time>
      </trkpt>
      <trkpt lat="43.76288" lon="7.25105">
        <ele>618.417618</ele>
        <time>2011-11-12T14:28:57Z</time>
      </trkpt>
      <trkpt lat="43.76278" lon="7.25104">
        <ele>615.417603</ele>
        <time>2011-11-12T14:29:01Z</time>
      </trkpt>
      <trkpt lat="43.76269" lon="7.25099">
        <ele>611.41758</ele>
        <time>2011-11-12T14:29:06Z</time>
      </trkpt>
      <trkpt lat="43.7626" lon="7.25093">
        <ele>605.417557</ele>
        <time>2011-11-12T14:29:11Z</time>
      </trkpt>
      <trkpt lat="43.76253" lon="7.25083">
        <ele>599.417526</ele>
        <time>2011-11-12T14:29:17Z</time>
      </trkpt>
      <trkpt lat="43.76252" lon="7.25073">
        <ele>597.4175</ele>
        <time>2011-11-12T14:29:21Z</time>
      </trkpt>
      <trkpt lat="43.76256" lon="7.2506">
        <ele>594.417477</ele>
        <time>2011-11-12T14:29:25Z</time>
      </trkpt>
      <trkpt lat="43.7626" lon="7.25047">
        <ele>592.417454</ele>
        <time>2011-11-12T14:29:29Z</time>
      </trkpt>
      <trkpt lat="43.76251" lon="7.25041">
        <ele>589.417431</ele>
        <time>2011-11-12T14:29:33Z</time>
      </trkpt>
      <trkpt lat="43.76249" lon="7.2504">
        <ele>589.417427</ele>
        <time>2011-11-12T14:29:34Z</time>
      </trkpt>
      <trkpt lat="43.76241" lon="7.25033">
        <ele>585.4174</ele>
        <time>2011-11-12T14:29:39Z</time>
      </trkpt>
      <trkpt lat="43.76235" lon="7.25022">
        <ele>580.41737</ele>
        <time>2011-11-12T14:29:45Z</time>
      </trkpt>
      <trkpt lat="43.76228" lon="7.25014">
        <ele>577.417343</ele>
        <time>2011-11-12T14:29:50Z</time>
      </trkpt>
      <trkpt lat="43.7622" lon="7.25006">
        <ele>572.417313</ele>
        <time>2011-11-12T14:29:56Z</time>
      </trkpt>
      <trkpt lat="43.76211" lon="7.24999">
        <ele>566.417286</ele>
        <time>2011-11-12T14:30:01Z</time>
      </trkpt>
      <trkpt lat="43.76208" lon="7.24998">
        <ele>564.417282</ele>
        <time>2011-11-12T14:30:02Z</time>
      </trkpt>
      <trkpt lat="43.762" lon="7.24991">
        <ele>558.417255</ele>
        <time>2011-11-12T14:30:07Z</time>
      </trkpt>
      <trkpt lat="43.7619" lon="7.24987">
        <ele>554.417236</ele>
        <time>2011-11-12T14:30:11Z</time>
      </trkpt>
      <trkpt lat="43.76183" lon="7.24977">
        <ele>550.417206</ele>
        <time>2011-11-12T14:30:17Z</time>
      </trkpt>
      <trkpt lat="43.7618" lon="7.24965">
        <ele>546.417168</ele>
        <time>2011-11-12T14:30:22Z</time>
      </trkpt>
      <trkpt lat="43.7617" lon="7.2496">
        <ele>542.417152</ele>
        <time>2011-11-12T14:30:27Z</time>
      </trkpt>
      <trkpt lat="43.7617" lon="7.2496">
        <ele>542.417152</ele>
        <time>2011-11-12T14:30:28Z</time>
      </trkpt>
      <trkpt lat="43.76172" lon="7.24946">
        <ele>537.417122</ele>
        <time>2011-11-12T14:30:34Z</time>
      </trkpt>
      <trkpt lat="43.76176" lon="7.24935">
        <ele>534.417103</ele>
        <time>2011-11-12T14:30:37Z</time>
      </trkpt>
      <trkpt lat="43.76177" lon="7.24931">
        <ele>533.417095</ele>
        <time>2011-11-12T14:30:38Z</time>
      </trkpt>
      <trkpt lat="43.76182" lon="7.2492">
        <ele>530.417084</ele>
        <time>2011-11-12T14:30:41Z</time>
      </trkpt>
      <trkpt lat="43.7618" lon="7.24906">
        <ele>524.417053</ele>
        <time>2011-11-12T14:30:46Z</time>
      </trkpt>
      <trkpt lat="43.76174" lon="7.249">
        <ele>521.417023</ele>
        <time>2011-11-12T14:30:49Z</time>
      </trkpt>
      <trkpt lat="43.76163" lon="7.24896">
        <ele>518.417004</ele>
        <time>2011-11-12T14:30:52Z</time>
      </trkpt>
      <trkpt lat="43.76153" lon="7.24894">
        <ele>515.416985</ele>
        <time>2011-11-12T14:30:55Z</time>
      </trkpt>
      <trkpt lat="43.76148" lon="7.24887">
        <ele>512.416965</ele>
        <time>2011-11-12T14:30:58Z</time>
      </trkpt>
      <trkpt lat="43.76144" lon="7.24874">
        <ele>511.416931</ele>
        <time>2011-11-12T14:31:02Z</time>
      </trkpt>
      <trkpt lat="43.76138" lon="7.24871">
        <ele>511.416916</ele>
        <time>2011-11-12T14:31:04Z</time>
      </trkpt>
      <trkpt lat="43.76127" lon="7.24869">
        <ele>511.416897</ele>
        <time>2011-11-12T14:31:07Z</time>
      </trkpt>
      <trkpt lat="43.76116" lon="7.24869">
        <ele>509.416882</ele>
        <time>2011-11-12T14:31:10Z</time>
      </trkpt>
      <trkpt lat="43.76105" lon="7.2487">
        <ele>505.41687</ele>
        <time>2011-11-12T14:31:13Z</time>
      </trkpt>
      <trkpt lat="43.76098" lon="7.24871">
        <ele>503.416862</ele>
        <time>2011-11-12T14:31:15Z</time>
      </trkpt>
      <trkpt lat="43.76089" lon="7.24875">
        <ele>499.416855</ele>
        <time>2011-11-12T14:31:18Z</time>
      </trkpt>
      <trkpt lat="43.76078" lon="7.2488">
        <ele>496.416855</ele>
        <time>2011-11-12T14:31:22Z</time>
      </trkpt>
      <trkpt lat="43.76069" lon="7.24884">
        <ele>494.416847</ele>
        <time>2011-11-12T14:31:25Z</time>
      </trkpt>
      <trkpt lat="43.7606" lon="7.24891">
        <ele>492.416855</ele>
        <time>2011-11-12T14:31:28Z</time>
      </trkpt>
      <trkpt lat="43.76055" lon="7.24895">
        <ele>490.416855</ele>
        <time>2011-11-12T14:31:30Z</time>
      </trkpt>
      <trkpt lat="43.76044" lon="7.24899">
        <ele>488.416847</ele>
        <time>2011-11-12T14:31:34Z</time>
      </trkpt>
      <trkpt lat="43.76035" lon="7.24898">
        <ele>487.416832</ele>
        <time>2011-11-12T14:31:37Z</time>
      </trkpt>
      <trkpt lat="43.76025" lon="7.24894">
        <ele>485.416809</ele>
        <time>2011-11-12T14:31:41Z</time>
      </trkpt>
      <trkpt lat="43.76022" lon="7.24881">
        <ele>483.416779</ele>
        <time>2011-11-12T14:31:47Z</time>
      </trkpt>
      <trkpt lat="43.7602" lon="7.24878">
        <ele>483.416771</ele>
        <time>2011-11-12T14:31:48Z</time>
      </trkpt>
      <trkpt lat="43.76014" lon="7.24868">
        <ele>481.41674</ele>
        <time>2011-11-12T14:31:51Z</time>
      </trkpt>
      <trkpt lat="43.76007" lon="7.24855">
        <ele>480.416702</ele>
        <time>2011-11-12T14:31:54Z</time>
      </trkpt>
      <trkpt lat="43.76003" lon="7.24839">
        <ele>477.41666</ele>
        <time>2011-11-12T14:31:57Z</time>
      </trkpt>
      <trkpt lat="43.75999" lon="7.24829">
        <ele>477.416634</ele>
        <time>2011-11-12T14:31:59Z</time>
      </trkpt>
      <trkpt lat="43.75995" lon="7.24817">
        <ele>476.416607</ele>
        <time>2011-11-12T14:32:02Z</time>
      </trkpt>
      <trkpt lat="43.75993" lon="7.24802">
        <ele>473.416569</ele>
        <time>2011-11-12T14:32:06Z</time>
      </trkpt>
      <trkpt lat="43.75994" lon="7.24787">
        <ele>471.416534</ele>
        <time>2011-11-12T14:32:10Z</time>
      </trkpt>
      <trkpt lat="43.75995" lon="7.24775">
        <ele>468.416519</ele>
        <time>2011-11-12T14:32:14Z</time>
      </trkpt>
      <trkpt lat="43.75995" lon="7.24761">
        <ele>463.416485</ele>
        <time>2011-11-12T14:32:20Z</time>
      </trkpt>
      <trkpt lat="43.75993" lon="7.24759">
        <ele>462.416473</ele>
        <time>2011-11-12T14:32:21Z</time>
      </trkpt>
      <trkpt lat="43.75981" lon="7.24757">
        <ele>442.416458</ele>
        <time>2011-11-12T14:34:36Z</time>
      </trkpt>
      <trkpt lat="43.7597" lon="7.24755">
        <ele>443.416443</ele>
        <time>2011-11-12T14:34:39Z</time>
      </trkpt>
      <trkpt lat="43.75958" lon="7.24758">
        <ele>444.416428</ele>
        <time>2011-11-12T14:34:42Z</time>
      </trkpt>
      <trkpt lat="43.75947" lon="7.24768">
        <ele>446.416435</ele>
        <time>2011-11-12T14:34:45Z</time>
      </trkpt>
      <trkpt lat="43.75941" lon="7.24778">
        <ele>446.416451</ele>
        <time>2011-11-12T14:34:47Z</time>
      </trkpt>
      <trkpt lat="43.75936" lon="7.2479">
        <ele>447.416466</ele>
        <time>2011-11-12T14:34:49Z</time>
      </trkpt>
      <trkpt lat="43.7593" lon="7.24806">
        <ele>447.416492</ele>
        <time>2011-11-12T14:34:52Z</time>
      </trkpt>
      <trkpt lat="43.75926" lon="7.24822">
        <ele>448.416527</ele>
        <time>2011-11-12T14:34:55Z</time>
      </trkpt>
      <trkpt lat="43.75921" lon="7.24834">
        <ele>447.416542</ele>
        <time>2011-11-12T14:34:58Z</time>
      </trkpt>
      <trkpt lat="43.75919" lon="7.24837">
        <ele>446.416546</ele>
        <time>2011-11-12T14:34:59Z</time>
      </trkpt>
      <trkpt lat="43.75915" lon="7.2485">
        <ele>446.416565</ele>
        <time>2011-11-12T14:35:02Z</time>
      </trkpt>
      <trkpt lat="43.75914" lon="7.24854">
        <ele>446.416573</ele>
        <time>2011-11-12T14:35:03Z</time>
      </trkpt>
      <trkpt lat="43.75911" lon="7.24868">
        <ele>446.416603</ele>
        <time>2011-11-12T14:35:07Z</time>
      </trkpt>
      <trkpt lat="43.75909" lon="7.24883">
        <ele>446.41663</ele>
        <time>2011-11-12T14:35:14Z</time>
      </trkpt>
      <trkpt lat="43.75909" lon="7.24887">
        <ele>445.416634</ele>
        <time>2011-11-12T14:35:15Z</time>
      </trkpt>
      <trkpt lat="43.75905" lon="7.24901">
        <ele>444.41666</ele>
        <time>2011-11-12T14:35:18Z</time>
      </trkpt>
      <trkpt lat="43.75897" lon="7.24919">
        <ele>441.416687</ele>
        <time>2011-11-12T14:35:22Z</time>
      </trkpt>
      <trkpt lat="43.75891" lon="7.24931">
        <ele>439.416706</ele>
        <time>2011-11-12T14:35:25Z</time>
      </trkpt>
      <trkpt lat="43.75884" lon="7.24941">
        <ele>439.416718</ele>
        <time>2011-11-12T14:35:28Z</time>
      </trkpt>
      <trkpt lat="43.75882" lon="7.24943">
        <ele>439.416718</ele>
        <time>2011-11-12T14:35:29Z</time>
      </trkpt>
      <trkpt lat="43.75873" lon="7.24953">
        <ele>440.416725</ele>
        <time>2011-11-12T14:35:33Z</time>
      </trkpt>
      <trkpt lat="43.75865" lon="7.24961">
        <ele>441.416733</ele>
        <time>2011-11-12T14:35:38Z</time>
      </trkpt>
      <trkpt lat="43.75858" lon="7.2497">
        <ele>443.41674</ele>
        <time>2011-11-12T14:35:46Z</time>
      </trkpt>
      <trkpt lat="43.75854" lon="7.24974">
        <ele>443.416744</ele>
        <time>2011-11-12T14:35:51Z</time>
      </trkpt>
      <trkpt lat="43.75842" lon="7.24984">
        <ele>443.416748</ele>
        <time>2011-11-12T14:36:02Z</time>
      </trkpt>
      <trkpt lat="43.75831" lon="7.24989">
        <ele>444.416748</ele>
        <time>2011-11-12T14:36:08Z</time>
      </trkpt>
      <trkpt lat="43.75822" lon="7.24993">
        <ele>445.41674</ele>
        <time>2011-11-12T14:36:13Z</time>
      </trkpt>
      <trkpt lat="43.7582" lon="7.24994">
        <ele>445.41674</ele>
        <time>2011-11-12T14:36:14Z</time>
      </trkpt>
      <trkpt lat="43.75809" lon="7.24998">
        <ele>445.416733</ele>
        <time>2011-11-12T14:36:17Z</time>
      </trkpt>
      <trkpt lat="43.75802" lon="7.25003">
        <ele>446.416733</ele>
        <time>2011-11-12T14:36:19Z</time>
      </trkpt>
      <trkpt lat="43.75792" lon="7.2501">
        <ele>447.416737</ele>
        <time>2011-11-12T14:36:22Z</time>
      </trkpt>
      <trkpt lat="43.75783" lon="7.25017">
        <ele>447.41674</ele>
        <time>2011-11-12T14:36:25Z</time>
      </trkpt>
      <trkpt lat="43.75775" lon="7.25024">
        <ele>447.41674</ele>
        <time>2011-11-12T14:36:28Z</time>
      </trkpt>
      <trkpt lat="43.75765" lon="7.25031">
        <ele>447.41674</ele>
        <time>2011-11-12T14:36:32Z</time>
      </trkpt>
      <trkpt lat="43.75756" lon="7.25038">
        <ele>448.416748</ele>
        <time>2011-11-12T14:36:36Z</time>
      </trkpt>
      <trkpt lat="43.75754" lon="7.2504">
        <ele>447.416748</ele>
        <time>2011-11-12T14:36:37Z</time>
      </trkpt>
      <trkpt lat="43.75746" lon="7.25048">
        <ele>447.416752</ele>
        <time>2011-11-12T14:36:41Z</time>
      </trkpt>
      <trkpt lat="43.75741" lon="7.25053">
        <ele>446.416759</ele>
        <time>2011-11-12T14:36:43Z</time>
      </trkpt>
      <trkpt lat="43.75733" lon="7.25061">
        <ele>445.416763</ele>
        <time>2011-11-12T14:36:47Z</time>
      </trkpt>
      <trkpt lat="43.75723" lon="7.25068">
        <ele>443.416763</ele>
        <time>2011-11-12T14:36:52Z</time>
      </trkpt>
      <trkpt lat="43.75714" lon="7.25074">
        <ele>442.416763</ele>
        <time>2011-11-12T14:36:57Z</time>
      </trkpt>
      <trkpt lat="43.75712" lon="7.25075">
        <ele>442.416763</ele>
        <time>2011-11-12T14:36:58Z</time>
      </trkpt>
      <trkpt lat="43.75704" lon="7.25082">
        <ele>442.416767</ele>
        <time>2011-11-12T14:37:03Z</time>
      </trkpt>
      <trkpt lat="43.75692" lon="7.25093">
        <ele>442.416771</ele>
        <time>2011-11-12T14:37:11Z</time>
      </trkpt>
      <trkpt lat="43.75684" lon="7.25099">
        <ele>443.416779</ele>
        <time>2011-11-12T14:37:16Z</time>
      </trkpt>
      <trkpt lat="43.75676" lon="7.25107">
        <ele>446.416782</ele>
        <time>2011-11-12T14:37:22Z</time>
      </trkpt>
      <trkpt lat="43.75676" lon="7.25107">
        <ele>446.416782</ele>
        <time>2011-11-12T14:37:24Z</time>
      </trkpt>
      <trkpt lat="43.75666" lon="7.2512">
        <ele>448.416794</ele>
        <time>2011-11-12T14:37:33Z</time>
      </trkpt>
      <trkpt lat="43.75659" lon="7.25126">
        <ele>449.416801</ele>
        <time>2011-11-12T14:37:39Z</time>
      </trkpt>
      <trkpt lat="43.75651" lon="7.25133">
        <ele>449.416805</ele>
        <time>2011-11-12T14:37:44Z</time>
      </trkpt>
      <trkpt lat="43.75643" lon="7.25139">
        <ele>449.416805</ele>
        <time>2011-11-12T14:37:48Z</time>
      </trkpt>
      <trkpt lat="43.75633" lon="7.25144">
        <ele>448.416801</ele>
        <time>2011-11-12T14:37:52Z</time>
      </trkpt>
      <trkpt lat="43.75622" lon="7.25149">
        <ele>448.416798</ele>
        <time>2011-11-12T14:37:56Z</time>
      </trkpt>
      <trkpt lat="43.75617" lon="7.25151">
        <ele>448.416794</ele>
        <time>2011-11-12T14:37:58Z</time>
      </trkpt>
      <trkpt lat="43.75607" lon="7.25155">
        <ele>449.416786</ele>
        <time>2011-11-12T14:38:02Z</time>
      </trkpt>
      <trkpt lat="43.75599" lon="7.25161">
        <ele>448.41679</ele>
        <time>2011-11-12T14:38:06Z</time>
      </trkpt>
      <trkpt lat="43.75597" lon="7.25162">
        <ele>448.416794</ele>
        <time>2011-11-12T14:38:07Z</time>
      </trkpt>
      <trkpt lat="43.75587" lon="7.25168">
        <ele>447.41679</ele>
        <time>2011-11-12T14:38:14Z</time>
      </trkpt>
      <trkpt lat="43.75576" lon="7.25172">
        <ele>447.416782</ele>
        <time>2011-11-12T14:38:19Z</time>
      </trkpt>
      <trkpt lat="43.75567" lon="7.25175">
        <ele>448.416779</ele>
        <time>2011-11-12T14:38:23Z</time>
      </trkpt>
      <trkpt lat="43.75556" lon="7.25177">
        <ele>447.416767</ele>
        <time>2011-11-12T14:38:28Z</time>
      </trkpt>
      <trkpt lat="43.75547" lon="7.25178">
        <ele>449.416756</ele>
        <time>2011-11-12T14:38:33Z</time>
      </trkpt>
      <trkpt lat="43.75543" lon="7.25181">
        <ele>449.416756</ele>
        <time>2011-11-12T14:38:35Z</time>
      </trkpt>
      <trkpt lat="43.75536" lon="7.25192">
        <ele>448.416767</ele>
        <time>2011-11-12T14:38:41Z</time>
      </trkpt>
      <trkpt lat="43.7553" lon="7.25202">
        <ele>447.416786</ele>
        <time>2011-11-12T14:38:46Z</time>
      </trkpt>
      <trkpt lat="43.75524" lon="7.25212">
        <ele>447.416794</ele>
        <time>2011-11-12T14:38:51Z</time>
      </trkpt>
      <trkpt lat="43.75518" lon="7.25222">
        <ele>445.416805</ele>
        <time>2011-11-12T14:38:56Z</time>
      </trkpt>
      <trkpt lat="43.7551" lon="7.2523">
        <ele>443.416813</ele>
        <time>2011-11-12T14:39:01Z</time>
      </trkpt>
      <trkpt lat="43.75509" lon="7.25232">
        <ele>443.416817</ele>
        <time>2011-11-12T14:39:02Z</time>
      </trkpt>
      <trkpt lat="43.75501" lon="7.25241">
        <ele>443.416824</ele>
        <time>2011-11-12T14:39:08Z</time>
      </trkpt>
      <trkpt lat="43.75494" lon="7.25248">
        <ele>443.416832</ele>
        <time>2011-11-12T14:39:14Z</time>
      </trkpt>
      <trkpt lat="43.75485" lon="7.25242">
        <ele>443.416809</ele>
        <time>2011-11-12T14:39:21Z</time>
      </trkpt>
      <trkpt lat="43.75476" lon="7.25234">
        <ele>444.416779</ele>
        <time>2011-11-12T14:39:25Z</time>
      </trkpt>
      <trkpt lat="43.75466" lon="7.25229">
        <ele>444.416756</ele>
        <time>2011-11-12T14:39:29Z</time>
      </trkpt>
      <trkpt lat="43.75456" lon="7.25225">
        <ele>443.416729</ele>
        <time>2011-11-12T14:39:33Z</time>
      </trkpt>
      <trkpt lat="43.75446" lon="7.25221">
        <ele>442.41671</ele>
        <time>2011-11-12T14:39:37Z</time>
      </trkpt>
      <trkpt lat="43.75437" lon="7.25219">
        <ele>442.416691</ele>
        <time>2011-11-12T14:39:41Z</time>
      </trkpt>
      <trkpt lat="43.75426" lon="7.25217">
        <ele>442.416672</ele>
        <time>2011-11-12T14:39:46Z</time>
      </trkpt>
      <trkpt lat="43.75424" lon="7.25217">
        <ele>442.416664</ele>
        <time>2011-11-12T14:39:47Z</time>
      </trkpt>
      <trkpt lat="43.75414" lon="7.25217">
        <ele>442.416649</ele>
        <time>2011-11-12T14:39:51Z</time>
      </trkpt>
      <trkpt lat="43.75404" lon="7.25222">
        <ele>442.416653</ele>
        <time>2011-11-12T14:39:55Z</time>
      </trkpt>
      <trkpt lat="43.75396" lon="7.2523">
        <ele>442.416656</ele>
        <time>2011-11-12T14:39:59Z</time>
      </trkpt>
      <trkpt lat="43.75388" lon="7.25238">
        <ele>442.416664</ele>
        <time>2011-11-12T14:40:03Z</time>
      </trkpt>
      <trkpt lat="43.75381" lon="7.25248">
        <ele>440.416679</ele>
        <time>2011-11-12T14:40:07Z</time>
      </trkpt>
      <trkpt lat="43.75379" lon="7.2525">
        <ele>440.416679</ele>
        <time>2011-11-12T14:40:08Z</time>
      </trkpt>
      <trkpt lat="43.75374" lon="7.2526">
        <ele>438.416691</ele>
        <time>2011-11-12T14:40:12Z</time>
      </trkpt>
      <trkpt lat="43.75368" lon="7.25273">
        <ele>437.41671</ele>
        <time>2011-11-12T14:40:17Z</time>
      </trkpt>
      <trkpt lat="43.75367" lon="7.25275">
        <ele>437.416714</ele>
        <time>2011-11-12T14:40:18Z</time>
      </trkpt>
      <trkpt lat="43.75359" lon="7.25286">
        <ele>437.416725</ele>
        <time>2011-11-12T14:40:23Z</time>
      </trkpt>
      <trkpt lat="43.7535" lon="7.25292">
        <ele>438.416725</ele>
        <time>2011-11-12T14:40:27Z</time>
      </trkpt>
      <trkpt lat="43.75339" lon="7.25294">
        <ele>439.416718</ele>
        <time>2011-11-12T14:40:31Z</time>
      </trkpt>
      <trkpt lat="43.75335" lon="7.25294">
        <ele>440.41671</ele>
        <time>2011-11-12T14:40:32Z</time>
      </trkpt>
      <trkpt lat="43.75325" lon="7.25297">
        <ele>440.416702</ele>
        <time>2011-11-12T14:40:35Z</time>
      </trkpt>
      <trkpt lat="43.75314" lon="7.25299">
        <ele>440.416695</ele>
        <time>2011-11-12T14:40:38Z</time>
      </trkpt>
      <trkpt lat="43.75301" lon="7.25296">
        <ele>441.416668</ele>
        <time>2011-11-12T14:40:41Z</time>
      </trkpt>
      <trkpt lat="43.75296" lon="7.25295">
        <ele>441.416656</ele>
        <time>2011-11-12T14:40:42Z</time>
      </trkpt>
      <trkpt lat="43.75287" lon="7.25293">
        <ele>441.416641</ele>
        <time>2011-11-12T14:40:44Z</time>
      </trkpt>
      <trkpt lat="43.75278" lon="7.25291">
        <ele>440.416622</ele>
        <time>2011-11-12T14:40:46Z</time>
      </trkpt>
      <trkpt lat="43.75269" lon="7.25289">
        <ele>441.416611</ele>
        <time>2011-11-12T14:40:48Z</time>
      </trkpt>
      <trkpt lat="43.75256" lon="7.25292">
        <ele>440.416595</ele>
        <time>2011-11-12T14:40:51Z</time>
      </trkpt>
      <trkpt lat="43.75246" lon="7.25298">
        <ele>441.416595</ele>
        <time>2011-11-12T14:40:54Z</time>
      </trkpt>
      <trkpt lat="43.75238" lon="7.25308">
        <ele>441.416607</ele>
        <time>2011-11-12T14:40:58Z</time>
      </trkpt>
      <trkpt lat="43.75231" lon="7.25319">
        <ele>441.416618</ele>
        <time>2011-11-12T14:41:02Z</time>
      </trkpt>
      <trkpt lat="43.75231" lon="7.25319">
        <ele>441.416618</ele>
        <time>2011-11-12T14:41:05Z</time>
      </trkpt>
      <trkpt lat="43.75223" lon="7.25329">
        <ele>441.416626</ele>
        <time>2011-11-12T14:41:08Z</time>
      </trkpt>
      <trkpt lat="43.75199" lon="7.25346">
        <ele>438.416634</ele>
        <time>2011-11-12T14:41:20Z</time>
      </trkpt>
      <trkpt lat="43.75189" lon="7.25351">
        <ele>437.416634</ele>
        <time>2011-11-12T14:41:23Z</time>
      </trkpt>
      <trkpt lat="43.75186" lon="7.25353">
        <ele>436.416634</ele>
        <time>2011-11-12T14:41:24Z</time>
      </trkpt>
      <trkpt lat="43.75168" lon="7.2537">
        <ele>432.416641</ele>
        <time>2011-11-12T14:41:30Z</time>
      </trkpt>
      <trkpt lat="43.7516" lon="7.25379">
        <ele>432.416653</ele>
        <time>2011-11-12T14:41:34Z</time>
      </trkpt>
      <trkpt lat="43.75147" lon="7.25396">
        <ele>431.416664</ele>
        <time>2011-11-12T14:41:40Z</time>
      </trkpt>
      <trkpt lat="43.75138" lon="7.25409">
        <ele>431.416683</ele>
        <time>2011-11-12T14:41:43Z</time>
      </trkpt>
      <trkpt lat="43.75135" lon="7.25414">
        <ele>432.416687</ele>
        <time>2011-11-12T14:41:44Z</time>
      </trkpt>
      <trkpt lat="43.75129" lon="7.25424">
        <ele>433.416702</ele>
        <time>2011-11-12T14:41:46Z</time>
      </trkpt>
      <trkpt lat="43.75122" lon="7.25439">
        <ele>434.416725</ele>
        <time>2011-11-12T14:41:49Z</time>
      </trkpt>
      <trkpt lat="43.75117" lon="7.2545">
        <ele>434.416744</ele>
        <time>2011-11-12T14:41:51Z</time>
      </trkpt>
      <trkpt lat="43.75113" lon="7.25464">
        <ele>434.416767</ele>
        <time>2011-11-12T14:41:54Z</time>
      </trkpt>
      <trkpt lat="43.7511" lon="7.25479">
        <ele>433.416794</ele>
        <time>2011-11-12T14:41:57Z</time>
      </trkpt>
      <trkpt lat="43.75107" lon="7.25493">
        <ele>433.416817</ele>
        <time>2011-11-12T14:42:00Z</time>
      </trkpt>
      <trkpt lat="43.75096" lon="7.25505">
        <ele>427.416832</ele>
        <time>2011-11-12T14:42:08Z</time>
      </trkpt>
      <trkpt lat="43.75087" lon="7.25509">
        <ele>426.416832</ele>
        <time>2011-11-12T14:42:21Z</time>
      </trkpt>
      <trkpt lat="43.75077" lon="7.25509">
        <ele>423.416813</ele>
        <time>2011-11-12T14:42:39Z</time>
      </trkpt>
      <trkpt lat="43.75066" lon="7.25511">
        <ele>425.416801</ele>
        <time>2011-11-12T14:42:48Z</time>
      </trkpt>
      <trkpt lat="43.75056" lon="7.25514">
        <ele>425.416794</ele>
        <time>2011-11-12T14:42:55Z</time>
      </trkpt>
      <trkpt lat="43.75047" lon="7.25517">
        <ele>427.416786</ele>
        <time>2011-11-12T14:42:59Z</time>
      </trkpt>
      <trkpt lat="43.75034" lon="7.25522">
        <ele>426.416786</ele>
        <time>2011-11-12T14:43:03Z</time>
      </trkpt>
      <trkpt lat="43.75031" lon="7.25524">
        <ele>426.416779</ele>
        <time>2011-11-12T14:43:04Z</time>
      </trkpt>
      <trkpt lat="43.75019" lon="7.25528">
        <ele>427.416775</ele>
        <time>2011-11-12T14:43:07Z</time>
      </trkpt>
      <trkpt lat="43.75011" lon="7.25532">
        <ele>428.416767</ele>
        <time>2011-11-12T14:43:09Z</time>
      </trkpt>
      <trkpt lat="43.74998" lon="7.25535">
        <ele>426.416756</ele>
        <time>2011-11-12T14:43:19Z</time>
      </trkpt>
      <trkpt lat="43.74988" lon="7.25536">
        <ele>425.416748</ele>
        <time>2011-11-12T14:43:25Z</time>
      </trkpt>
      <trkpt lat="43.74978" lon="7.25538">
        <ele>424.41674</ele>
        <time>2011-11-12T14:43:28Z</time>
      </trkpt>
      <trkpt lat="43.74968" lon="7.25539">
        <ele>424.416725</ele>
        <time>2011-11-12T14:43:33Z</time>
      </trkpt>
      <trkpt lat="43.74964" lon="7.2554">
        <ele>425.416725</ele>
        <time>2011-11-12T14:43:35Z</time>
      </trkpt>
      <trkpt lat="43.74951" lon="7.25549">
        <ele>424.416725</ele>
        <time>2011-11-12T14:43:43Z</time>
      </trkpt>
      <trkpt lat="43.74941" lon="7.25551">
        <ele>422.416718</ele>
        <time>2011-11-12T14:43:49Z</time>
      </trkpt>
      <trkpt lat="43.7494" lon="7.25552">
        <ele>422.416714</ele>
        <time>2011-11-12T14:43:51Z</time>
      </trkpt>
      <trkpt lat="43.74928" lon="7.25553">
        <ele>421.416702</ele>
        <time>2011-11-12T14:43:56Z</time>
      </trkpt>
      <trkpt lat="43.74919" lon="7.25554">
        <ele>421.416687</ele>
        <time>2011-11-12T14:44:00Z</time>
      </trkpt>
      <trkpt lat="43.74903" lon="7.25558">
        <ele>424.416679</ele>
        <time>2011-11-12T14:44:07Z</time>
      </trkpt>
      <trkpt lat="43.74893" lon="7.25559">
        <ele>423.416664</ele>
        <time>2011-11-12T14:44:12Z</time>
      </trkpt>
      <trkpt lat="43.74884" lon="7.25558">
        <ele>422.416653</ele>
        <time>2011-11-12T14:44:16Z</time>
      </trkpt>
      <trkpt lat="43.74881" lon="7.25558">
        <ele>422.416649</ele>
        <time>2011-11-12T14:44:18Z</time>
      </trkpt>
      <trkpt lat="43.7487" lon="7.25559">
        <ele>422.416634</ele>
        <time>2011-11-12T14:44:21Z</time>
      </trkpt>
      <trkpt lat="43.74858" lon="7.2556">
        <ele>422.416622</ele>
        <time>2011-11-12T14:44:25Z</time>
      </trkpt>
      <trkpt lat="43.74847" lon="7.25561">
        <ele>421.416611</ele>
        <time>2011-11-12T14:44:28Z</time>
      </trkpt>
      <trkpt lat="43.74844" lon="7.25562">
        <ele>421.416603</ele>
        <time>2011-11-12T14:44:29Z</time>
      </trkpt>
      <trkpt lat="43.74834" lon="7.25561">
        <ele>422.416588</ele>
        <time>2011-11-12T14:44:33Z</time>
      </trkpt>
      <trkpt lat="43.74825" lon="7.2556">
        <ele>423.416573</ele>
        <time>2011-11-12T14:44:36Z</time>
      </trkpt>
      <trkpt lat="43.74813" lon="7.2556">
        <ele>425.416557</ele>
        <time>2011-11-12T14:44:39Z</time>
      </trkpt>
      <trkpt lat="43.748" lon="7.25562">
        <ele>425.416542</ele>
        <time>2011-11-12T14:44:42Z</time>
      </trkpt>
      <trkpt lat="43.74789" lon="7.25565">
        <ele>426.416534</ele>
        <time>2011-11-12T14:44:45Z</time>
      </trkpt>
      <trkpt lat="43.74778" lon="7.25566">
        <ele>426.416527</ele>
        <time>2011-11-12T14:44:48Z</time>
      </trkpt>
      <trkpt lat="43.74767" lon="7.25566">
        <ele>426.416508</ele>
        <time>2011-11-12T14:44:51Z</time>
      </trkpt>
      <trkpt lat="43.74754" lon="7.25567">
        <ele>427.416492</ele>
        <time>2011-11-12T14:44:54Z</time>
      </trkpt>
      <trkpt lat="43.7475" lon="7.25567">
        <ele>427.416489</ele>
        <time>2011-11-12T14:44:55Z</time>
      </trkpt>
      <trkpt lat="43.74739" lon="7.25567">
        <ele>427.416473</ele>
        <time>2011-11-12T14:44:57Z</time>
      </trkpt>
      <trkpt lat="43.74735" lon="7.25566">
        <ele>427.416466</ele>
        <time>2011-11-12T14:44:58Z</time>
      </trkpt>
      <trkpt lat="43.74724" lon="7.25565">
        <ele>427.416443</ele>
        <time>2011-11-12T14:45:00Z</time>
      </trkpt>
      <trkpt lat="43.7472" lon="7.25565">
        <ele>427.416439</ele>
        <time>2011-11-12T14:45:01Z</time>
      </trkpt>
      <trkpt lat="43.7471" lon="7.25564">
        <ele>428.416428</ele>
        <time>2011-11-12T14:45:03Z</time>
      </trkpt>
      <trkpt lat="43.74701" lon="7.25565">
        <ele>428.416412</ele>
        <time>2011-11-12T14:45:05Z</time>
      </trkpt>
      <trkpt lat="43.74692" lon="7.25567">
        <ele>429.416405</ele>
        <time>2011-11-12T14:45:07Z</time>
      </trkpt>
      <trkpt lat="43.7468" lon="7.25569">
        <ele>430.416393</ele>
        <time>2011-11-12T14:45:10Z</time>
      </trkpt>
      <trkpt lat="43.74671" lon="7.25574">
        <ele>430.416393</ele>
        <time>2011-11-12T14:45:13Z</time>
      </trkpt>
      <trkpt lat="43.74661" lon="7.2558">
        <ele>431.416393</ele>
        <time>2011-11-12T14:45:17Z</time>
      </trkpt>
      <trkpt lat="43.74653" lon="7.25583">
        <ele>430.416389</ele>
        <time>2011-11-12T14:45:21Z</time>
      </trkpt>
      <trkpt lat="43.74646" lon="7.25584">
        <ele>429.416382</ele>
        <time>2011-11-12T14:45:24Z</time>
      </trkpt>
      <trkpt lat="43.74637" lon="7.25586">
        <ele>430.416374</ele>
        <time>2011-11-12T14:45:28Z</time>
      </trkpt>
      <trkpt lat="43.74627" lon="7.25591">
        <ele>428.41637</ele>
        <time>2011-11-12T14:45:32Z</time>
      </trkpt>
      <trkpt lat="43.74614" lon="7.25594">
        <ele>427.416359</ele>
        <time>2011-11-12T14:45:35Z</time>
      </trkpt>
      <trkpt lat="43.74603" lon="7.25596">
        <ele>425.416348</ele>
        <time>2011-11-12T14:45:38Z</time>
      </trkpt>
      <trkpt lat="43.74592" lon="7.25598">
        <ele>425.416336</ele>
        <time>2011-11-12T14:45:41Z</time>
      </trkpt>
      <trkpt lat="43.74581" lon="7.25602">
        <ele>424.416325</ele>
        <time>2011-11-12T14:45:44Z</time>
      </trkpt>
      <trkpt lat="43.74572" lon="7.25608">
        <ele>424.416328</ele>
        <time>2011-11-12T14:45:47Z</time>
      </trkpt>
      <trkpt lat="43.74566" lon="7.25616">
        <ele>423.41634</ele>
        <time>2011-11-12T14:45:50Z</time>
      </trkpt>
      <trkpt lat="43.74554" lon="7.25636">
        <ele>421.416367</ele>
        <time>2011-11-12T14:46:01Z</time>
      </trkpt>
      <trkpt lat="43.74547" lon="7.25648">
        <ele>418.416382</ele>
        <time>2011-11-12T14:46:07Z</time>
      </trkpt>
      <trkpt lat="43.74542" lon="7.2566">
        <ele>417.416401</ele>
        <time>2011-11-12T14:46:12Z</time>
      </trkpt>
      <trkpt lat="43.74535" lon="7.25681">
        <ele>416.416435</ele>
        <time>2011-11-12T14:46:20Z</time>
      </trkpt>
      <trkpt lat="43.7453" lon="7.25698">
        <ele>416.416466</ele>
        <time>2011-11-12T14:46:25Z</time>
      </trkpt>
      <trkpt lat="43.74525" lon="7.2571">
        <ele>414.416481</ele>
        <time>2011-11-12T14:46:31Z</time>
      </trkpt>
      <trkpt lat="43.74513" lon="7.25718">
        <ele>411.416481</ele>
        <time>2011-11-12T14:46:43Z</time>
      </trkpt>
      <trkpt lat="43.74498" lon="7.25726">
        <ele>411.416473</ele>
        <time>2011-11-12T14:46:50Z</time>
      </trkpt>
      <trkpt lat="43.74489" lon="7.25732">
        <ele>410.416481</ele>
        <time>2011-11-12T14:46:54Z</time>
      </trkpt>
      <trkpt lat="43.74481" lon="7.2574">
        <ele>409.416489</ele>
        <time>2011-11-12T14:46:58Z</time>
      </trkpt>
      <trkpt lat="43.74473" lon="7.25749">
        <ele>409.416496</ele>
        <time>2011-11-12T14:47:02Z</time>
      </trkpt>
      <trkpt lat="43.74466" lon="7.25758">
        <ele>410.416504</ele>
        <time>2011-11-12T14:47:07Z</time>
      </trkpt>
      <trkpt lat="43.74461" lon="7.25769">
        <ele>410.416519</ele>
        <time>2011-11-12T14:47:11Z</time>
      </trkpt>
      <trkpt lat="43.74454" lon="7.25787">
        <ele>412.41655</ele>
        <time>2011-11-12T14:47:19Z</time>
      </trkpt>
      <trkpt lat="43.74443" lon="7.25806">
        <ele>413.416573</ele>
        <time>2011-11-12T14:47:28Z</time>
      </trkpt>
      <trkpt lat="43.74438" lon="7.25816">
        <ele>414.416588</ele>
        <time>2011-11-12T14:47:33Z</time>
      </trkpt>
      <trkpt lat="43.74433" lon="7.25828">
        <ele>417.416611</ele>
        <time>2011-11-12T14:47:37Z</time>
      </trkpt>
      <trkpt lat="43.7443" lon="7.25841">
        <ele>418.416626</ele>
        <time>2011-11-12T14:47:41Z</time>
      </trkpt>
      <trkpt lat="43.74429" lon="7.25861">
        <ele>416.416672</ele>
        <time>2011-11-12T14:47:46Z</time>
      </trkpt>
      <trkpt lat="43.74428" lon="7.25875">
        <ele>415.416702</ele>
        <time>2011-11-12T14:47:50Z</time>
      </trkpt>
      <trkpt lat="43.74431" lon="7.25891">
        <ele>414.41674</ele>
        <time>2011-11-12T14:47:55Z</time>
      </trkpt>
      <trkpt lat="43.74437" lon="7.25912">
        <ele>411.41679</ele>
        <time>2011-11-12T14:48:03Z</time>
      </trkpt>
      <trkpt lat="43.74438" lon="7.25926">
        <ele>408.416821</ele>
        <time>2011-11-12T14:48:09Z</time>
      </trkpt>
      <trkpt lat="43.74441" lon="7.2594">
        <ele>407.416855</ele>
        <time>2011-11-12T14:48:14Z</time>
      </trkpt>
      <trkpt lat="43.74444" lon="7.25955">
        <ele>404.416889</ele>
        <time>2011-11-12T14:48:18Z</time>
      </trkpt>
      <trkpt lat="43.74448" lon="7.25966">
        <ele>402.41692</ele>
        <time>2011-11-12T14:48:21Z</time>
      </trkpt>
      <trkpt lat="43.7445" lon="7.2597">
        <ele>402.416931</ele>
        <time>2011-11-12T14:48:22Z</time>
      </trkpt>
      <trkpt lat="43.74456" lon="7.2598">
        <ele>401.416962</ele>
        <time>2011-11-12T14:48:25Z</time>
      </trkpt>
      <trkpt lat="43.7446" lon="7.25992">
        <ele>400.416992</ele>
        <time>2011-11-12T14:48:28Z</time>
      </trkpt>
      <trkpt lat="43.74464" lon="7.26004">
        <ele>399.417023</ele>
        <time>2011-11-12T14:48:31Z</time>
      </trkpt>
      <trkpt lat="43.74466" lon="7.2601">
        <ele>398.417038</ele>
        <time>2011-11-12T14:48:33Z</time>
      </trkpt>
      <trkpt lat="43.74471" lon="7.26029">
        <ele>391.417084</ele>
        <time>2011-11-12T14:48:43Z</time>
      </trkpt>
      <trkpt lat="43.74471" lon="7.2603">
        <ele>390.417088</ele>
        <time>2011-11-12T14:48:44Z</time>
      </trkpt>
      <trkpt lat="43.74475" lon="7.26043">
        <ele>385.417122</ele>
        <time>2011-11-12T14:48:53Z</time>
      </trkpt>
      <trkpt lat="43.74481" lon="7.26057">
        <ele>384.41716</ele>
        <time>2011-11-12T14:48:58Z</time>
      </trkpt>
      <trkpt lat="43.74483" lon="7.26062">
        <ele>384.417175</ele>
        <time>2011-11-12T14:48:59Z</time>
      </trkpt>
      <trkpt lat="43.74488" lon="7.26073">
        <ele>384.417206</ele>
        <time>2011-11-12T14:49:01Z</time>
      </trkpt>
      <trkpt lat="43.74496" lon="7.26085">
        <ele>384.417244</ele>
        <time>2011-11-12T14:49:03Z</time>
      </trkpt>
      <trkpt lat="43.74506" lon="7.26099">
        <ele>383.417282</ele>
        <time>2011-11-12T14:49:05Z</time>
      </trkpt>
      <trkpt lat="43.74518" lon="7.26112">
        <ele>383.417328</ele>
        <time>2011-11-12T14:49:07Z</time>
      </trkpt>
      <trkpt lat="43.74523" lon="7.26117">
        <ele>383.417347</ele>
        <time>2011-11-12T14:49:08Z</time>
      </trkpt>
      <trkpt lat="43.74532" lon="7.26127">
        <ele>383.417381</ele>
        <time>2011-11-12T14:49:10Z</time>
      </trkpt>
      <trkpt lat="43.7454" lon="7.26136">
        <ele>382.417404</ele>
        <time>2011-11-12T14:49:12Z</time>
      </trkpt>
      <trkpt lat="43.74547" lon="7.26146">
        <ele>381.417442</ele>
        <time>2011-11-12T14:49:14Z</time>
      </trkpt>
      <trkpt lat="43.74554" lon="7.26159">
        <ele>380.41748</ele>
        <time>2011-11-12T14:49:17Z</time>
      </trkpt>
      <trkpt lat="43.74562" lon="7.2617">
        <ele>379.417511</ele>
        <time>2011-11-12T14:49:21Z</time>
      </trkpt>
      <trkpt lat="43.74566" lon="7.26183">
        <ele>377.417542</ele>
        <time>2011-11-12T14:49:28Z</time>
      </trkpt>
      <trkpt lat="43.74566" lon="7.26184">
        <ele>376.417549</ele>
        <time>2011-11-12T14:49:29Z</time>
      </trkpt>
      <trkpt lat="43.74561" lon="7.26195">
        <ele>375.417564</ele>
        <time>2011-11-12T14:49:36Z</time>
      </trkpt>
      <trkpt lat="43.74556" lon="7.26206">
        <ele>374.41758</ele>
        <time>2011-11-12T14:49:52Z</time>
      </trkpt>
      <trkpt lat="43.74548" lon="7.26213">
        <ele>369.417587</ele>
        <time>2011-11-12T14:49:58Z</time>
      </trkpt>
      <trkpt lat="43.74529" lon="7.26242">
        <ele>362.417622</ele>
        <time>2011-11-12T14:50:15Z</time>
      </trkpt>
      <trkpt lat="43.74519" lon="7.26248">
        <ele>360.417618</ele>
        <time>2011-11-12T14:50:19Z</time>
      </trkpt>
      <trkpt lat="43.74512" lon="7.26256">
        <ele>358.417625</ele>
        <time>2011-11-12T14:50:26Z</time>
      </trkpt>
      <trkpt lat="43.74501" lon="7.26267">
        <ele>357.417633</ele>
        <time>2011-11-12T14:50:28Z</time>
      </trkpt>
      <trkpt lat="43.74489" lon="7.26279">
        <ele>356.417641</ele>
        <time>2011-11-12T14:50:30Z</time>
      </trkpt>
      <trkpt lat="43.74478" lon="7.26292">
        <ele>355.417656</ele>
        <time>2011-11-12T14:50:32Z</time>
      </trkpt>
      <trkpt lat="43.74469" lon="7.26305">
        <ele>354.417671</ele>
        <time>2011-11-12T14:50:34Z</time>
      </trkpt>
      <trkpt lat="43.74458" lon="7.26315">
        <ele>355.417679</ele>
        <time>2011-11-12T14:50:36Z</time>
      </trkpt>
      <trkpt lat="43.74446" lon="7.26322">
        <ele>356.417679</ele>
        <time>2011-11-12T14:50:38Z</time>
      </trkpt>
      <trkpt lat="43.74433" lon="7.26328">
        <ele>358.417671</ele>
        <time>2011-11-12T14:50:40Z</time>
      </trkpt>
      <trkpt lat="43.74423" lon="7.26333">
        <ele>357.417671</ele>
        <time>2011-11-12T14:50:42Z</time>
      </trkpt>
      <trkpt lat="43.74422" lon="7.26343">
        <ele>355.417686</ele>
        <time>2011-11-12T14:50:45Z</time>
      </trkpt>
      <trkpt lat="43.74434" lon="7.26349">
        <ele>351.417717</ele>
        <time>2011-11-12T14:50:51Z</time>
      </trkpt>
      <trkpt lat="43.74444" lon="7.26347">
        <ele>349.417728</ele>
        <time>2011-11-12T14:50:54Z</time>
      </trkpt>
      <trkpt lat="43.74453" lon="7.26345">
        <ele>347.417732</ele>
        <time>2011-11-12T14:50:56Z</time>
      </trkpt>
      <trkpt lat="43.74463" lon="7.26343">
        <ele>346.417744</ele>
        <time>2011-11-12T14:50:58Z</time>
      </trkpt>
      <trkpt lat="43.74473" lon="7.2634">
        <ele>344.417747</ele>
        <time>2011-11-12T14:51:00Z</time>
      </trkpt>
      <trkpt lat="43.74483" lon="7.26338">
        <ele>342.417759</ele>
        <time>2011-11-12T14:51:02Z</time>
      </trkpt>
      <trkpt lat="43.74493" lon="7.26337">
        <ele>340.41777</ele>
        <time>2011-11-12T14:51:04Z</time>
      </trkpt>
      <trkpt lat="43.74498" lon="7.26338">
        <ele>340.417778</ele>
        <time>2011-11-12T14:51:05Z</time>
      </trkpt>
      <trkpt lat="43.74509" lon="7.26342">
        <ele>338.417801</ele>
        <time>2011-11-12T14:51:07Z</time>
      </trkpt>
      <trkpt lat="43.74519" lon="7.26345">
        <ele>337.417824</ele>
        <time>2011-11-12T14:51:09Z</time>
      </trkpt>
      <trkpt lat="43.74529" lon="7.26352">
        <ele>337.417854</ele>
        <time>2011-11-12T14:51:11Z</time>
      </trkpt>
      <trkpt lat="43.74541" lon="7.26361">
        <ele>336.417892</ele>
        <time>2011-11-12T14:51:13Z</time>
      </trkpt>
      <trkpt lat="43.74553" lon="7.2637">
        <ele>335.417923</ele>
        <time>2011-11-12T14:51:15Z</time>
      </trkpt>
      <trkpt lat="43.74564" lon="7.26376">
        <ele>334.41795</ele>
        <time>2011-11-12T14:51:17Z</time>
      </trkpt>
      <trkpt lat="43.74569" lon="7.26379">
        <ele>333.417969</ele>
        <time>2011-11-12T14:51:18Z</time>
      </trkpt>
      <trkpt lat="43.74578" lon="7.26383">
        <ele>332.417992</ele>
        <time>2011-11-12T14:51:20Z</time>
      </trkpt>
      <trkpt lat="43.74588" lon="7.26385">
        <ele>332.418007</ele>
        <time>2011-11-12T14:51:22Z</time>
      </trkpt>
      <trkpt lat="43.74601" lon="7.26387">
        <ele>331.418022</ele>
        <time>2011-11-12T14:51:25Z</time>
      </trkpt>
      <trkpt lat="43.74613" lon="7.26386">
        <ele>331.418037</ele>
        <time>2011-11-12T14:51:28Z</time>
      </trkpt>
      <trkpt lat="43.74625" lon="7.26384">
        <ele>330.418053</ele>
        <time>2011-11-12T14:51:31Z</time>
      </trkpt>
      <trkpt lat="43.74629" lon="7.26384">
        <ele>330.418056</ele>
        <time>2011-11-12T14:51:32Z</time>
      </trkpt>
      <trkpt lat="43.74641" lon="7.26383">
        <ele>330.418076</ele>
        <time>2011-11-12T14:51:35Z</time>
      </trkpt>
      <trkpt lat="43.74654" lon="7.26384">
        <ele>329.418091</ele>
        <time>2011-11-12T14:51:38Z</time>
      </trkpt>
      <trkpt lat="43.74665" lon="7.26385">
        <ele>328.418114</ele>
        <time>2011-11-12T14:51:41Z</time>
      </trkpt>
      <trkpt lat="43.74677" lon="7.26386">
        <ele>326.418129</ele>
        <time>2011-11-12T14:51:44Z</time>
      </trkpt>
      <trkpt lat="43.74688" lon="7.26387">
        <ele>327.418144</ele>
        <time>2011-11-12T14:51:47Z</time>
      </trkpt>
      <trkpt lat="43.74699" lon="7.26388">
        <ele>327.418167</ele>
        <time>2011-11-12T14:51:50Z</time>
      </trkpt>
      <trkpt lat="43.74719" lon="7.2639">
        <ele>327.418194</ele>
        <time>2011-11-12T14:51:58Z</time>
      </trkpt>
      <trkpt lat="43.74732" lon="7.2639">
        <ele>325.418213</ele>
        <time>2011-11-12T14:52:02Z</time>
      </trkpt>
      <trkpt lat="43.74747" lon="7.26391">
        <ele>325.418236</ele>
        <time>2011-11-12T14:52:07Z</time>
      </trkpt>
      <trkpt lat="43.74756" lon="7.2639">
        <ele>326.418247</ele>
        <time>2011-11-12T14:52:13Z</time>
      </trkpt>
    </trkseg>
  </trk>
</gpx>